[[{"header":{"parameterUnit":"m.s-1","parameterCategory":1,"la1":31.0,"la2":29.5877,"lo1":-88.7671,"lo2":-86.6584,"dy":0.0162,"dx":0.0185,"nx":115,"ny":88,"refTime":"2023-03-24T06:00:00:Z","depth":0,"parameterNumber":2,"parameterNumberName":"U-component_of_WINDS"},"data":[0.0,0.0,0.0,0.0,0.0,0.0,0.0,0.0,0.0,0.0,0.0,0.0,0.0,0.0,0.0,0.0,0.0,0.0,0.0,0.0,0.0,0.0,0.0,0.0,0.0,0.0,0.0,0.0,0.0,0.0,0.0,0.0,0.0,0.0,0.0,0.0,0.0,0.0,0.0,0.0,0.0,0.0,0.0,0.0,0.0,0.0,0.0,0.0,0.0,0.0,0.0,0.0,0.0,0.0,0.0,0.0,0.0,0.0,0.0,0.0,0.0,0.0,0.0,0.0,0.0,0.0,0.0,0.0,0.0,0.0,0.0,0.0,0.0,0.0,0.0,0.0,0.0,0.0,0.0,0.0,0.0,0.0,0.0,0.0,0.0,0.0,0.0,0.0,0.0,0.0,0.0,0.0,0.0,0.0,0.0,0.0,0.0,0.0,0.0,0.0,0.0,0.0,0.0,0.0,0.0,0.0,0.0,0.0,0.0,0.0,0.0,0.0,0.0,0.0,0.0,0.0,0.0,0.0,0.0,0.0,0.0,0.0,0.0,0.0,0.0,0.0,0.0,0.0,0.0,0.0,0.0,0.0,0.0,0.0,0.0,0.0,0.0,0.0,0.0,0.0,0.0,0.0,0.0,0.0,0.0,0.0,0.0,0.0,0.0,0.0,0.0,0.0,0.0,0.0,0.0,0.0,0.0,0.0,0.0,0.0,0.0,0.0,0.0,0.0,0.0,0.0,0.0,0.0,0.0,0.0,0.0,0.0,0.0,0.0,0.0,0.0,0.0,0.0,0.0,0.0,0.0,0.0,0.0,0.0,0.0,0.0,0.0,0.0,0.0,0.0,0.0,0.0,0.0,0.0,0.0,0.0,0.0,0.0,0.0,0.0,0.0,0.0,0.0,0.0,0.0,0.0,0.0,0.0,0.0,0.0,0.0,0.0,0.0,0.0,0.0,0.0,0.0,0.0,0.0,0.0,0.0,0.0,0.0,0.0,0.0,0.0,0.0,0.0,0.0,0.0,0.0,0.0,0.0,0.0,0.0,0.0,0.0,0.0,0.0,0.0,0.0,0.0,0.0,0.0,0.0,0.0,0.0,0.0,0.0,0.0,0.0,0.0,0.0,0.0,0.0,0.0,0.0,0.0,0.0,0.0,0.0,0.0,0.0,0.0,0.0,0.0,0.0,0.0,0.0,0.0,0.0,0.0,0.0,0.0,0.0,0.0,0.0,0.0,0.0,0.0,0.0,0.0,0.0,0.0,0.0,0.0,0.0,0.0,0.0,0.0,0.0,0.0,0.0,0.0,0.0,0.0,0.0,0.0,0.0,0.0,0.0,0.0,0.0,0.0,0.0,0.0,0.0,0.0,0.0,0.0,0.0,0.0,0.0,0.0,0.0,0.0,0.0,0.0,0.0,0.0,0.0,0.0,0.0,0.0,0.0,0.0,0.0,0.0,0.0,0.0,0.0,0.0,0.0,0.0,0.0,0.0,0.0,0.0,0.0,0.0,0.0,0.0,0.0,0.0,0.0,0.0,0.0,0.0,0.0,0.0,0.0,0.0,0.0,0.0,0.0,0.0,0.0,0.0,0.0,0.0,0.0,0.0,0.0,0.0,0.0,0.0,0.0,0.0,0.0,0.0,0.0,0.0,0.0,0.0,0.0,0.0,0.0,0.0,0.0,0.0,0.0,0.0,0.0,0.0,0.0,0.0,0.0,0.0,0.0,0.0,0.0,0.0,0.0,0.0,0.0,0.0,0.0,0.0,0.0,0.0,0.0,0.0,0.0,0.0,0.0,0.0,0.0,0.0,0.0,0.0,0.0,0.0,0.0,0.0,0.0,0.0,0.0,0.0,0.0,0.0,0.0,0.0,0.0,0.0,0.0,0.0,0.0,0.0,0.0,0.0,0.0,0.0,0.0,0.0,0.0,0.0,0.0,0.0,0.0,0.0,0.0,0.0,0.0,0.0,0.0,0.0,0.0,0.0,0.0,0.0,0.0,0.0,0.0,0.0,0.0,0.0,0.0,0.0,0.0,0.0,0.0,0.0,0.0,0.0,0.0,0.0,0.0,0.0,0.0,0.0,0.0,0.0,0.0,0.0,0.0,0.0,0.0,0.0,0.0,0.0,0.0,0.0,0.0,0.0,0.0,0.0,0.0,0.0,0.0,0.0,0.0,0.0,0.0,0.0,0.0,0.0,0.0,0.0,0.0,0.0,0.0,0.0,0.0,0.0,0.0,0.0,0.0,0.0,0.0,0.0,0.0,0.0,0.0,0.0,0.0,0.0,0.0,0.0,0.0,0.0,0.0,0.0,0.0,0.0,0.0,0.0,0.0,0.0,0.0,0.0,0.0,0.0,0.0,0.0,0.0,0.0,0.0,0.0,0.0,0.0,0.0,0.0,0.0,0.0,0.0,0.0,0.0,0.0,0.0,0.0,0.0,0.0,0.0,0.0,0.0,0.0,0.0,0.0,0.0,0.0,0.0,0.0,0.0,0.0,0.0,0.0,0.0,0.0,0.0,0.0,0.0,0.0,0.0,0.0,0.0,0.0,0.0,0.0,0.0,0.0,0.0,0.0,0.0,0.0,0.0,0.0,0.0,0.0,0.0,0.0,0.0,0.0,0.0,0.0,0.0,0.0,0.0,0.0,0.0,0.0,0.0,0.0,0.0,0.0,0.0,0.0,0.0,0.0,0.0,0.0,0.0,0.0,0.0,0.0,0.0,0.0,0.0,0.0,0.0,0.0,0.0,0.0,0.0,0.0,0.0,0.0,0.0,0.0,0.0,0.0,0.0,0.0,0.0,0.0,0.0,0.0,0.0,0.0,0.0,0.0,0.0,0.0,0.0,0.0,0.0,0.0,0.0,0.0,0.0,0.0,0.0,0.0,0.0,0.0,0.0,0.0,0.0,0.0,0.0,0.0,0.0,0.0,0.0,0.0,0.0,0.0,0.0,0.0,0.0,0.0,0.0,0.0,0.0,0.0,0.0,0.0,0.0,0.0,0.0,0.0,0.0,0.0,0.0,0.0,0.0,0.0,0.0,0.0,0.0,0.0,0.0,0.0,0.0,0.0,0.0,0.0,0.0,0.0,0.0,0.0,0.0,0.0,0.0,0.0,0.0,0.0,0.0,0.0,0.0,0.0,0.0,0.0,0.0,0.0,0.0,0.0,0.0,0.0,0.0,0.0,0.0,0.0,0.0,0.0,0.0,0.0,0.0,0.0,0.0,0.0,0.0,0.0,0.0,0.0,0.0,0.0,0.0,0.0,0.0,0.0,0.0,0.0,0.0,0.0,0.0,0.0,0.0,0.0,0.0,0.0,0.0,0.0,0.0,0.0,0.0,0.0,0.0,0.0,0.0,0.0,0.0,0.0,0.0,0.0,0.0,0.0,0.0,0.0,0.0,0.0,0.0,0.0,0.0,0.0,0.0,0.0,0.0,0.0,0.0,0.0,0.0,0.0,0.0,0.0,0.0,0.0,0.0,0.0,0.0,0.0,0.0,0.0,0.0,0.0,0.0,0.0,0.0,0.0,0.0,0.0,0.0,0.0,0.0,0.0,0.0,0.0,0.0,0.0,0.0,0.0,0.0,0.0,0.0,0.0,0.0,0.0,0.0,0.0,0.0,0.0,0.0,0.0,0.0,0.0,0.0,0.0,0.0,0.0,0.0,0.0,0.0,0.0,0.0,0.0,0.0,0.0,0.0,0.0,0.0,0.0,0.0,0.0,0.0,0.0,0.0,0.0,0.0,0.0,0.0,0.0,0.0,0.0,0.0,0.0,0.0,0.0,0.0,0.0,0.0,0.0,0.0,0.0,0.0,0.0,0.0,0.0,0.0,0.0,0.0,0.0,0.0,0.0,0.0,0.0,0.0,0.0,0.0,0.0,0.0,0.0,0.0,0.0,0.0,0.0,0.0,0.0,0.0,0.0,0.0,0.0,0.0,0.0,0.0,0.0,0.0,0.0,0.0,0.0,0.0,0.0,0.0,0.0,0.0,0.0,0.0,0.0,0.0,0.0,0.0,0.0,0.0,0.0,0.0,0.0,0.0,0.0,0.0,0.0,0.0,0.0,0.0,0.0,0.0,0.0,0.0,0.0,0.0,0.0,0.0,0.0,0.0,0.0,0.0,0.0,0.0,0.0,0.0,0.0,0.0,0.0,0.0,0.0,0.0,0.0,0.0,0.0,0.0,0.0,0.0,0.0,0.0,0.0,0.0,0.0,0.0,0.0,0.0,0.0,0.0,0.0,0.0,0.0,0.0,0.0,0.0,0.0,-0.4807,0.0,0.0,0.0,0.0,0.0,0.0,0.0,0.0,0.0,0.0,0.0,0.0,0.0,0.0,0.0,0.0,0.0,0.0,0.0,0.0,0.0,0.0,0.0,0.0,0.0,0.0,0.0,0.0,0.0,0.0,0.0,0.0,0.0,0.0,0.0,0.0,0.0,0.0,0.0,0.0,0.0,0.0,0.0,0.0,0.0,0.0,0.0,0.0,0.0,0.0,0.0,0.0,0.0,0.0,0.0,0.0,0.0,0.0,0.0,0.0,0.0,0.0,0.0,0.0,0.0,0.0,0.0,0.0,0.0,0.0,0.0,0.0,0.0,0.0,0.0,0.0,0.0,0.0,0.0,0.0,0.0,0.0,0.0,0.0,0.0,0.0,0.0,0.0,0.0,0.0,0.0,0.0,0.0,0.0,0.0,0.0,0.0,0.0,0.0,0.0,0.0,0.0,0.0,0.0,0.0,0.0,0.0,0.0,0.0,0.0,-0.301,-0.3751,-0.3978,-0.4367,-0.4944,0.0,0.0,0.0,0.0,0.0,0.0,0.0,0.0,0.0,0.0,0.0,0.0,0.0,0.0,0.0,0.0,0.0,0.0,0.0,0.0,0.0,0.0,0.0,0.0,0.0,0.0,0.0,0.0,0.0,0.0,0.0,0.0,0.0,0.0,0.0,0.0,0.0,0.0,0.0,0.0,0.0,0.0,0.0,0.0,0.0,0.0,0.0,0.0,0.0,0.0,0.0,0.0,0.0,0.0,0.0,0.0,0.0,0.0,0.0,0.0,0.0,0.0,0.0,0.0,0.0,0.0,0.0,0.0,0.0,0.0,0.0,0.0,0.0,0.0,0.0,0.0,0.0,0.0,0.0,0.0,0.0,0.0,0.0,0.0,0.0,0.0,0.0,0.0,0.0,0.0,0.0,0.0,0.0,0.0,0.0,0.0,0.0,0.0,0.0,0.0,0.0,0.0,0.0,0.0,0.0,0.0,0.0,0.0,0.0,0.0,0.0,0.0,-0.4855,-0.5081,-0.5246,0.0,0.0,0.0,0.0,0.0,0.0,0.0,0.0,0.0,0.0,0.0,0.0,0.0,0.0,0.0,0.0,0.0,0.0,0.0,0.0,0.0,0.0,0.0,0.0,0.0,0.0,0.0,0.0,0.0,0.0,0.0,0.0,0.0,0.0,0.0,0.0,0.0,0.0,0.0,0.0,0.0,0.0,0.0,0.0,0.0,0.0,0.0,0.0,0.0,0.0,0.0,0.0,0.0,0.0,0.0,0.0,0.0,0.0,0.0,0.0,0.0,0.0,0.0,0.0,0.0,0.0,0.0,0.0,0.0,0.0,0.0,0.0,0.0,0.0,0.0,0.0,0.0,0.0,0.0,0.0,0.0,0.0,0.0,0.0,0.0,0.0,0.0,0.0,0.0,0.0,0.0,0.0,0.0,0.0,0.0,0.0,0.0,0.0,0.0,0.0,0.0,0.0,0.0,0.0,0.0,0.0,0.0,0.0,0.0,0.0,-0.5015,-0.581,-0.5869,0.0,-0.6837,0.0,0.0,0.0,0.0,0.0,0.0,0.0,0.0,0.0,0.0,0.0,0.0,0.0,0.0,0.0,0.0,0.0,0.0,0.0,0.0,0.0,0.0,0.0,0.0,0.0,0.0,0.0,0.0,0.0,0.0,0.0,0.0,0.0,0.0,0.0,0.0,0.0,0.0,0.0,0.0,0.0,0.0,0.0,0.0,0.0,0.0,0.0,0.0,0.0,0.0,0.0,0.0,0.0,0.0,0.0,0.0,0.0,0.0,0.0,0.0,0.0,0.0,0.0,0.0,0.0,0.0,0.0,0.0,0.0,0.0,0.0,0.0,0.0,0.0,0.0,0.0,0.0,0.0,0.0,0.0,0.0,0.0,0.0,0.0,0.0,0.0,0.0,0.0,0.0,0.0,0.0,0.0,0.0,0.0,0.0,0.0,0.0,0.0,0.0,0.0,0.0,0.0,0.0,0.0,0.0,0.0,0.0,0.0,0.0,0.0,-0.6009,-0.6642,-0.688,-0.7283,0.0,0.0,0.0,0.0,0.0,0.0,0.0,0.0,0.0,0.0,0.0,0.0,0.0,0.0,0.0,0.0,0.0,0.0,0.0,0.0,0.0,0.0,0.0,0.0,0.0,0.0,0.0,0.0,0.0,0.0,0.0,0.0,0.0,0.0,0.0,0.0,0.0,0.0,0.0,0.0,0.0,0.0,0.0,0.0,0.0,0.0,0.0,0.0,0.0,0.0,0.0,0.0,0.0,0.0,0.0,0.0,0.0,0.0,0.0,0.0,0.0,0.0,0.0,0.0,0.0,0.0,0.0,0.0,0.0,0.0,0.0,0.0,0.0,0.0,0.0,0.0,0.0,0.0,0.0,0.0,0.0,0.0,0.0,0.0,0.0,0.0,0.0,0.0,0.0,0.0,0.0,0.0,0.0,0.0,0.0,0.0,0.0,0.0,0.0,0.0,0.0,0.0,0.0,0.0,0.0,0.0,0.0,0.0,0.0,0.0,-0.6615,-0.7241,-0.7664,-0.7957,-0.8203,-0.8348,0.0,0.0,0.0,0.0,0.0,0.0,0.0,0.0,0.0,0.0,0.0,0.0,0.0,0.0,0.0,0.0,0.0,0.0,0.0,0.0,0.0,0.0,0.0,0.0,0.0,0.0,0.0,0.0,0.0,0.0,0.0,0.0,0.0,0.0,0.0,0.0,0.0,0.0,0.0,0.0,0.0,0.0,0.0,0.0,0.0,0.0,0.0,0.0,0.0,0.0,0.0,0.0,0.0,0.0,0.0,0.0,0.0,0.0,0.0,0.0,0.0,0.0,0.0,0.0,0.0,0.0,0.0,0.0,0.0,0.0,0.0,0.0,0.0,0.0,0.0,0.0,0.0,0.0,0.0,0.0,0.0,0.0,0.0,0.0,0.0,0.0,0.0,0.0,0.0,0.0,0.0,0.0,0.0,0.0,0.0,0.0,0.0,0.0,0.0,0.0,0.0,0.0,0.0,0.0,0.0,0.0,0.0,0.0,-0.6874,-0.7937,-0.8699,-0.9046,-0.9124,-0.885,0.0,0.0,0.0,0.0,0.0,0.0,0.0,0.0,0.0,0.0,0.0,0.0,0.0,0.0,0.0,0.0,0.0,0.0,0.0,0.0,0.0,0.0,0.0,0.0,0.0,0.0,0.0,0.0,0.0,0.0,0.0,0.0,0.0,0.0,0.0,0.0,0.0,0.0,0.0,0.0,0.0,0.0,0.0,0.0,0.0,0.0,0.0,0.0,0.0,0.0,0.0,0.0,0.0,0.0,0.0,0.0,0.0,0.0,0.0,0.0,0.0,0.0,0.0,0.0,0.0,0.0,0.0,0.0,0.0,0.0,0.0,0.0,0.0,0.0,0.0,0.0,0.0,0.0,0.0,0.0,0.0,0.0,0.0,0.0,0.0,0.0,0.0,0.0,0.0,0.0,0.0,0.0,0.0,0.0,0.0,0.0,0.0,0.0,0.0,0.0,0.0,0.0,0.0,0.0,0.0,0.0,0.0,0.0,0.0,-0.8092,-0.8908,-0.928,-0.9105,-0.9418,-0.9268,0.0,0.0,0.0,0.0,0.0,0.0,0.0,0.0,0.0,0.0,0.0,0.0,0.0,0.0,0.0,0.0,0.0,0.0,0.0,0.0,0.0,0.0,0.0,0.0,0.0,0.0,0.0,0.0,0.0,0.0,0.0,0.0,0.0,0.0,0.0,0.0,0.0,0.0,0.0,0.0,0.0,0.0,0.0,0.0,0.0,0.0,0.0,0.0,0.0,0.0,0.0,0.0,0.0,0.0,0.0,0.0,0.0,0.0,0.0,0.0,0.0,0.0,0.0,0.0,0.0,0.0,0.0,0.0,0.0,0.0,0.0,0.0,0.0,0.0,0.0,0.0,0.0,0.0,0.0,0.0,0.0,0.0,0.0,0.0,0.0,0.0,0.0,0.0,0.0,0.0,0.0,0.0,0.0,0.0,0.0,0.0,0.0,0.0,0.0,0.0,0.0,0.0,0.0,0.0,0.0,0.0,0.0,0.0,0.0,-0.953,0.0,-0.9964,-0.9961,-1.0046,-0.9814,0.0,0.0,0.0,0.0,0.0,0.0,0.0,0.0,0.0,0.0,0.0,0.0,0.0,0.0,0.0,0.0,0.0,0.0,0.0,0.0,0.0,0.0,0.0,0.0,0.0,0.0,0.0,0.0,0.0,0.0,0.0,0.0,0.0,0.0,0.0,0.0,0.0,0.0,0.0,0.0,0.0,0.0,0.0,0.0,0.0,0.0,0.0,0.0,0.0,0.0,0.0,0.0,0.0,0.0,0.0,0.0,0.0,0.0,0.0,0.0,0.0,0.0,0.0,0.0,0.0,0.0,0.0,0.0,0.0,0.0,0.0,0.0,0.0,0.0,0.0,0.0,0.0,0.0,0.0,0.0,0.0,0.0,0.0,0.0,0.0,0.0,0.0,0.0,0.0,0.0,0.0,0.0,0.0,0.0,0.0,0.0,0.0,0.0,0.0,0.0,0.0,0.0,0.0,0.0,0.0,0.0,0.0,0.0,-1.1107,-1.1166,-1.0712,-1.088,-1.1794,-1.1065,-1.0454,0.0,0.0,0.0,0.0,0.0,0.0,0.0,0.0,0.0,0.0,0.0,0.0,0.0,0.0,0.0,0.0,0.0,0.0,0.0,0.0,0.0,0.0,0.0,0.0,0.0,0.0,0.0,0.0,0.0,0.0,0.0,0.0,0.0,0.0,0.0,0.0,0.0,0.0,0.0,0.0,0.0,0.0,0.0,0.0,0.0,0.0,0.0,0.0,0.0,0.0,0.0,0.0,0.0,0.0,0.0,0.0,0.0,0.0,0.0,0.0,0.0,0.0,0.0,0.0,0.0,0.0,0.0,0.0,0.0,0.0,0.0,0.0,0.0,0.0,0.0,0.0,0.0,0.0,0.0,0.0,0.0,0.0,0.0,0.0,0.0,0.0,0.0,0.0,0.0,0.0,0.0,0.0,0.0,0.0,0.0,0.0,0.0,0.0,0.0,0.0,0.0,0.0,0.0,0.0,0.0,0.0,0.0,0.0,0.0,-1.2378,-1.2033,-1.1651,-1.1309,-1.0989,-1.0454,0.0,0.0,0.0,0.0,0.0,0.0,0.0,0.0,0.0,0.0,0.0,0.0,0.0,0.0,0.0,0.0,0.0,0.0,0.0,0.0,0.0,0.0,0.0,0.0,0.0,0.0,0.0,0.0,0.0,0.0,0.0,0.0,0.0,0.0,0.0,0.0,0.0,0.0,0.0,0.0,0.0,0.0,0.0,0.0,0.0,0.0,0.0,0.0,0.0,0.0,0.0,0.0,0.0,0.0,0.0,0.0,0.0,0.0,0.0,0.0,0.0,0.0,0.0,0.0,0.0,0.0,0.0,0.0,0.0,0.0,0.0,0.0,0.0,0.0,0.0,0.0,0.0,0.0,0.0,0.0,0.0,0.0,0.0,0.0,0.0,0.0,0.0,0.0,0.0,0.0,0.0,0.0,0.0,0.0,0.0,0.0,0.0,0.0,0.0,0.0,0.0,0.0,0.0,0.0,0.0,0.0,0.0,0.0,0.0,-1.3103,-1.2093,-1.1393,-1.1062,-1.0685,-1.0444,-1.0303,0.0,0.0,0.0,0.0,0.0,0.0,0.0,0.0,0.0,0.0,0.0,0.0,0.0,0.0,0.0,0.0,0.0,0.0,0.0,0.0,0.0,0.0,0.0,0.0,0.0,0.0,0.0,0.0,0.0,0.0,0.0,0.0,0.0,0.0,0.0,0.0,0.0,0.0,0.0,0.0,0.0,0.0,0.0,0.0,0.0,0.0,0.0,0.0,0.0,0.0,0.0,0.0,0.0,0.0,0.0,0.0,0.0,0.0,0.0,0.0,0.0,0.0,0.0,0.0,0.0,0.0,0.0,0.0,0.0,0.0,0.0,0.0,0.0,0.0,0.0,0.0,0.0,0.0,0.0,0.0,0.0,0.0,0.0,0.0,0.0,0.0,0.0,0.0,0.0,0.0,0.0,0.0,0.0,0.0,0.0,0.0,0.0,0.0,0.0,0.0,0.0,0.0,0.0,0.0,0.0,0.0,0.0,0.0,-1.3341,-1.1174,-1.0379,-1.1018,-1.0342,-1.0456,0.0,0.0,0.0,0.0,0.0,0.0,0.0,0.0,0.0,0.0,0.0,0.0,0.0,0.0,0.0,0.0,0.0,0.0,0.0,0.0,0.0,0.0,0.0,0.0,0.0,0.0,0.0,0.0,0.0,0.0,0.0,0.0,0.0,0.0,0.0,0.0,0.0,0.0,0.0,0.0,0.0,0.0,0.0,0.0,0.0,0.0,0.0,0.0,0.0,0.0,0.0,0.0,0.0,0.0,0.0,0.0,0.0,0.0,0.0,0.0,0.0,0.0,0.0,0.0,0.0,0.0,0.0,0.0,0.0,0.0,0.0,0.0,0.0,0.0,0.0,0.0,0.0,0.0,0.0,0.0,0.0,0.0,0.0,0.0,0.0,0.0,0.0,0.0,0.0,0.0,0.0,0.0,0.0,0.0,0.0,0.0,0.0,0.0,0.0,0.0,0.0,0.0,0.0,0.0,0.0,0.0,0.0,0.0,0.0,-1.2491,-1.1108,-1.0475,-1.0519,-1.0958,-1.0931,0.0,0.0,0.0,0.0,0.0,0.0,0.0,0.0,0.0,0.0,0.0,0.0,0.0,0.0,0.0,0.0,0.0,0.0,0.0,0.0,0.0,0.0,0.0,0.0,0.0,0.0,0.0,0.0,0.0,0.0,0.0,0.0,0.0,0.0,0.0,0.0,0.0,0.0,0.0,0.0,0.0,0.0,0.0,0.0,0.0,0.0,0.0,0.0,0.0,0.0,0.0,0.0,0.0,0.0,0.0,0.0,0.0,0.0,0.0,0.0,0.0,0.0,0.0,0.0,0.0,0.0,0.0,0.0,0.0,0.0,0.0,0.0,0.0,0.0,0.0,0.0,0.0,0.0,0.0,0.0,0.0,0.0,0.0,0.0,0.0,0.0,0.0,0.0,0.0,0.0,0.0,0.0,0.0,0.0,0.0,0.0,0.0,0.0,0.0,0.0,0.0,0.0,0.0,0.0,0.0,0.0,0.0,0.0,-1.5876,-1.4033,-1.301,-1.2149,-1.1435,-1.1171,-1.111,0.0,0.0,0.0,0.0,0.0,0.0,0.0,0.0,0.0,0.0,0.0,0.0,0.0,0.0,0.0,0.0,0.0,0.0,0.0,0.0,0.0,0.0,0.0,0.0,0.0,0.0,0.0,0.0,0.0,0.0,0.0,0.0,0.0,0.0,0.0,0.0,0.0,0.0,0.0,0.0,0.0,0.0,0.0,0.0,0.0,0.0,0.0,0.0,0.0,0.0,0.0,0.0,0.0,0.0,0.0,0.0,0.0,0.0,0.0,0.0,0.0,0.0,0.0,0.0,0.0,0.0,0.0,0.0,0.0,0.0,0.0,0.0,0.0,0.0,0.0,0.0,0.0,0.0,0.0,0.0,0.0,0.0,0.0,0.0,0.0,0.0,0.0,0.0,0.0,0.0,0.0,0.0,0.0,0.0,0.0,0.0,0.0,0.0,0.0,0.0,0.0,0.0,0.0,0.0,0.0,0.0,0.0,0.0,-1.7553,-1.679,-1.5856,-1.4651,-1.3107,-1.1416,-1.1248,0.0,0.0,0.0,0.0,0.0,0.0,0.0,0.0,0.0,0.0,0.0,0.0,0.0,0.0,0.0,0.0,0.0,0.0,0.0,0.0,0.0,0.0,0.0,0.0,0.0,0.0,0.0,0.0,0.0,0.0,0.0,0.0,0.0,0.0,0.0,0.0,0.0,0.0,0.0,0.0,0.0,0.0,0.0,0.0,0.0,0.0,0.0,0.0,0.0,0.0,0.0,0.0,0.0,0.0,0.0,0.0,0.0,0.0,0.0,0.0,0.0,0.0,0.0,0.0,0.0,0.0,0.0,0.0,0.0,0.0,0.0,0.0,0.0,0.0,0.0,0.0,0.0,0.0,0.0,0.0,0.0,0.0,0.0,0.0,0.0,0.0,0.0,0.0,0.0,0.0,0.0,0.0,0.0,0.0,0.0,0.0,0.0,0.0,0.0,0.0,0.0,0.0,0.0,0.0,0.0,0.0,0.0,0.0,-1.8507,-1.8029,-1.7363,-1.6156,-1.4454,-1.3196,-1.2216,0.0,0.0,0.0,0.0,0.0,0.0,0.0,0.0,0.0,0.0,0.0,0.0,0.0,0.0,0.0,0.0,0.0,0.0,0.0,0.0,0.0,0.0,0.0,0.0,0.0,0.0,0.0,0.0,0.0,0.0,0.0,0.0,0.0,0.0,0.0,0.0,0.0,0.0,0.0,0.0,0.0,0.0,0.0,0.0,0.0,0.0,0.0,0.0,-0.7868,0.0,0.0,0.0,0.0,0.0,0.0,0.0,0.0,0.0,0.0,0.0,0.0,0.0,0.0,0.0,0.0,0.0,0.0,0.0,0.0,0.0,0.0,0.0,0.0,0.0,0.0,0.0,0.0,0.0,0.0,0.0,0.0,0.0,0.0,0.0,0.0,0.0,0.0,0.0,0.0,0.0,0.0,0.0,0.0,0.0,0.0,0.0,0.0,0.0,0.0,0.0,0.0,0.0,0.0,0.0,0.0,0.0,0.0,0.0,-2.0165,-2.0027,-1.9156,-1.8161,-1.7011,-1.5847,-1.4387,0.0,0.0,0.0,0.0,0.0,0.0,0.0,0.0,0.0,0.0,0.0,0.0,0.0,0.0,0.0,0.0,0.0,0.0,0.0,0.0,0.0,0.0,0.0,0.0,0.0,0.0,0.0,0.0,0.0,0.0,0.0,0.0,0.0,0.0,0.0,0.0,0.0,0.0,0.0,0.0,0.0,0.0,0.0,0.0,0.0,0.0,0.0,0.0,0.0,0.0,0.0,0.0,0.0,0.0,0.0,0.0,0.0,0.0,0.0,0.0,0.0,0.0,0.0,0.0,0.0,0.0,0.0,0.0,0.0,0.0,0.0,0.0,0.0,0.0,0.0,0.0,0.0,0.0,0.0,0.0,0.0,0.0,0.0,0.0,0.0,0.0,0.0,0.0,0.0,0.0,0.0,0.0,0.0,0.0,0.0,0.0,0.0,0.0,0.0,0.0,0.0,0.0,0.0,0.0,0.0,0.0,0.0,-2.1651,-2.1927,-2.2133,-2.1089,-2.0189,-1.9489,-1.8312,-1.6808,-1.5003,0.0,0.0,0.0,0.0,0.0,0.0,0.0,0.0,0.0,0.0,0.0,0.0,0.0,0.0,0.0,0.0,0.0,0.0,0.0,0.0,0.0,0.0,0.0,0.0,0.0,0.0,0.0,0.0,0.0,0.0,0.0,0.0,0.0,0.0,0.0,0.0,0.0,0.0,-0.6041,-0.6477,0.0,0.0,0.0,0.0,0.0,0.0,0.0,0.0,-0.912,0.0,0.0,0.0,0.0,0.0,0.0,0.0,0.0,0.0,0.0,0.0,0.0,0.0,0.0,0.0,0.0,0.0,0.0,0.0,0.0,0.0,0.0,0.0,0.0,0.0,0.0,0.0,0.0,0.0,0.0,0.0,0.0,0.0,0.0,0.0,0.0,0.0,0.0,0.0,0.0,0.0,0.0,0.0,0.0,0.0,0.0,0.0,0.0,0.0,0.0,0.0,0.0,0.0,0.0,0.0,0.0,-2.2731,-2.2775,-2.3007,-2.3479,-2.2997,-2.1716,-1.9576,-1.8837,-1.81,-1.7278,0.0,0.0,0.0,0.0,0.0,0.0,0.0,0.0,0.0,0.0,0.0,0.0,0.0,0.0,0.0,0.0,0.0,0.0,0.0,0.0,0.0,0.0,0.0,0.0,0.0,0.0,0.0,0.0,0.0,0.0,0.0,0.0,0.0,0.0,0.0,0.0,0.0,0.0,0.0,-0.7566,-0.762,0.0,0.0,0.0,0.0,0.0,0.0,0.0,0.0,-0.9398,0.0,0.0,0.0,0.0,0.0,0.0,0.0,0.0,0.0,0.0,0.0,0.0,0.0,0.0,0.0,0.0,0.0,0.0,0.0,0.0,0.0,0.0,0.0,0.0,0.0,0.0,0.0,0.0,0.0,0.0,0.0,0.0,0.0,0.0,0.0,0.0,0.0,0.0,0.0,0.0,0.0,0.0,0.0,0.0,0.0,0.0,0.0,0.0,0.0,0.0,0.0,0.0,0.0,0.0,0.0,-2.3546,-2.3873,-2.4262,-2.4772,-2.4008,-2.2857,-2.1393,-2.0488,-1.9666,0.0,0.0,0.0,0.0,0.0,0.0,0.0,0.0,0.0,0.0,0.0,0.0,0.0,0.0,0.0,0.0,0.0,0.0,0.0,0.0,0.0,0.0,0.0,0.0,0.0,0.0,0.0,0.0,0.0,0.0,0.0,0.0,0.0,0.0,0.0,0.0,0.0,0.0,0.0,0.0,-0.7328,-0.7493,-0.8811,0.0,0.0,0.0,0.0,0.0,0.0,-0.9333,-0.9753,0.0,0.0,0.0,0.0,0.0,0.0,0.0,0.0,0.0,0.0,0.0,0.0,0.0,0.0,0.0,0.0,0.0,0.0,0.0,0.0,0.0,0.0,0.0,0.0,0.0,0.0,0.0,0.0,0.0,0.0,0.0,0.0,0.0,0.0,0.0,0.0,0.0,0.0,0.0,0.0,0.0,0.0,0.0,0.0,0.0,0.0,0.0,0.0,0.0,0.0,0.0,0.0,0.0,0.0,0.0,-2.4318,-2.495,-2.5491,-2.5926,-2.477,-2.3803,-2.3092,-2.1835,-2.0824,0.0,0.0,0.0,0.0,0.0,0.0,0.0,0.0,0.0,0.0,0.0,0.0,0.0,0.0,0.0,0.0,0.0,0.0,0.0,0.0,0.0,0.0,0.0,0.0,0.0,0.0,0.0,0.0,0.0,0.0,0.0,0.0,0.0,0.0,0.0,0.0,0.0,0.0,0.0,0.0,0.0,-0.7365,-0.9474,-0.8774,0.0,0.0,0.0,0.0,-1.0085,-0.9767,0.0,0.0,0.0,0.0,0.0,0.0,0.0,0.0,0.0,0.0,0.0,0.0,0.0,0.0,0.0,0.0,0.0,0.0,0.0,0.0,0.0,0.0,0.0,0.0,0.0,0.0,0.0,0.0,0.0,0.0,0.0,0.0,0.0,0.0,0.0,0.0,0.0,0.0,0.0,0.0,0.0,0.0,0.0,0.0,0.0,0.0,0.0,0.0,0.0,0.0,0.0,0.0,0.0,0.0,0.0,0.0,-2.5134,-2.6046,-2.6564,-2.6633,-2.5737,-2.4548,-2.314,-2.1637,-2.0701,0.0,0.0,0.0,0.0,0.0,0.0,0.0,0.0,0.0,0.0,0.0,0.0,0.0,0.0,0.0,0.0,0.0,0.0,0.0,0.0,0.0,0.0,0.0,0.0,0.0,0.0,0.0,0.0,0.0,0.0,0.0,0.0,0.0,0.0,0.0,0.0,0.0,0.0,0.0,0.0,0.0,-0.8075,-0.8387,-0.8446,-0.9112,0.0,0.0,-0.7674,-0.9381,-0.9444,0.0,0.0,0.0,0.0,0.0,0.0,0.0,0.0,0.0,0.0,0.0,0.0,0.0,0.0,0.0,0.0,0.0,0.0,0.0,0.0,0.0,0.0,0.0,0.0,0.0,0.0,0.0,0.0,0.0,0.0,0.0,0.0,0.0,0.0,0.0,0.0,0.0,0.0,0.0,0.0,0.0,0.0,0.0,0.0,0.0,0.0,0.0,0.0,0.0,0.0,0.0,0.0,0.0,0.0,0.0,-2.5172,-2.5349,-2.6764,-2.7632,-2.7822,-2.6087,-2.4926,-2.4461,-2.2177,-2.0866,0.0,0.0,0.0,0.0,0.0,0.0,0.0,0.0,0.0,0.0,0.0,0.0,0.0,0.0,0.0,0.0,0.0,0.0,0.0,0.0,0.0,0.0,0.0,0.0,0.0,0.0,0.0,0.0,0.0,0.0,0.0,0.0,0.0,0.0,0.0,0.0,0.0,0.0,0.0,0.0,0.0,0.0,-1.0283,-0.9643,0.0,0.0,0.0,-0.7579,-0.9441,0.0,0.0,0.0,0.0,0.0,0.0,0.0,0.0,0.0,0.0,0.0,0.0,0.0,0.0,0.0,0.0,0.0,0.0,0.0,0.0,0.0,0.0,0.0,0.0,0.0,0.0,0.0,0.0,0.0,0.0,0.0,0.0,0.0,0.0,0.0,0.0,0.0,0.0,0.0,0.0,0.0,0.0,0.0,0.0,0.0,0.0,0.0,0.0,0.0,0.0,0.0,0.0,0.0,0.0,0.0,0.0,0.0,-2.5722,-2.7525,-2.8559,-2.8622,-2.6614,-2.5507,-2.5479,-2.2899,0.0,0.0,0.0,0.0,0.0,0.0,0.0,0.0,0.0,0.0,0.0,0.0,0.0,0.0,0.0,0.0,0.0,0.0,0.0,0.0,0.0,0.0,0.0,0.0,0.0,0.0,0.0,-1.2661,0.0,0.0,0.0,0.0,0.0,0.0,0.0,0.0,0.0,0.0,0.0,0.0,0.0,0.0,-1.0224,-1.2302,-1.1231,-1.1128,0.0,0.0,-0.7884,-0.9479,-0.9553,-0.9921,0.0,0.0,0.0,0.0,0.0,0.0,0.0,0.0,0.0,0.0,0.0,0.0,0.0,0.0,0.0,0.0,0.0,0.0,0.0,0.0,0.0,0.0,0.0,0.0,0.0,0.0,0.0,0.0,0.0,0.0,0.0,0.0,0.0,0.0,0.0,0.0,0.0,0.0,0.0,0.0,0.0,0.0,0.0,0.0,0.0,0.0,0.0,0.0,0.0,0.0,0.0,0.0,0.0,0.0,0.0,-2.6737,-2.856,-2.9212,-2.8709,-2.7688,-2.6651,-2.5604,-2.3768,-2.248,0.0,0.0,0.0,0.0,0.0,0.0,0.0,0.0,0.0,0.0,0.0,0.0,0.0,0.0,0.0,0.0,0.0,0.0,0.0,0.0,0.0,0.0,0.0,0.0,0.0,0.0,0.0,0.0,0.0,0.0,0.0,0.0,0.0,0.0,0.0,0.0,0.0,0.0,0.0,0.0,0.0,-1.2019,-1.3497,-1.2974,-1.2812,0.0,0.0,-0.8898,-0.9222,-1.0264,-1.1129,-1.149,0.0,0.0,0.0,0.0,0.0,0.0,0.0,0.0,0.0,0.0,0.0,0.0,0.0,0.0,0.0,0.0,0.0,0.0,0.0,0.0,0.0,0.0,0.0,0.0,0.0,0.0,0.0,0.0,0.0,0.0,0.0,0.0,0.0,0.0,0.0,0.0,0.0,0.0,0.0,0.0,0.0,0.0,0.0,0.0,0.0,0.0,0.0,0.0,0.0,0.0,0.0,0.0,0.0,-2.7316,-2.7081,-2.8533,-2.9285,-2.9261,-2.7508,-2.6462,-2.6226,-2.4563,-2.3255,0.0,0.0,0.0,0.0,0.0,0.0,0.0,0.0,0.0,0.0,0.0,0.0,0.0,0.0,0.0,0.0,0.0,0.0,0.0,0.0,0.0,0.0,0.0,0.0,0.0,0.0,0.0,0.0,-1.1682,-1.1241,-1.1359,0.0,0.0,0.0,0.0,0.0,0.0,0.0,0.0,0.0,0.0,-1.3645,-1.3512,-1.3514,0.0,0.0,-1.2923,-1.1603,-1.2423,-1.2023,-1.2177,-1.3769,-1.4371,0.0,0.0,0.0,0.0,0.0,0.0,0.0,0.0,0.0,0.0,0.0,0.0,0.0,0.0,0.0,0.0,0.0,0.0,0.0,0.0,0.0,0.0,0.0,0.0,0.0,0.0,0.0,0.0,0.0,0.0,0.0,0.0,0.0,0.0,0.0,0.0,0.0,0.0,0.0,0.0,0.0,0.0,0.0,0.0,0.0,0.0,0.0,0.0,0.0,0.0,0.0,0.0,-2.7947,-2.7476,-2.8894,-2.9585,-2.9453,-2.7765,-2.6787,-2.6637,-2.5386,-2.4319,0.0,0.0,0.0,0.0,0.0,0.0,0.0,0.0,0.0,0.0,0.0,0.0,0.0,0.0,0.0,0.0,0.0,0.0,0.0,0.0,0.0,0.0,0.0,0.0,0.0,0.0,0.0,0.0,-1.2821,-1.2468,-1.2749,0.0,0.0,0.0,0.0,0.0,0.0,0.0,0.0,0.0,0.0,-1.5813,-1.505,-1.4835,-1.4884,-1.5285,-1.361,-1.2615,-1.3473,-1.3423,-1.3973,-1.5995,0.0,0.0,0.0,0.0,0.0,0.0,0.0,0.0,0.0,0.0,0.0,0.0,0.0,0.0,0.0,0.0,0.0,0.0,0.0,0.0,0.0,0.0,0.0,0.0,0.0,0.0,0.0,0.0,0.0,0.0,0.0,0.0,0.0,0.0,0.0,0.0,0.0,0.0,0.0,0.0,0.0,0.0,0.0,0.0,0.0,0.0,0.0,0.0,0.0,0.0,0.0,0.0,0.0,-2.7897,-2.8104,-2.9878,-3.0241,-2.9012,-2.8736,-2.8036,-2.6875,-2.6336,-2.5759,-2.5149,0.0,0.0,0.0,0.0,0.0,0.0,0.0,0.0,0.0,0.0,0.0,0.0,0.0,0.0,0.0,0.0,0.0,0.0,0.0,0.0,0.0,0.0,0.0,0.0,0.0,0.0,-1.7412,-1.5302,-1.3969,0.0,0.0,0.0,0.0,0.0,0.0,0.0,0.0,0.0,0.0,-1.8471,-1.8772,-1.8554,-1.7386,-1.6069,-1.4572,-1.2685,-1.1409,-1.1652,-1.4306,-1.6756,0.0,0.0,0.0,0.0,0.0,0.0,0.0,0.0,0.0,0.0,0.0,0.0,0.0,0.0,0.0,0.0,0.0,0.0,0.0,0.0,0.0,0.0,0.0,0.0,0.0,0.0,0.0,0.0,-1.7376,0.0,0.0,0.0,0.0,0.0,0.0,0.0,0.0,0.0,0.0,0.0,-2.1689,-2.167,0.0,0.0,0.0,0.0,0.0,0.0,0.0,0.0,0.0,0.0,0.0,0.0,-2.8241,-2.8248,-2.9802,-3.0371,-2.9849,-2.9403,-2.872,-2.7765,-2.7562,-2.7067,-2.6158,0.0,0.0,0.0,0.0,0.0,0.0,0.0,0.0,0.0,0.0,0.0,0.0,0.0,0.0,0.0,0.0,0.0,0.0,0.0,0.0,0.0,0.0,0.0,0.0,0.0,-1.8043,0.0,0.0,0.0,0.0,0.0,0.0,0.0,0.0,0.0,0.0,0.0,-1.7906,-1.7937,-1.9298,-2.0097,-1.9635,-1.8892,-1.8204,0.0,0.0,0.0,0.0,0.0,0.0,0.0,0.0,0.0,0.0,0.0,0.0,0.0,0.0,-3.1283,-2.9291,-2.9976,-3.0974,-3.1262,0.0,0.0,0.0,0.0,0.0,0.0,0.0,0.0,0.0,0.0,0.0,0.0,0.0,0.0,0.0,0.0,-1.8661,0.0,0.0,0.0,0.0,0.0,0.0,0.0,0.0,-2.1286,-2.1561,-2.2201,-2.2112,-2.2024,0.0,-2.2306,-2.2602,0.0,0.0,0.0,0.0,0.0,0.0,0.0,0.0,-2.8391,-2.8436,-2.9999,-3.0662,-3.0312,-2.9924,-2.9349,-2.8562,-2.8613,-2.8267,-2.7395,-2.6725,-2.5961,0.0,0.0,0.0,0.0,0.0,0.0,0.0,0.0,0.0,0.0,0.0,0.0,0.0,0.0,0.0,0.0,0.0,0.0,0.0,0.0,0.0,0.0,0.0,-1.9241,0.0,0.0,0.0,0.0,0.0,0.0,0.0,0.0,0.0,-1.603,-1.8293,-1.9979,-1.9367,-2.0565,-2.1193,-2.0473,0.0,0.0,0.0,0.0,0.0,0.0,0.0,-2.1647,-2.4805,-2.4462,-2.4771,-2.7834,-3.0751,-3.266,-3.2513,0.0,0.0,-3.2155,-3.2641,-3.362,-3.3974,-3.371,-3.3638,-3.4242,-3.4024,-3.3822,0.0,0.0,0.0,0.0,0.0,0.0,0.0,0.0,-1.6863,-1.8065,0.0,-1.9766,0.0,0.0,0.0,0.0,0.0,0.0,0.0,0.0,-2.186,-2.1914,-2.23,-2.2392,-2.2829,-2.3396,-2.258,-2.2523,-2.3157,-2.4601,0.0,0.0,0.0,0.0,0.0,0.0,-2.8359,-2.8738,-3.0507,-3.1096,-3.0386,-3.0357,-2.9959,-2.9226,-2.9456,-2.933,-2.8856,-2.8469,-2.7878,-2.7009,-2.6445,0.0,0.0,0.0,0.0,0.0,0.0,0.0,0.0,0.0,0.0,0.0,0.0,0.0,0.0,0.0,0.0,0.0,0.0,0.0,0.0,-2.2402,0.0,0.0,0.0,0.0,0.0,0.0,0.0,0.0,0.0,0.0,-1.8498,-2.0096,-2.1581,-2.1951,0.0,0.0,0.0,0.0,-1.9037,-1.9908,-1.8977,-1.8817,-2.0491,-2.2677,-2.4882,-2.6711,0.0,0.0,-3.1157,-3.2488,-3.3347,-3.2722,-3.5776,-3.7362,-3.4507,-3.4169,-3.4356,-3.4668,-3.4755,-3.4617,-3.4697,-3.5019,-3.5044,-1.4067,0.0,0.0,0.0,0.0,-1.7257,-1.7212,-1.6187,-1.6655,-1.7324,-1.8097,-1.798,0.0,0.0,0.0,0.0,0.0,0.0,-2.2931,-2.2944,-2.2924,-2.3234,-2.3825,-2.3584,-2.3347,-2.3093,-2.3229,-2.3389,-2.359,-2.4932,-2.5156,-2.429,0.0,0.0,0.0,0.0,-2.8162,-2.8868,-3.0115,-3.0911,-3.1169,-3.1169,-3.0898,-3.0351,-2.9925,-2.9807,-2.995,-2.9914,-2.9458,-2.8534,-2.851,0.0,0.0,0.0,0.0,0.0,0.0,0.0,0.0,0.0,0.0,0.0,0.0,0.0,0.0,0.0,0.0,0.0,0.0,0.0,-2.0246,-2.2334,-2.3085,0.0,0.0,0.0,0.0,0.0,0.0,0.0,0.0,0.0,-2.0671,-2.1686,-2.241,0.0,0.0,-2.2427,-2.1788,-2.1381,-2.1402,-2.207,0.0,0.0,0.0,-2.4229,-2.5514,-2.8839,-3.1114,-3.2853,-3.4114,-3.568,-3.6954,-3.7375,-3.8902,-3.967,-3.8721,-3.8261,-3.8058,-3.7821,-3.7734,-3.7821,-3.8021,-3.8034,-3.8003,-1.2188,-1.2396,-1.5051,-1.5804,-1.5358,-1.6362,-1.6282,-1.5543,-1.6011,-1.7058,-1.8489,-1.8428,-1.9709,-2.1988,-2.2774,0.0,0.0,0.0,-2.3608,-2.345,-2.345,-2.365,-2.4102,-2.4197,-2.4179,-2.4064,-2.395,-2.42,-2.4827,-2.4915,-2.4937,-2.4886,0.0,0.0,-2.5835,-2.7397,-2.8426,-2.8983,-3.0235,-3.1087,-3.1482,-3.1568,-3.1488,-3.1209,-3.0897,-3.0792,-3.0886,-3.1001,-3.0546,-2.9377,-2.9468,-2.8857,0.0,0.0,0.0,0.0,0.0,0.0,0.0,0.0,0.0,0.0,0.0,-2.4457,-2.3346,0.0,0.0,0.0,-2.3757,-2.2639,-2.1923,-2.3702,0.0,0.0,0.0,0.0,0.0,0.0,0.0,-2.2512,-2.4602,-2.5369,-2.3173,-2.3313,-2.3107,-2.1754,-2.2151,-2.2482,-2.2099,0.0,-2.2342,-2.3296,-2.3593,-2.4326,-2.59,-2.6364,-2.7696,-3.1062,-3.2869,-3.4267,-3.5613,-3.7206,-3.8471,-3.9236,-4.017,-4.075,-4.0311,-4.0311,-4.018,-3.9497,-3.9499,-3.9579,-3.9399,-3.9305,-3.935,-1.0663,-1.1022,-1.5276,-1.6308,-1.5263,-1.5373,-1.5322,-1.5092,-1.5194,-1.7114,-2.0138,-2.0112,-2.1656,-2.4322,-2.5004,0.0,0.0,-2.5099,-2.4721,-2.3657,-2.3667,-2.3624,-2.3634,-2.4382,-2.5094,-2.5652,-2.4575,-2.4807,-2.62,-2.4729,-2.4842,-2.6527,-2.6651,-2.6538,-2.6358,-2.7893,-2.8798,-2.9028,-3.0534,-3.1391,-3.1496,-3.1698,-3.1784,-3.1828,-3.2094,-3.2078,-3.1741,-3.1883,-3.132,-3.0054,-2.9812,-2.9317,-2.848,0.0,0.0,0.0,0.0,0.0,0.0,0.0,0.0,0.0,0.0,0.0,0.0,0.0,0.0,0.0,-2.6832,0.0,-2.643,-2.5916,0.0,0.0,0.0,-2.4589,-2.4762,-2.5619,-2.5799,-2.4784,0.0,0.0,0.0,0.0,-2.3765,-2.2645,-2.2463,-2.2426,-2.2385,-2.2173,-2.2429,-2.3826,-2.4328,-2.521,-2.6769,-2.853,-3.0497,-3.2778,-3.4225,-3.5097,-3.6011,-3.7316,-3.8377,-3.8912,-4.0052,-4.0816,-4.0289,-4.079,-4.1029,-4.0172,-4.0166,-4.0094,-3.9463,-3.9293,-3.9331,-1.3087,-1.3162,-1.4225,-1.3983,-1.2956,-1.4305,-1.4829,-1.4921,-1.6197,-1.7123,-1.7772,-1.8848,-2.1191,-2.4259,-2.5102,-2.6108,-2.7212,-2.6812,-2.6125,-2.5284,-2.5242,-2.4925,-2.4282,-2.4476,-2.4647,-2.4775,-2.4498,-2.4575,-2.4967,-2.5165,-2.5642,-2.6357,-2.7157,-2.7537,-2.754,-2.7182,-2.7681,-2.9074,-2.9498,-3.0322,-3.1451,-3.1698,-3.1856,-3.194,-3.2315,-3.2606,-3.2882,-3.3118,-3.2929,-3.2262,-3.1744,-3.1173,-3.0489,-2.8489,0.0,0.0,0.0,0.0,0.0,0.0,0.0,0.0,0.0,-2.6038,-2.4037,0.0,-2.5241,0.0,-2.783,-2.8264,-2.6508,-2.6943,0.0,0.0,-2.5507,-2.5073,-2.6289,-2.683,-2.6814,-2.6056,-2.693,-2.7026,-2.5421,-2.5208,-2.4891,-2.4075,-2.3867,-2.3688,-2.3305,-2.3545,-2.4049,-2.4774,-2.5276,-2.5865,-2.7127,-2.9377,-3.1483,-3.267,-3.3899,-3.4945,-3.5742,-3.6976,-3.8165,-3.9096,-4.0044,-4.0634,-4.0735,-4.1478,-4.1751,-4.1068,-4.044,-4.0033,-3.9993,-3.9666,-3.9356,-1.4319,-1.442,-1.4426,-1.4013,-1.349,-1.4527,-1.5153,-1.5486,-1.6897,-1.7818,-1.8427,-1.969,-2.1459,-2.3578,-2.4183,-2.5158,-2.6299,-2.6091,-2.5673,-2.5221,-2.521,-2.4935,-2.454,-2.4903,-2.5062,-2.5062,-2.5274,-2.5569,-2.5955,-2.6237,-2.6693,-2.7271,-2.7873,-2.833,-2.8616,-2.7875,-2.788,-2.8691,-2.9394,-3.0355,-3.1566,-3.1855,-3.1764,-3.1362,-3.1767,-3.1962,-3.1822,-3.2126,-3.2046,-3.1556,-3.1202,-3.0766,-3.0148,-2.8537,-2.7456,0.0,0.0,0.0,0.0,0.0,0.0,0.0,0.0,0.0,0.0,0.0,-2.6229,0.0,-2.8739,0.0,-2.7337,-2.803,-2.8584,-2.8435,-2.762,-2.7347,-2.8019,-2.8183,-2.7934,-2.7012,-2.7201,-2.7085,-2.6147,-2.5797,-2.5661,-2.5661,-2.5294,-2.4731,-2.4121,-2.4251,-2.4705,-2.542,-2.6102,-2.7192,-2.8854,-3.0618,-3.216,-3.3269,-3.4293,-3.5225,-3.6135,-3.7112,-3.8064,-3.8838,-3.962,-4.0235,-4.0546,-4.1361,-4.1887,-4.1571,-4.1033,-4.0638,-4.0488,-4.0044,-3.9686,-1.4902,-1.5107,-1.5113,-1.5113,-1.5121,-1.5454,-1.5817,-1.6354,-1.7297,-1.8705,-2.0419,-2.1365,-2.2255,-2.3003,-2.3299,-2.3864,-2.4572,-2.4733,-2.4786,-2.4658,-2.4658,-2.4615,-2.454,-2.5337,-2.5704,-2.5746,-2.6185,-2.6805,-2.7528,-2.7244,-2.7522,-2.8297,-2.8444,-2.8766,-2.927,-2.893,-2.8655,-2.8416,-2.9696,-3.0777,-3.1568,-3.1763,-3.1358,-3.0421,-3.09,-3.0849,-3.0098,-3.0344,-3.0344,-2.9897,-2.9772,-2.9601,-2.9284,-2.8447,-2.7899,0.0,-2.73,0.0,0.0,0.0,0.0,0.0,0.0,0.0,0.0,-2.8033,-2.7927,-2.7457,-2.9668,-3.0485,-2.9043,-2.9419,-2.9929,-3.0387,-3.027,-2.9952,-2.9504,-2.9303,-2.8794,-2.7684,-2.6828,-2.658,-2.704,-2.6393,-2.6163,-2.6857,-2.6105,-2.5308,-2.4851,-2.4597,-2.4819,-2.5694,-2.6889,-2.8552,-3.0743,-3.1746,-3.2555,-3.3977,-3.4806,-3.5642,-3.6569,-3.731,-3.7972,-3.846,-3.9179,-3.9749,-3.9995,-4.0919,-4.1657,-4.1799,-4.1689,-4.1469,-4.0993,-4.0538,-4.0233,-1.5059,-1.5113,-1.5113,-1.5113,-1.5196,-1.6026,-1.647,-1.6747,-1.7416,-1.8894,-2.0907,-2.1882,-2.2955,-2.4147,-2.4935,-2.5735,-2.6535,-2.6577,-2.6246,-2.5547,-2.5537,-2.5179,-2.454,-2.5073,-2.5316,-2.5359,-2.5801,-2.6104,-2.626,-2.6487,-2.692,-2.7445,-2.7852,-2.8097,-2.8289,0.0,0.0,0.0,-2.9977,-3.0325,-3.0483,-3.0183,-2.9838,-2.9554,-3.0244,0.0,-3.0351,-3.0649,-3.0751,-3.0588,-3.0173,0.0,0.0,0.0,0.0,0.0,0.0,0.0,0.0,0.0,0.0,0.0,-2.785,-2.7795,-2.7929,-2.8747,-2.9512,-3.0113,-3.1074,-3.1939,-3.2487,-3.1935,-3.1633,-3.1681,-3.0592,-2.9757,-2.9601,-2.8791,-2.807,-2.7841,-2.7342,-2.7067,-2.7108,-2.6393,-2.6246,-2.7062,-2.5883,-2.5168,-2.5726,-2.4999,-2.4914,-2.6008,-2.7723,-2.9383,-3.0632,-3.1549,-3.2484,-3.3563,-3.4452,-3.5272,-3.615,-3.6996,-3.7841,-3.8667,-3.947,-3.9969,-4.0221,-4.11,-4.1805,-4.1692,-4.2088,-4.2318,-4.1777,-4.1319,-4.0855,-1.5378,0.0,-1.5499,-1.5493,0.0,-1.6671,-1.7429,-1.7999,-1.7937,-1.8841,-2.0441,-2.1463,-2.2389,-2.3202,-2.4058,-2.4771,-2.5326,-2.5684,-2.56,-2.5179,-2.5137,-2.4946,-2.4497,-2.4988,-2.52,-2.5242,-2.5874,-2.6218,-2.6218,-2.6633,-2.6967,-2.7201,-2.7779,-2.8064,-2.8136,-2.9443,-3.0156,-3.0142,-3.0623,-3.0996,-3.1291,-3.1388,-3.1038,-3.0236,0.0,0.0,0.0,0.0,0.0,0.0,0.0,0.0,0.0,0.0,0.0,-3.0117,-2.9343,-2.8879,-2.9007,-2.8956,-2.9141,-2.9644,-2.991,-2.9793,-2.9294,-3.0316,-3.1308,-3.199,-3.2262,-3.2768,-3.3616,-3.2511,-3.1833,-3.211,-3.1068,-3.0101,-2.9575,-2.9003,-2.8435,-2.7962,-2.7679,-2.7394,-2.6921,-2.691,-2.664,-2.6393,-2.5924,-2.5326,-2.5031,-2.4829,-2.52,-2.6801,-2.8323,-2.9858,-3.1068,-3.1709,-3.2461,-3.3437,-3.4337,-3.5142,-3.5978,-3.6814,-3.7754,-3.8761,-3.9444,-3.9919,-4.041,-4.1151,-4.1805,-4.198,-4.2358,-4.2755,-4.2665,-4.2228,-4.1714,-1.5698,-1.5885,-1.5885,-1.5885,-1.5998,-1.6895,-1.7943,-1.8925,0.0,0.0,0.0,-2.1157,-2.1754,-2.2059,-2.274,-2.3242,-2.3555,-2.3991,-2.4212,-2.4265,-2.4173,-2.4133,-2.4143,-2.4637,-2.4893,-2.4925,-2.5726,-2.6238,-2.6393,-2.6798,-2.7056,-2.7231,-2.7736,-2.8167,-2.8593,-3.0392,-3.119,-3.0929,-3.1442,-3.191,-3.2332,-3.2826,-3.2529,-3.1314,-3.1662,-3.1489,-3.07,-3.0948,-3.0922,-3.0559,-3.0444,-3.029,-3.0041,-2.9907,-2.9767,-2.958,-2.9604,-2.9873,-3.0413,-3.0441,-3.0719,-3.1324,-3.1671,-3.1631,-3.1019,-3.1904,-3.2739,-3.3359,-3.3044,-3.3023,-3.3675,-3.2223,-3.1502,-3.2304,-3.1365,-3.0367,-2.9756,-2.933,-2.8806,-2.8111,-2.7921,-2.7638,-2.691,-2.7044,-2.7115,-2.606,-2.583,-2.5683,-2.451,-2.4648,-2.5568,-2.7296,-2.8639,-3.0012,-3.1402,-3.2001,-3.2461,-3.3437,-3.4182,-3.4942,-3.5772,-3.66,-3.7546,-3.849,-3.9199,-3.9876,-4.048,-4.1174,-4.1788,-4.2295,-4.2557,-4.2884,-4.3388,-4.3082,-4.258,-1.5855,-1.5885,-1.5885,-1.5885,-1.5885,-1.6045,-1.6783,-1.8021,-2.0379,-2.1324,-2.1213,-2.2016,-2.236,-2.2447,-2.3112,-2.3456,-2.3473,-2.3295,-2.3233,0.0,-2.284,-2.2711,-2.2702,-2.3357,-2.3651,-2.3694,-2.4435,-2.5168,-2.583,-2.5955,-2.6404,-2.7097,-2.7301,-2.8047,-2.9394,-2.9807,-3.0799,-3.2333,-3.2573,-3.2456,-3.1987,-3.196,-3.1951,-3.1987,-3.2302,-3.2249,-3.1708,-3.1834,-3.1519,-3.0781,-3.0336,-3.0413,-3.1165,-3.051,-3.0437,-3.122,-3.1024,-3.0903,-3.0996,-3.1457,-3.167,-3.155,-3.1447,-3.1664,-3.2341,-3.2464,-3.2963,-3.4013,-3.2834,-3.2282,-3.2952,-3.1919,-3.1418,-3.2114,-3.0857,-3.0075,-3.0468,-2.9342,-2.8447,-2.8259,-2.799,-2.7881,-2.7545,-2.6599,-2.6423,-2.6999,-2.5746,-2.452,-2.5231,-2.5326,-2.5819,-2.6924,-2.8493,-2.9909,-3.0957,-3.1673,-3.239,-3.3452,-3.3709,-3.4182,-3.4978,-3.582,-3.6767,-3.7726,-3.8956,-3.9961,-4.0528,-4.1288,-4.1878,-4.2297,-4.2577,-4.2884,-4.3477,-4.3465,-4.3238,-1.6111,-1.6158,-1.6264,-1.6311,-1.6365,-1.6995,-1.8153,-1.9702,-2.1046,-2.1437,-2.1222,-2.2152,-2.2447,-2.2311,-2.291,-2.322,-2.3186,-2.3408,-2.3553,-2.3681,-2.3534,-2.3323,-2.3156,-2.3678,-2.3803,-2.3671,-2.4231,-2.4701,-2.5115,-2.5568,-2.5986,-2.6487,-2.7033,-2.7914,-2.9,-2.9394,-3.0367,-3.2015,-3.3097,-3.343,-3.2989,-3.3512,-3.3814,-3.3886,-3.4043,-3.4192,-3.4291,-3.4306,-3.3981,-3.3267,-3.3022,-3.279,-3.2539,-3.2112,-3.1824,-3.1667,-3.1845,-3.1829,-3.1507,-3.1656,-3.169,-3.1472,-3.1292,-3.1288,-3.1615,-3.1626,-3.1999,-3.2841,-3.1746,-3.1355,-3.2209,-3.0871,-3.0241,-3.102,-3.0228,-2.9858,-3.0114,-2.9588,-2.9015,-2.8976,-2.8538,-2.803,-2.7574,-2.7214,-2.6753,-2.6876,-2.52,-2.4904,-2.67,-2.6246,-2.5997,-2.6917,-2.8183,-2.9471,-3.067,-3.1156,-3.1992,-3.3192,-3.3536,-3.3922,-3.4643,-3.5484,-3.6461,-3.7507,-3.8685,-3.9655,-4.0407,-4.0902,-4.1525,-4.2442,-4.2557,-4.2865,-4.351,-4.3695,-4.3418,-1.6377,-1.643,-1.663,-1.667,-1.6783,-1.795,-1.925,-2.0601,-2.0909,-2.1054,-2.1251,-2.2232,-2.254,-2.238,-2.2886,-2.3057,-2.3065,-2.3457,-2.3749,-2.3926,-2.3877,-2.3677,-2.3436,-2.3816,-2.3771,-2.3467,-2.3811,-2.4031,-2.4241,-2.4851,-2.5442,-2.5944,-2.6969,-2.7886,-2.8685,-2.9147,-3.0063,-3.1378,-3.3101,-3.3979,-3.3991,-3.4888,-3.5369,-3.5395,-3.539,-3.5616,-3.5995,-3.6018,-3.5745,-3.5134,-3.4948,-3.4412,-3.3486,-3.3086,-3.2506,-3.1716,-3.2055,-3.232,-3.2097,-3.1669,-3.1405,-3.1423,-3.1181,-3.0882,-3.0543,-3.0434,-3.0801,-3.1433,-3.072,-3.0507,-3.1281,-2.9999,-2.9172,-3.0075,-2.973,-2.9523,-2.9653,-2.9537,-2.9433,-2.9367,-2.8843,-2.8219,-2.7765,-2.7886,-2.7499,-2.608,-2.5368,-2.608,-2.7592,-2.6917,-2.6577,-2.7336,-2.8195,-2.9328,-3.0632,-3.1119,-3.1833,-3.3086,-3.3431,-3.375,-3.4356,-3.5242,-3.6214,-3.7184,-3.8246,-3.9226,-4.0136,-4.0528,-4.1087,-4.2085,-4.2302,-4.2596,-4.3389,-4.3563,-4.3287,-1.6677,-1.6677,-1.6736,-1.667,-1.6829,-1.7898,-1.8527,-1.884,-1.9768,-2.0739,-2.1615,-2.2594,-2.3029,-2.3244,-2.3335,-2.334,-2.3327,-2.3073,-2.2969,-2.2964,-2.2575,-2.2395,-2.2398,-2.268,-2.2564,-2.2217,-2.2391,-2.2782,-2.3188,-2.3357,-2.4349,-2.6049,-2.7051,-2.8063,-2.9135,-2.933,-2.9909,-3.097,-3.2321,-3.3366,-3.4052,-3.4655,-3.5085,-3.5396,-3.5398,-3.5333,-3.5292,-3.5201,-3.4954,-3.4417,-3.3909,-3.3546,-3.3301,-3.2248,-3.1453,-3.1349,-3.1401,-3.1872,-3.2839,-3.1689,-3.1137,-3.1626,-3.1182,-3.0478,-2.9642,-2.9358,-2.9897,-3.0844,-3.0075,-2.9909,-3.1206,-2.9858,-2.9367,-3.0469,-2.96,-2.8882,-2.9471,-2.9028,-2.863,-2.859,-2.8618,-2.8459,-2.8179,-2.7765,-2.701,-2.611,-2.6246,-2.667,-2.7255,-2.7092,-2.7174,-2.8115,-2.9067,-2.9896,-3.0782,-3.1563,-3.2245,-3.3086,-3.3312,-3.3486,-3.3962,-3.4898,-3.5964,-3.6553,-3.7835,-3.9044,-3.9542,-4.0044,-4.0797,-4.1495,-4.1892,-4.2172,-4.2713,-4.305,-4.2922,-1.6842,-1.7008,-1.716,-1.7213,-1.7312,-1.7733,-1.8213,-1.8677,-1.9138,-1.9968,-2.0944,-2.1404,-2.2232,-2.3406,-2.3406,-2.3497,-2.3637,-2.3485,-2.3462,-2.3601,-2.3438,-2.2881,-2.2078,-2.2109,-2.166,-2.0794,-2.1346,-2.1706,-2.1817,-2.264,-2.4082,-2.583,-2.6629,-2.7447,-2.8474,-2.8752,-2.9289,-3.0177,-3.0719,-3.1646,-3.2897,-3.4225,-3.5073,-3.5367,-3.54,-3.5458,-3.5519,-3.5644,-3.5382,-3.4701,-3.4482,-3.4191,-3.3714,-3.2817,-3.2069,-3.1623,-3.1128,-3.1542,-3.3055,-3.1514,-3.0684,-3.1082,-3.0304,-2.96,-2.9106,-2.8961,-2.9172,-2.951,-2.9106,-2.9106,-2.9742,-2.9106,-2.8922,-2.9457,-2.9302,-2.9341,-2.9626,-2.9419,-2.9223,-2.9184,-2.8803,-2.8259,-2.7846,-2.7429,-2.7051,-2.6577,-2.6577,-2.6535,-2.701,-2.6753,-2.6999,-2.8287,-2.9561,-3.0443,-3.0932,-3.1563,-3.239,-3.3051,-3.3276,-3.3361,-3.3716,-3.4832,-3.5838,-3.6057,-3.7531,-3.8667,-3.9142,-3.9749,-4.0439,-4.107,-4.1943,-4.2478,-4.2492,-4.2749,-4.272,-1.706,-1.7331,-1.7536,-1.7589,-1.7589,-1.7589,-1.795,-1.8468,-1.8468,-1.9086,-2.0115,-2.0174,-2.1089,-2.2627,-2.2996,-2.3238,-2.3438,-2.3447,-2.3546,-2.3737,-2.3746,-2.3129,-2.2173,-2.2394,-2.1599,-2.0264,-2.0994,-2.1241,-2.1109,-2.2625,-2.4247,-2.5604,-2.6142,-2.6764,-2.7586,-2.7817,-2.8183,-2.8951,-2.9213,-3.005,-3.1439,-3.2996,-3.4129,-3.471,-3.4614,-3.4603,-3.4842,-3.4794,-3.4511,-3.4013,-3.4066,-3.3856,-3.3269,-3.2846,-3.2318,-3.1686,-3.0707,-3.0844,-3.2528,-3.0919,-3.005,-3.0304,-2.9613,-2.904,-2.8922,-2.8843,-2.8605,-2.8315,-2.8419,-2.8618,-2.8988,-2.8736,-2.8578,-2.8816,-2.9263,-2.9367,-2.9367,-2.9367,-2.9328,-2.9289,-2.8816,-2.8311,-2.7684,-2.7389,-2.7092,-2.6712,-2.6205,-2.5955,-2.6629,-2.6494,-2.6782,-2.8287,-2.9858,-3.0782,-3.097,-3.1869,-3.2618,-3.3016,-3.3276,-3.3347,-3.3626,-3.4765,-3.5567,-3.5725,-3.7191,-3.8087,-3.8479,-3.9139,-4.0161,-4.0932,-4.1711,-4.238,-4.2409,-4.2611,-4.2688,-1.7582,-1.7582,-1.7589,-1.7589,-1.7589,-1.7589,-1.7635,-1.774,-1.7687,-1.8258,-1.9183,-1.9228,-1.9901,-2.1089,-2.1962,-2.2526,-2.2526,-2.2526,-2.2526,-2.2577,-2.2577,-2.2518,-2.2551,-2.3511,-2.2635,-2.0187,-2.1016,-2.1527,-2.1418,-2.3196,-2.4726,-2.5622,-2.5774,-2.631,-2.7117,-2.6614,-2.6464,-2.7505,-2.8239,-2.8903,-2.9794,-3.0657,-3.1892,-3.3094,-3.2676,-3.2456,-3.2528,-3.1852,-3.1559,-3.1683,-3.1815,-3.1706,-3.1659,-3.1613,-3.1553,-3.1331,-2.9896,-2.9614,-3.0869,-2.9845,-2.9211,-2.9768,-2.9419,-2.9052,-2.8882,-2.8724,-2.8315,-2.7597,-2.7955,-2.8593,-2.9121,-2.8752,-2.8724,-2.925,-2.8882,-2.8618,-2.859,-2.8486,-2.855,-2.8498,-2.8339,-2.8179,-2.8271,-2.7725,-2.6887,-2.6246,-2.5861,-2.5944,-2.6163,-2.667,-2.7429,-2.8435,-2.9742,-3.0895,-3.1044,-3.2101,-3.3016,-3.3276,-3.3312,-3.3361,-3.3785,-3.4269,-3.4776,-3.5467,-3.6738,-3.7549,-3.7793,-3.8608,-3.9817,-4.0631,-4.1116,-4.1618,-4.2305,-4.2463,-4.2564,-1.743,-1.7589,-1.7589,-1.7589,-1.7589,-1.7589,-1.7589,-1.7589,-1.7589,-1.7786,-1.8153,-1.8199,-1.876,-1.9842,-2.021,-2.0775,-2.1446,-2.1505,-2.1505,-2.1446,-2.1446,-2.1081,-2.0467,-2.0818,-2.02,-1.8971,-1.966,-2.0696,-2.165,-2.2217,-2.3327,-2.4852,-2.5227,-2.6145,-2.7467,-2.7386,-2.7311,-2.7704,-2.8213,-2.8295,-2.8168,-2.937,-3.0417,-3.0891,-3.1204,-3.1378,-3.1439,-3.1254,-3.118,-3.1106,-3.1254,-3.1241,-3.1106,-3.0745,-3.0595,-3.0582,-2.951,-2.9367,-3.0266,-2.9367,-2.8764,-2.9133,-2.8922,-2.8486,-2.7995,-2.7782,-2.7406,-2.673,-2.6618,-2.6935,-2.729,-2.7943,-2.8447,-2.8239,-2.8063,-2.7926,-2.7874,-2.7458,-2.701,-2.701,-2.6928,-2.6999,-2.7592,-2.7389,-2.6835,-2.6069,-2.6287,-2.6629,-2.6712,-2.701,-2.7551,-2.8486,-2.9819,-3.0895,-3.0895,-3.2259,-3.3276,-3.3276,-3.3312,-3.3396,-3.3695,-3.4283,-3.4843,-3.5548,-3.6631,-3.7519,-3.7969,-3.8794,-3.9919,-4.0832,-4.126,-4.1596,-4.2305,-4.2506,-4.2647,-1.743,-1.7582,-1.7589,-1.7589,-1.7589,-1.7589,-1.7589,-1.7589,-1.7589,-1.7589,-1.7589,-1.7589,-1.8042,-1.861,-1.8662,-1.9072,-1.9857,-2.0158,-2.0313,-2.0364,-2.0364,-1.9952,-1.9383,-1.9591,-1.8968,-1.8042,-1.9079,-2.0488,-2.1628,-2.2071,-2.3274,-2.5037,-2.4914,-2.566,-2.7117,-2.6976,-2.6856,-2.7231,-2.7523,-2.7428,-2.7398,-2.8454,-2.9138,-2.933,-2.982,-3.0266,-3.0481,-3.0405,-3.0253,-3.0177,-3.0253,-3.0367,-3.0443,-2.9858,-2.9678,-2.9935,-2.9211,-2.9,-2.9535,-2.8973,-2.8538,-2.8685,-2.8566,-2.8219,-2.7672,-2.7389,-2.6753,-2.608,-2.5788,-2.5704,-2.5411,-2.6535,-2.7418,-2.7069,-2.704,-2.7255,-2.7609,-2.7151,-2.6969,-2.7133,-2.708,-2.7121,-2.7389,-2.7348,-2.6928,-2.6287,-2.6846,-2.7174,-2.7174,-2.747,-2.7765,-2.8498,-2.9588,-3.0481,-3.0932,-3.1992,-3.3051,-3.3206,-3.3312,-3.3431,-3.3626,-3.4249,-3.4942,-3.5693,-3.6569,-3.7504,-3.8355,-3.9125,-4.0053,-4.1065,-4.1468,-4.1727,-4.2207,-4.2588,-4.2668,-1.7582,-1.7589,-1.7589,-1.7589,-1.7589,-1.7589,-1.7589,-1.7589,-1.7589,-1.7589,-1.7589,-1.7589,-1.7687,-1.7687,-1.7793,-1.774,-1.8048,-1.8819,-1.9228,-1.9176,-1.9176,-1.9176,-1.9072,-1.9901,-1.9383,-1.774,-1.9694,-2.0877,-2.1381,-2.2807,-2.4319,-2.5429,-2.4831,-2.5071,-2.5906,-2.5452,-2.5174,-2.5868,-2.6199,-2.6561,-2.7586,-2.7866,-2.818,-2.8454,-2.8698,-2.915,-2.9728,-2.9052,-2.8776,-2.8697,-2.8657,-2.8922,-2.9433,-2.8988,-2.8882,-2.9316,-2.8882,-2.859,-2.859,-2.855,-2.851,-2.851,-2.8471,-2.8259,-2.7886,-2.7336,-2.6505,-2.5663,-2.5442,-2.502,-2.3897,-2.4819,-2.5872,-2.583,-2.6049,-2.6505,-2.7139,-2.7545,-2.7971,-2.8223,-2.8115,-2.8419,-2.8259,-2.7886,-2.7377,-2.7214,-2.7296,-2.7458,-2.7499,-2.7966,-2.8391,-2.8618,-2.9328,-3.0152,-3.0857,-3.1599,-3.2439,-3.3086,-3.3276,-3.3431,-3.3605,-3.4059,-3.471,-3.5469,-3.6813,-3.7767,-3.8728,-3.9454,-4.0045,-4.0879,-4.1271,-4.1666,-4.1984,-4.231,-4.2589,-1.7589,-1.7589,-1.7589,-1.7589,-1.7589,-1.7589,-1.7589,-1.7589,-1.7589,-1.7589,-1.7589,-1.7589,-1.7589,-1.7589,-1.7589,-1.7589,-1.7641,-1.7943,-1.8101,-1.8101,-1.8153,-1.8153,-1.8199,-1.8461,-1.8304,-1.7793,-1.8251,-1.9487,-2.0877,-2.17,-2.2974,-2.4733,-2.4927,-2.5478,-2.6584,-2.6151,-2.6033,-2.6314,-2.6576,-2.6377,-2.5805,-2.738,-2.8131,-2.789,-2.8892,-2.9629,-2.9591,-2.9038,-2.8736,-2.8697,-2.8685,-2.8514,-2.8143,-2.8327,-2.8327,-2.8063,-2.8367,-2.851,-2.851,-2.851,-2.851,-2.8391,-2.7978,-2.7296,-2.6659,-2.5913,-2.5041,-2.4188,-2.394,-2.3691,-2.358,-2.3831,-2.4488,-2.5052,-2.52,-2.5411,-2.5975,-2.5933,-2.611,-2.6871,-2.7435,-2.781,-2.8103,-2.8075,-2.8195,-2.777,-2.8063,-2.8395,-2.8355,-2.8435,-2.8618,-2.8618,-2.9328,-2.9999,-3.0882,-3.1636,-3.2354,-3.3122,-3.3417,-3.3681,-3.3833,-3.3902,-3.4543,-3.5629,-3.6934,-3.8007,-3.8984,-3.9671,-4.0203,-4.0659,-4.1065,-4.1401,-4.1683,-4.1963,-4.2251,-1.7589,-1.7589,-1.7589,-1.7589,-1.7589,-1.7589,-1.7589,-1.7589,-1.7589,-1.7589,-1.7589,-1.7589,-1.7589,-1.7589,-1.7589,-1.7589,-1.7589,-1.7589,-1.7589,-1.7589,-1.7589,-1.7589,-1.7589,-1.7589,-1.7589,-1.7687,-1.7996,-1.8916,-2.0364,-2.1234,-2.2501,-2.4165,-2.4735,-2.545,-2.6532,-2.6327,-2.6185,-2.6276,-2.6414,-2.613,-2.5722,-2.6841,-2.7613,-2.7459,-2.8396,-2.8931,-2.8898,-2.8569,-2.8443,-2.8347,-2.8063,-2.762,-2.7226,-2.7418,-2.751,-2.7765,-2.7846,-2.8139,-2.8431,-2.851,-2.8299,-2.8018,-2.751,-2.6805,-2.5902,-2.4988,-2.4209,-2.3777,-2.3353,-2.3144,-2.3319,-2.345,-2.3787,-2.4221,-2.4402,-2.4776,-2.5347,-2.5735,-2.6265,-2.7168,-2.7758,-2.8011,-2.8303,-2.8593,-2.8895,-2.8474,-2.8712,-2.9013,-2.8882,-2.8803,-2.8685,-2.8618,-2.8895,-2.9781,-3.0957,-3.1696,-3.234,-3.3023,-3.364,-3.3977,-3.4235,-3.4113,-3.4423,-3.6026,-3.7427,-3.8266,-3.9179,-3.9671,-4.0153,-4.0546,-4.0896,-4.1225,-4.1512,-4.1661,-4.1899,-1.7589,-1.7589,-1.7589,-1.7589,-1.7589,-1.7589,-1.7589,-1.7589,-1.7641,-1.7641,-1.7641,-1.7694,-1.7694,-1.7641,-1.7694,-1.7635,-1.7589,-1.7589,-1.7589,-1.7635,-1.774,-1.7786,-1.7635,-1.7589,-1.7589,-1.774,-1.8454,-1.9169,-1.9738,-2.1081,-2.2802,-2.3692,-2.4372,-2.5137,-2.5713,-2.5713,-2.5771,-2.58,-2.5751,-2.5919,-2.616,-2.6512,-2.6749,-2.7135,-2.7435,-2.7745,-2.8028,-2.7936,-2.783,-2.7731,-2.7087,-2.6836,-2.6944,-2.631,-2.6794,-2.7966,-2.7551,-2.7644,-2.8139,-2.8219,-2.7926,-2.7226,-2.6887,-2.6723,-2.5663,-2.4787,-2.4209,-2.4069,-2.3517,-2.3101,-2.3188,-2.3363,-2.3537,-2.3547,-2.3831,-2.4584,-2.611,-2.6812,-2.7342,-2.8171,-2.8712,-2.8831,-2.8791,-2.904,-2.9143,-2.9143,-2.9131,-2.9131,-2.8961,-2.8882,-2.8764,-2.8764,-2.8895,-2.9896,-3.118,-3.1856,-3.2533,-3.3409,-3.3902,-3.4128,-3.4591,-3.4539,-3.4776,-3.6384,-3.7632,-3.8479,-3.9232,-3.9749,-4.0078,-4.0351,-4.0713,-4.1088,-4.1225,-4.1305,-4.1485,-1.7589,-1.7589,-1.7589,-1.7589,-1.7589,-1.7589,-1.7589,-1.7635,-1.7799,-1.7859,-1.7911,-1.8115,-1.8055,-1.7911,-1.7911,-1.7799,-1.7641,-1.7635,-1.7589,-1.7733,-1.8454,-1.8244,-1.774,-1.7641,-1.7687,-1.7786,-1.8199,-1.8461,-1.9272,-2.0099,-2.1414,-2.3343,-2.375,-2.4461,-2.5479,-2.5684,-2.5684,-2.5684,-2.5684,-2.5732,-2.599,-2.6578,-2.7045,-2.7232,-2.7955,-2.8374,-2.8322,-2.7701,-2.7633,-2.8,-2.7372,-2.7023,-2.7063,-2.6543,-2.6376,-2.6809,-2.7219,-2.7074,-2.6816,-2.7196,-2.7103,-2.6257,-2.5704,-2.5115,-2.4872,-2.3983,-2.356,-2.344,-2.3188,-2.3188,-2.3373,-2.345,-2.3537,-2.3721,-2.3797,-2.4251,-2.5242,-2.6152,-2.7046,-2.7747,-2.8648,-2.9106,-2.9236,-2.9404,-2.9559,-2.9585,-2.9534,-2.9417,-2.9157,-2.9079,-2.9,-2.9106,-2.9419,-3.0418,-3.1355,-3.1992,-3.2797,-3.3805,-3.421,-3.4176,-3.4673,-3.5055,-3.5674,-3.6753,-3.7618,-3.8467,-3.9295,-3.9969,-4.0128,-4.0195,-4.049,-4.0778,-4.0669,-4.0686,-4.0977,-1.7589,-1.7589,-1.7589,-1.7589,-1.7589,-1.7589,-1.7589,-1.7635,-1.7747,-1.7799,-1.7905,-1.8115,-1.8167,-1.8016,-1.8115,-1.801,-1.7799,-1.7799,-1.7694,-1.7786,-1.8819,-1.9176,-1.9027,-1.8982,-1.8975,-1.8975,-1.8975,-1.9391,-1.9952,-2.0313,-2.1625,-2.3085,-2.375,-2.4618,-2.5577,-2.5684,-2.5684,-2.5684,-2.5684,-2.5684,-2.5781,-2.6235,-2.659,-2.6781,-2.7531,-2.7796,-2.7771,-2.7444,-2.737,-2.7326,-2.6801,-2.6442,-2.6519,-2.5956,-2.5862,-2.6344,-2.676,-2.6546,-2.6337,-2.6641,-2.6331,-2.5464,-2.4712,-2.4337,-2.395,-2.3353,-2.3101,-2.3144,-2.3101,-2.3188,-2.3319,-2.345,-2.358,-2.3754,-2.3884,-2.4348,-2.5263,-2.6359,-2.7139,-2.7931,-2.8661,-2.9275,-2.9275,-2.9507,-2.9675,-2.9702,-2.9611,-2.9482,-2.9275,-2.9287,-2.9376,-2.9568,-2.9958,-3.0863,-3.1797,-3.2504,-3.3303,-3.4309,-3.4777,-3.4666,-3.4949,-3.5549,-3.6228,-3.6965,-3.7693,-3.8451,-3.9295,-3.9859,-3.9901,-4.0028,-4.0279,-4.0402,-4.037,-4.0517,-4.0765,-1.7589,-1.7589,-1.7589,-1.7589,-1.7589,-1.7589,-1.7589,-1.7589,-1.7694,-1.7687,-1.7747,-1.7957,-1.8069,-1.8016,-1.822,-1.822,-1.7911,-1.7911,-1.8016,-1.8363,-1.928,-2.0202,-2.103,-2.0672,-2.057,-2.0577,-2.0834,-2.0783,-2.0885,-2.1709,-2.256,-2.3302,-2.4214,-2.503,-2.5586,-2.5684,-2.5684,-2.5684,-2.5684,-2.5684,-2.5684,-2.582,-2.6014,-2.6284,-2.6476,-2.6812,-2.7067,-2.7148,-2.7128,-2.6573,-2.5797,-2.5857,-2.5962,-2.5224,-2.5441,-2.6533,-2.648,-2.6241,-2.6281,-2.6314,-2.6001,-2.5003,-2.465,-2.4212,-2.3687,-2.3462,-2.3374,-2.3393,-2.3247,-2.3379,-2.3389,-2.3506,-2.3741,-2.4045,-2.4247,-2.5039,-2.6036,-2.6985,-2.7713,-2.8423,-2.8873,-2.9177,-2.933,-2.9448,-2.9733,-3.0382,-3.0227,-3.0121,-3.0002,-3.0015,-3.0057,-3.014,-3.0675,-3.1297,-3.2192,-3.3043,-3.3903,-3.4819,-3.5278,-3.5448,-3.5533,-3.6012,-3.6616,-3.7235,-3.7722,-3.8451,-3.9372,-3.9677,-3.9848,-3.9935,-4.0246,-4.0296,-4.0362,-4.0669,-4.0931,-1.7589,-1.7589,-1.7589,-1.7589,-1.7589,-1.7589,-1.7589,-1.7641,-1.7799,-1.7859,-1.7957,-1.8167,-1.8167,-1.8016,-1.8265,-1.816,-1.7799,-1.7964,-1.8384,-1.9413,-2.0416,-2.1591,-2.2266,-2.1794,-2.1183,-2.1089,-2.0936,-2.0936,-2.1191,-2.17,-2.219,-2.3343,-2.3998,-2.4559,-2.5538,-2.5684,-2.5684,-2.5684,-2.5684,-2.5684,-2.5684,-2.5684,-2.583,-2.6091,-2.6496,-2.688,-2.7119,-2.7262,-2.7111,-2.6837,-2.6537,-2.6551,-2.6855,-2.6148,-2.6013,-2.6589,-2.6747,-2.6325,-2.5806,-2.6078,-2.6091,-2.5186,-2.4846,-2.4641,-2.4514,-2.4183,-2.4111,-2.4141,-2.4095,-2.4053,-2.4033,-2.4157,-2.4244,-2.4531,-2.5135,-2.5779,-2.6366,-2.6892,-2.7614,-2.8328,-2.9221,-3.0053,-3.0311,-3.0355,-3.0624,-3.0941,-3.0957,-3.0888,-3.0757,-3.0683,-3.0676,-3.0698,-3.1785,-3.2524,-3.3162,-3.4044,-3.4917,-3.5485,-3.5869,-3.6221,-3.6339,-3.6516,-3.711,-3.7398,-3.7589,-3.8532,-3.9917,-4.0085,-4.034,-4.0299,-4.0289,-4.0463,-4.0676,-4.0935,-4.1146,-1.7589,-1.7589,-1.7589,-1.7589,-1.7589,-1.7589,-1.7589,-1.7635,-1.7747,-1.7806,-1.7852,-1.8115,-1.8115,-1.8016,-1.8272,-1.8167,-1.7852,-1.7799,-1.8272,-1.9294,-2.0613,-2.1844,-2.2627,-2.292,-2.2852,-2.2601,-2.2518,-2.2467,-2.2518,-2.266,-2.3361,-2.4007,-2.4313,-2.4922,-2.5586,-2.5684,-2.5684,-2.5684,-2.5684,-2.5684,-2.5684,-2.5684,-2.5927,-2.6294,-2.6784,-2.7167,-2.7262,-2.732,-2.7214,-2.7115,-2.6987,-2.6973,-2.7139,-2.6605,-2.6434,-2.6609,-2.6702,-2.6346,-2.5885,-2.5829,-2.5874,-2.53,-2.5041,-2.5041,-2.4995,-2.4848,-2.47,-2.4654,-2.4588,-2.4552,-2.4424,-2.4404,-2.4516,-2.4654,-2.5158,-2.5624,-2.6017,-2.6899,-2.7859,-2.843,-2.8813,-2.9666,-3.0228,-3.0572,-3.0914,-3.0971,-3.1082,-3.1012,-3.1113,-3.1063,-3.1182,-3.1563,-3.2894,-3.3794,-3.4361,-3.5125,-3.5998,-3.6406,-3.6606,-3.6896,-3.7124,-3.7309,-3.7588,-3.8026,-3.8635,-3.9731,-4.0859,-4.0894,-4.0909,-4.0917,-4.0966,-4.0967,-4.1043,-4.1238,-4.1443,-1.7589,-1.7589,-1.7589,-1.7589,-1.7589,-1.7589,-1.7589,-1.7589,-1.7589,-1.7641,-1.7641,-1.7852,-1.7905,-1.7957,-1.822,-1.822,-1.8325,-1.8415,-1.8878,-1.9495,-2.1159,-2.1988,-2.2568,-2.3628,-2.4322,-2.4489,-2.4044,-2.4003,-2.4053,-2.444,-2.4372,-2.4833,-2.5186,-2.5391,-2.5635,-2.5684,-2.5684,-2.5684,-2.5684,-2.5684,-2.5732,-2.5781,-2.6062,-2.6554,-2.6976,-2.7262,-2.7309,-2.732,-2.732,-2.732,-2.7347,-2.7156,-2.688,-2.664,-2.6651,-2.6658,-2.671,-2.6557,-2.6276,-2.6137,-2.6006,-2.5528,-2.5502,-2.5512,-2.5496,-2.55,-2.5371,-2.5249,-2.5176,-2.5073,-2.4722,-2.482,-2.4754,-2.4771,-2.4891,-2.5129,-2.5635,-2.701,-2.7999,-2.8477,-2.8674,-2.9285,-2.9801,-3.0181,-3.061,-3.0991,-3.1129,-3.1253,-3.1394,-3.1678,-3.1981,-3.2684,-3.4032,-3.5457,-3.6113,-3.6308,-3.7142,-3.7482,-3.7554,-3.7784,-3.8129,-3.8744,-3.9151,-3.9466,-4.0156,-4.104,-4.1626,-4.1794,-4.1792,-4.1682,-4.1731,-4.1859,-4.1769,-4.1602,-4.1767,-1.7589,-1.7589,-1.7589,-1.7589,-1.7589,-1.7589,-1.7589,-1.7589,-1.7589,-1.7589,-1.7641,-1.7635,-1.7687,-1.774,-1.7964,-1.8482,-1.9146,-1.9546,-2.0158,-2.0716,-2.1979,-2.2652,-2.307,-2.3985,-2.4529,-2.444,-2.4301,-2.4211,-2.4301,-2.4587,-2.4784,-2.4981,-2.5391,-2.5693,-2.5684,-2.5684,-2.5684,-2.5684,-2.5684,-2.5684,-2.5732,-2.5965,-2.6265,-2.6805,-2.7177,-2.7309,-2.7309,-2.732,-2.732,-2.7357,-2.7678,-2.7809,-2.7668,-2.7394,-2.7262,-2.7214,-2.7262,-2.7179,-2.7028,-2.7049,-2.7002,-2.6913,-2.6716,-2.6547,-2.652,-2.6377,-2.6209,-2.6154,-2.6079,-2.6034,-2.5825,-2.5696,-2.5641,-2.5661,-2.5745,-2.6079,-2.6337,-2.6889,-2.7579,-2.796,-2.8377,-2.8935,-2.9493,-2.9906,-3.0179,-3.081,-3.132,-3.1699,-3.212,-3.2617,-3.3164,-3.4114,-3.5264,-3.6722,-3.8015,-3.7957,-3.8267,-3.8578,-3.8755,-3.8953,-3.9454,-4.0347,-4.0842,-4.0813,-4.1013,-4.1612,-4.211,-4.2577,-4.2661,-4.2595,-4.2696,-4.2807,-4.2519,-4.2293,-4.2128,-1.7589,-1.7589,-1.7589,-1.7589,-1.7589,-1.7589,-1.7589,-1.7589,-1.7589,-1.7589,-1.7589,-1.7589,-1.7589,-1.7641,-1.774,-1.8415,-1.9391,-1.9805,-2.0518,-2.1277,-2.2341,-2.2953,-2.327,-2.4035,-2.4341,-2.435,-2.4251,-2.4211,-2.426,-2.4637,-2.4892,-2.5039,-2.544,-2.5684,-2.5684,-2.5684,-2.5684,-2.5684,-2.5684,-2.5684,-2.5732,-2.6052,-2.6554,-2.689,-2.7357,-2.7489,-2.7404,-2.7857,-2.7904,-2.7809,-2.8128,-2.8315,-2.8326,-2.8233,-2.8034,-2.8045,-2.7998,-2.7998,-2.7987,-2.7998,-2.793,-2.7657,-2.7536,-2.7357,-2.7167,-2.6945,-2.6832,-2.6699,-2.6544,-2.6448,-2.6312,-2.6294,-2.6149,-2.6004,-2.6149,-2.6352,-2.6544,-2.6784,-2.7096,-2.7435,-2.7611,-2.8315,-2.9466,-2.9738,-2.9852,-3.0486,-3.1347,-3.1989,-3.2581,-3.3258,-3.3839,-3.4566,-3.5521,-3.6816,-3.8196,-3.8671,-3.8922,-3.9337,-3.9604,-3.9783,-4.0161,-4.0808,-4.1353,-4.1626,-4.1972,-4.2351,-4.3004,-4.3612,-4.3545,-4.3511,-4.3597,-4.3608,-4.3241,-4.298,-4.285,-1.7589,-1.7589,-1.7589,-1.7589,-1.7589,-1.7589,-1.7589,-1.7589,-1.7589,-1.774,-1.7891,-1.7733,-1.7898,-1.8206,-1.8461,-1.893,-1.9797,-2.0004,-2.0877,-2.1996,-2.2852,-2.3211,-2.3479,-2.3886,-2.435,-2.4251,-2.4202,-2.4211,-2.4301,-2.4686,-2.4892,-2.5039,-2.543,-2.5684,-2.5684,-2.5684,-2.5684,-2.5684,-2.5684,-2.5742,-2.5975,-2.6314,-2.6794,-2.7129,-2.7726,-2.7857,-2.7809,-2.8222,-2.8398,-2.8362,-2.8549,-2.8885,-2.8932,-2.8967,-2.8991,-2.8945,-2.8863,-2.8724,-2.8678,-2.8631,-2.8409,-2.8186,-2.8175,-2.7904,-2.7536,-2.7299,-2.7167,-2.6986,-2.6842,-2.664,-2.6602,-2.6592,-2.6448,-2.6294,-2.6245,-2.6352,-2.6554,-2.6794,-2.7023,-2.7152,-2.7034,-2.7631,-2.8713,-2.9119,-2.9119,-3.0034,-3.0946,-3.1889,-3.2525,-3.3386,-3.4008,-3.462,-3.5534,-3.6674,-3.7857,-3.8833,-3.9213,-3.9711,-3.9874,-4.0016,-4.0405,-4.0922,-4.145,-4.201,-4.2843,-4.3269,-4.3987,-4.4457,-4.4385,-4.437,-4.4501,-4.4393,-4.4076,-4.3845,-4.3703,-1.7589,-1.7589,-1.7589,-1.7589,-1.7589,-1.7589,-1.7589,-1.7589,-1.7589,-1.8146,-1.8812,-1.8146,-1.8715,-1.9908,-2.0321,-2.1038,-2.17,-2.1861,-2.2367,-2.3379,-2.3786,-2.3886,-2.3994,-2.4102,-2.4251,-2.4211,-2.4211,-2.4211,-2.435,-2.4686,-2.4883,-2.5039,-2.543,-2.5684,-2.5684,-2.5684,-2.5684,-2.5684,-2.5684,-2.5927,-2.6352,-2.6709,-2.7225,-2.7678,-2.7998,-2.8175,-2.8409,-2.8678,-2.8771,-2.8735,-2.9106,-2.9393,-2.9485,-2.9852,-2.9977,-2.9749,-2.929,-2.8678,-2.8817,-2.8863,-2.8828,-2.8699,-2.8642,-2.8362,-2.7998,-2.7584,-2.7357,-2.7262,-2.7167,-2.7119,-2.6938,-2.689,-2.6699,-2.6651,-2.6592,-2.6699,-2.6842,-2.7023,-2.7214,-2.7394,-2.7441,-2.7394,-2.794,-2.8128,-2.8445,-2.9498,-3.0543,-3.1569,-3.25,-3.3416,-3.4105,-3.4662,-3.5642,-3.6791,-3.7691,-3.8671,-3.943,-3.9996,-4.0086,-4.0246,-4.0699,-4.1158,-4.1574,-4.222,-4.3152,-4.3968,-4.4457,-4.4818,-4.5054,-4.512,-4.507,-4.5005,-4.4931,-4.4712,-4.4466,-1.7483,-1.7589,-1.7589,-1.7589,-1.7589,-1.7589,-1.7589,-1.7589,-1.7641,-1.8199,-1.902,-1.876,-1.9435,-2.0731,-2.0885,-2.1454,-2.2325,-2.2476,-2.3138,-2.4003,-2.4211,-2.4211,-2.4152,-2.4211,-2.4211,-2.4211,-2.4202,-2.4301,-2.444,-2.4686,-2.4932,-2.5186,-2.5479,-2.5684,-2.5684,-2.5684,-2.5684,-2.5732,-2.5868,-2.611,-2.6544,-2.7023,-2.7536,-2.7987,-2.8549,-2.8781,-2.8817,-2.9325,-2.9336,-2.9336,-2.9623,-2.9897,-2.9897,-3.008,-3.0216,-3.017,-2.984,-2.9566,-2.9566,-2.9566,-2.9393,-2.9209,-2.9106,-2.8967,-2.8466,-2.7998,-2.7857,-2.8081,-2.7584,-2.7404,-2.7441,-2.7262,-2.6986,-2.689,-2.7034,-2.6986,-2.7119,-2.7299,-2.7489,-2.7715,-2.7857,-2.7857,-2.8034,-2.862,-2.898,-2.9532,-3.0833,-3.2127,-3.2877,-3.356,-3.4163,-3.4634,-3.5722,-3.6933,-3.7753,-3.8568,-3.9559,-4.0101,-4.0207,-4.042,-4.099,-4.1426,-4.1917,-4.2583,-4.3512,-4.4271,-4.4852,-4.5069,-4.5169,-4.5372,-4.5572,-4.5556,-4.5484,-4.5182,-4.4781,-1.7173,-1.7371,-1.7529,-1.7589,-1.7589,-1.7589,-1.7589,-1.7589,-1.7589,-1.8356,-1.9539,-2.0202,-2.0869,-2.1191,-2.1454,-2.2013,-2.2929,-2.2627,-2.3238,-2.3845,-2.4211,-2.4211,-2.4211,-2.4211,-2.4211,-2.4211,-2.4637,-2.4637,-2.4735,-2.5069,-2.5421,-2.5333,-2.5538,-2.5684,-2.5684,-2.5684,-2.5732,-2.5878,-2.6062,-2.64,-2.6822,-2.7384,-2.7904,-2.8456,-2.9013,-2.9393,-2.9244,-2.9703,-2.9897,-2.9852,-2.9932,-3.0125,-3.017,-3.0397,-3.0578,-3.0578,-3.0431,-3.0431,-3.0352,-3.0216,-3.0045,-2.976,-2.9485,-2.9301,-2.9035,-2.8513,-2.8269,-2.8585,-2.8186,-2.7998,-2.7998,-2.7857,-2.7715,-2.7584,-2.7489,-2.7404,-2.7394,-2.7762,-2.7998,-2.8128,-2.8315,-2.8456,-2.8771,-2.9395,-2.9749,-2.9841,-3.0944,-3.2593,-3.3377,-3.394,-3.4246,-3.4758,-3.6002,-3.7088,-3.7701,-3.8554,-3.9508,-4.0191,-4.0312,-4.0662,-4.1176,-4.1836,-4.2443,-4.3183,-4.3968,-4.4541,-4.514,-4.522,-4.5327,-4.5546,-4.5778,-4.6013,-4.5978,-4.5629,-4.5128,-1.673,-1.6783,-1.7371,-1.7589,-1.7589,-1.7589,-1.7589,-1.7589,-1.7589,-1.8767,-2.0723,-2.261,-2.292,-2.2577,-2.2476,-2.2979,-2.3954,-2.2987,-2.3388,-2.3895,-2.4211,-2.4211,-2.4211,-2.4211,-2.4211,-2.4399,-2.4922,-2.5118,-2.5265,-2.6013,-2.5839,-2.547,-2.5907,-2.582,-2.5917,-2.6245,-2.6197,-2.6294,-2.6534,-2.688,-2.7347,-2.7857,-2.8409,-2.9163,-2.9485,-2.9669,-3.0023,-3.0295,-3.0261,-3.017,-3.0385,-3.0464,-3.0599,-3.1059,-3.1294,-3.1448,-3.1448,-3.1403,-3.1282,-3.0758,-3.0306,-3.008,-2.9852,-2.9669,-2.9829,-2.9095,-2.8817,-2.891,-2.8817,-2.8653,-2.8699,-2.8642,-2.8351,-2.8398,-2.8315,-2.8269,-2.8315,-2.8409,-2.8642,-2.8689,-2.8828,-2.9106,-2.9681,-3.0351,-3.0508,-3.0598,-3.2059,-3.37,-3.3995,-3.4468,-3.4551,-3.5073,-3.6306,-3.7204,-3.7701,-3.8649,-3.9879,-4.0296,-4.0401,-4.0836,-4.1409,-4.2094,-4.2785,-4.366,-4.4412,-4.4917,-4.5327,-4.5406,-4.552,-4.5752,-4.5988,-4.6259,-4.6029,-4.5549,-4.5178,-1.6483,-1.6477,-1.6889,-1.716,-1.7384,-1.7331,-1.7424,-1.7582,-1.7635,-1.8819,-2.1038,-2.3079,-2.3945,-2.3596,-2.3546,-2.3746,-2.4152,-2.3854,-2.3904,-2.4053,-2.4211,-2.4211,-2.4211,-2.4211,-2.4211,-2.4449,-2.5167,-2.5877,-2.5954,-2.6856,-2.7379,-2.7247,-2.6924,-2.7163,-2.7305,-2.7352,-2.7305,-2.7125,-2.7278,-2.7573,-2.7584,-2.8175,-2.8781,-2.9393,-3.0397,-3.0352,-3.0385,-3.108,-3.0869,-3.0701,-3.108,-3.1247,-3.1368,-3.1996,-3.2389,-3.2593,-3.2636,-3.2519,-3.2196,-3.1536,-3.1059,-3.1214,-3.0689,-3.025,-3.0845,-3.0351,-3.0136,-3.0045,-2.9726,-2.9555,-2.9244,-2.8956,-2.8713,-2.9084,-2.9268,-2.9222,-2.9395,-2.9578,-2.9498,-2.9635,-2.9783,-2.9932,-3.0644,-3.1347,-3.1323,-3.1444,-3.3122,-3.4535,-3.4771,-3.5046,-3.5209,-3.5629,-3.6816,-3.7686,-3.8213,-3.9211,-4.0296,-4.047,-4.0558,-4.1107,-4.1672,-4.2253,-4.3,-4.3939,-4.4725,-4.5096,-4.538,-4.5563,-4.5701,-4.5879,-4.6161,-4.6501,-4.6127,-4.5575,-4.5132,-1.6164,-1.6217,-1.6418,-1.6683,-1.7067,-1.7067,-1.7166,-1.7318,-1.7318,-1.8551,-2.0723,-2.261,-2.3746,-2.3954,-2.4053,-2.4102,-2.4152,-2.4102,-2.4161,-2.4211,-2.4211,-2.4211,-2.4211,-2.4211,-2.4211,-2.4489,-2.5538,-2.634,-2.633,-2.7699,-2.8495,-2.868,-2.8484,-2.8541,-2.8402,-2.8727,-2.8552,-2.8319,-2.8423,-2.8749,-2.8806,-2.9303,-2.9897,-3.0453,-3.1226,-3.1315,-3.1258,-3.1701,-3.1833,-3.1701,-3.1909,-3.2364,-3.2654,-3.3084,-3.3606,-3.3804,-3.3888,-3.3762,-3.331,-3.2605,-3.2064,-3.2183,-3.1733,-3.1645,-3.1821,-3.1512,-3.1247,-3.1347,-3.089,-3.0396,-3.0147,-3.0034,-2.9988,-3.0362,-3.0519,-3.0564,-3.0866,-3.1089,-3.0789,-3.0666,-3.0812,-3.1048,-3.1645,-3.2376,-3.298,-3.3084,-3.4053,-3.51,-3.5263,-3.5575,-3.6004,-3.657,-3.7434,-3.8227,-3.8891,-3.9743,-4.0455,-4.073,-4.0919,-4.1374,-4.1933,-4.2522,-4.3213,-4.4128,-4.478,-4.5194,-4.5459,-4.5693,-4.5829,-4.5938,-4.6332,-4.6754,-4.6356,-4.5815,-4.514,-1.5945,-1.5885,-1.5939,-1.6258,-1.6683,-1.6736,-1.6736,-1.6836,-1.6942,-1.8126,-2.0135,-2.1473,-2.2719,-2.3546,-2.3845,-2.3954,-2.4102,-2.4152,-2.4211,-2.4211,-2.4211,-2.4211,-2.4211,-2.4211,-2.4211,-2.4726,-2.5674,-2.6436,-2.6426,-2.8262,-2.9383,-2.9943,-2.9795,-2.9647,-2.8866,-2.8958,-2.9143,-2.9407,-2.9772,-3.0283,-3.0643,-3.0899,-3.1279,-3.1569,-3.2096,-3.2196,-3.1613,-3.2227,-3.2314,-3.2084,-3.2519,-3.2895,-3.3156,-3.3859,-3.4374,-3.4622,-3.4664,-3.4664,-3.4581,-3.3577,-3.3292,-3.3207,-3.2852,-3.2722,-3.2476,-3.2302,-3.2215,-3.2314,-3.2084,-3.1745,-3.1669,-3.1625,-3.1448,-3.1536,-3.1689,-3.1853,-3.2147,-3.2308,-3.196,-3.1456,-3.1865,-3.2302,-3.2809,-3.3492,-3.44,-3.495,-3.5372,-3.5669,-3.575,-3.6097,-3.6559,-3.7309,-3.8069,-3.8686,-3.9391,-4.0025,-4.0627,-4.0901,-4.1223,-4.1606,-4.2173,-4.2816,-4.3571,-4.4344,-4.4879,-4.5318,-4.5589,-4.5829,-4.5988,-4.6186,-4.6613,-4.6845,-4.6516,-4.6012,-4.5265,-1.5885,-1.5885,-1.5885,-1.5992,-1.6205,-1.6371,-1.6524,-1.6836,-1.7562,-1.8641,-2.0025,-2.1218,-2.2358,-2.3238,-2.3696,-2.3854,-2.3954,-2.4152,-2.4211,-2.4211,-2.4211,-2.4211,-2.4211,-2.4211,-2.4211,-2.4538,-2.5586,-2.6436,-2.6426,-2.8448,-2.9578,-3.017,-3.0812,-3.1003,-3.0869,-3.0824,-3.0902,-3.0576,-3.08,-3.1158,-3.1279,-3.1545,-3.1733,-3.1857,-3.2599,-3.25,-3.1613,-3.2531,-3.2877,-3.2389,-3.2735,-3.3292,-3.3437,-3.3956,-3.4553,-3.5087,-3.5332,-3.5669,-3.587,-3.5588,-3.5114,-3.4677,-3.3998,-3.3788,-3.3982,-3.3645,-3.339,-3.3147,-3.3147,-3.276,-3.2239,-3.214,-3.2152,-3.2587,-3.2846,-3.2993,-3.3194,-3.3212,-3.2986,-3.2321,-3.2302,-3.2766,-3.331,-3.4402,-3.544,-3.575,-3.6045,-3.6085,-3.6165,-3.6626,-3.7081,-3.791,-3.8657,-3.9226,-3.9849,-4.0459,-4.0851,-4.1156,-4.139,-4.1671,-4.2317,-4.3031,-4.3558,-4.4174,-4.4824,-4.5441,-4.5641,-4.5854,-4.6186,-4.6477,-4.6682,-4.6869,-4.6677,-4.6054,-4.5258,-1.5885,-1.5885,-1.5885,-1.5885,-1.5945,-1.6105,-1.6258,-1.6571,-1.7246,-1.8178,-1.9213,-2.0297,-2.1481,-2.2518,-2.3338,-2.3746,-2.3805,-2.4053,-2.4211,-2.4211,-2.4211,-2.4211,-2.4211,-2.4211,-2.4211,-2.4498,-2.5167,-2.5926,-2.6368,-2.838,-2.9841,-3.0779,-3.1427,-3.1617,-3.1717,-3.1793,-3.1881,-3.1713,-3.2008,-3.2314,-3.2333,-3.2463,-3.2605,-3.2803,-3.3116,-3.3232,-3.2747,-3.2963,-3.37,-3.3036,-3.3335,-3.4066,-3.4165,-3.4581,-3.5101,-3.5588,-3.5413,-3.5696,-3.6044,-3.6177,-3.5763,-3.6017,-3.5087,-3.4896,-3.5182,-3.4786,-3.4538,-3.4301,-3.4147,-3.3742,-3.325,-3.3122,-3.322,-3.3713,-3.3586,-3.3729,-3.3982,-3.3998,-3.3522,-3.2852,-3.2925,-3.3352,-3.393,-3.5237,-3.6429,-3.6522,-3.6575,-3.6615,-3.6679,-3.7095,-3.7544,-3.8285,-3.9096,-3.9707,-4.0235,-4.0802,-4.1189,-4.1423,-4.1638,-4.1867,-4.2428,-4.3155,-4.3575,-4.4042,-4.478,-4.5397,-4.5615,-4.5887,-4.6077,-4.6259,-4.6404,-4.6556,-4.6708,-4.6086,-4.5216,-1.5885,-1.5885,-1.5885,-1.5885,-1.5885,-1.5945,-1.5945,-1.5945,-1.5939,-1.663,-1.774,-1.8916,-2.0254,-2.1497,-2.2778,-2.3447,-2.3705,-2.4003,-2.4102,-2.4161,-2.4112,-2.4161,-2.4211,-2.4211,-2.4211,-2.4538,-2.5118,-2.5877,-2.6272,-2.838,-3.0158,-3.1282,-3.1749,-3.1937,-3.2081,-3.2257,-3.2376,-3.2481,-3.2945,-3.3147,-3.322,-3.3742,-3.3742,-3.3839,-3.3937,-3.4092,-3.4037,-3.4426,-3.5018,-3.5304,-3.5844,-3.6244,-3.6547,-3.6822,-3.6362,-3.5655,-3.4774,-3.5237,-3.544,-3.5534,-3.6004,-3.6296,-3.6284,-3.6085,-3.5844,-3.5588,-3.5386,-3.5304,-3.5168,-3.4991,-3.4718,-3.4607,-3.4509,-3.4384,-3.4037,-3.4246,-3.462,-3.44,-3.3788,-3.3577,-3.3846,-3.4264,-3.4884,-3.603,-3.6954,-3.6993,-3.707,-3.725,-3.7313,-3.7567,-3.8008,-3.8457,-3.9262,-4.0095,-4.0665,-4.1207,-4.1489,-4.1753,-4.198,-4.2238,-4.2789,-4.3232,-4.368,-4.4202,-4.4879,-4.538,-4.5752,-4.5863,-4.5892,-4.6039,-4.6209,-4.6076,-4.6161,-4.586,-4.5167,-1.5885,-1.5885,-1.5885,-1.5885,-1.5885,-1.5885,-1.5885,-1.5885,-1.5939,-1.6518,-1.7687,-1.8715,-1.9893,-2.1089,-2.2476,-2.3046,-2.3356,-2.3506,-2.3755,-2.3854,-2.3954,-2.4053,-2.4152,-2.4211,-2.4211,-2.4489,-2.5069,-2.579,-2.6542,-2.8448,-3.0306,-3.1528,-3.1937,-3.2081,-3.23,-3.2506,-3.2636,-3.2884,-3.3428,-3.3628,-3.3839,-3.4189,-3.4147,-3.4021,-3.4314,-3.4356,-3.4163,-3.4509,-3.484,-3.4814,-3.491,-3.502,-3.5033,-3.5061,-3.4815,-3.4843,-3.4897,-3.5237,-3.4815,-3.4733,-3.5115,-3.587,-3.5924,-3.6165,-3.6098,-3.6098,-3.5978,-3.5965,-3.5911,-3.5656,-3.5305,-3.5114,-3.5127,-3.495,-3.4649,-3.4607,-3.4909,-3.4937,-3.4374,-3.4361,-3.4637,-3.4966,-3.5628,-3.6545,-3.7303,-3.738,-3.7481,-3.7696,-3.791,-3.8107,-3.8465,-3.8921,-3.9611,-4.05,-4.1091,-4.1638,-4.1851,-4.2093,-4.227,-4.246,-4.282,-4.3262,-4.3768,-4.4401,-4.5096,-4.558,-4.6013,-4.5991,-4.5822,-4.5896,-4.6031,-4.5777,-4.555,-4.5332,-4.5076,-1.5885,-1.5885,-1.5885,-1.5838,-1.5737,-1.5737,-1.5737,-1.5731,-1.5838,-1.6524,-1.7687,-1.8708,-1.9849,-2.1038,-2.2325,-2.3046,-2.3046,-2.3347,-2.3596,-2.3795,-2.3795,-2.4003,-2.4102,-2.4202,-2.4211,-2.4489,-2.4784,-2.5314,-2.6494,-2.8366,-3.0317,-3.1617,-3.1981,-3.2213,-3.2431,-3.268,-3.2939,-3.3129,-3.3416,-3.3713,-3.3979,-3.4189,-3.4063,-3.4021,-3.4397,-3.4259,-3.4108,-3.4634,-3.4566,-3.4622,-3.4815,-3.4637,-3.4513,-3.4347,-3.4347,-3.4472,-3.465,-3.4733,-3.4472,-3.4389,-3.4692,-3.4992,-3.5237,-3.5251,-3.5763,-3.5977,-3.623,-3.6389,-3.631,-3.6151,-3.5777,-3.544,-3.5481,-3.5561,-3.5223,-3.4924,-3.5128,-3.5372,-3.5278,-3.5183,-3.5346,-3.5588,-3.6215,-3.712,-3.7572,-3.7534,-3.7672,-3.8,-3.8234,-3.8465,-3.8891,-3.9361,-4.0143,-4.0979,-4.1492,-4.1932,-4.2174,-4.2318,-4.2397,-4.2649,-4.2912,-4.3413,-4.4042,-4.4663,-4.5292,-4.5604,-4.573,-4.5845,-4.5779,-4.575,-4.5492,-4.5111,-4.4986,-4.5092,-4.4823,-1.5885,-1.5885,-1.5885,-1.5737,-1.5535,-1.5535,-1.5636,-1.5636,-1.6051,-1.6636,-1.7687,-1.8864,-2.0004,-2.1089,-2.2274,-2.2896,-2.2946,-2.3147,-2.3347,-2.3746,-2.3705,-2.3854,-2.4053,-2.4152,-2.4211,-2.4202,-2.4686,-2.5596,-2.6628,-2.8402,-3.0215,-3.1661,-3.2069,-3.23,-3.2431,-3.2766,-3.3013,-3.3386,-3.3543,-3.3797,-3.4063,-3.4285,-3.4397,-3.4452,-3.4825,-3.5113,-3.5386,-3.5467,-3.5332,-3.5642,-3.5575,-3.5196,-3.4596,-3.4293,-3.4293,-3.4264,-3.4389,-3.4277,-3.4223,-3.4223,-3.4472,-3.4555,-3.443,-3.4938,-3.5655,-3.5655,-3.583,-3.6256,-3.6217,-3.6508,-3.6296,-3.5803,-3.5669,-3.5749,-3.5655,-3.5521,-3.5682,-3.5762,-3.5561,-3.5561,-3.5803,-3.6096,-3.6531,-3.7366,-3.7825,-3.7725,-3.7839,-3.815,-3.8774,-3.9037,-3.9489,-4.0019,-4.0844,-4.1526,-4.1722,-4.2126,-4.2429,-4.2571,-4.2649,-4.282,-4.3111,-4.3693,-4.4356,-4.4749,-4.507,-4.5152,-4.5247,-4.5267,-4.5165,-4.4918,-4.4638,-4.4304,-4.4329,-4.4644,-4.4566,-1.5885,-1.5885,-1.5885,-1.5737,-1.5541,-1.5737,-1.6152,-1.6723,-1.7047,-1.7371,-1.7943,-1.9546,-2.0629,-2.1191,-2.2173,-2.2745,-2.2745,-2.2846,-2.2946,-2.3247,-2.3406,-2.3705,-2.3904,-2.4102,-2.4202,-2.4498,-2.5118,-2.6436,-2.797,-2.9223,-3.0158,-3.156,-3.2025,-3.2213,-3.24,-3.2736,-3.3056,-3.3501,-3.3683,-3.3852,-3.4063,-3.4272,-3.4397,-3.4564,-3.4853,-3.5318,-3.5642,-3.5965,-3.6191,-3.6587,-3.595,-3.5237,-3.4389,-3.4347,-3.393,-3.3606,-3.4111,-3.4111,-3.4027,-3.4223,-3.4678,-3.5102,-3.5318,-3.5776,-3.5896,-3.5305,-3.5264,-3.5776,-3.6203,-3.6598,-3.673,-3.6189,-3.591,-3.6016,-3.6096,-3.6215,-3.632,-3.6122,-3.5883,-3.6042,-3.6294,-3.6624,-3.7067,-3.7467,-3.7886,-3.8052,-3.8052,-3.8472,-3.952,-4.0054,-4.0435,-4.0961,-4.1689,-4.2238,-4.2238,-4.2349,-4.2664,-4.2851,-4.2958,-4.3125,-4.332,-4.3875,-4.4456,-4.4534,-4.4702,-4.4788,-4.4742,-4.448,-4.4329,-4.4273,-4.4196,-4.4034,-4.4036,-4.4308,-4.4212,-1.5885,-1.5891,-1.5791,-1.5636,-1.5535,-1.5517,-1.5832,-1.6524,-1.7615,-1.8199,-1.8506,-2.0055,-2.114,-2.1556,-2.2342,-2.2603,-2.2603,-2.2603,-2.2846,-2.3005,-2.3155,-2.3456,-2.3705,-2.4003,-2.4538,-2.4971,-2.6446,-2.7945,-2.9269,-3.0079,-3.0791,-3.1617,-3.1893,-3.2125,-3.24,-3.2636,-3.2957,-3.3513,-3.3641,-3.3852,-3.4063,-3.4272,-3.4522,-3.4729,-3.51,-3.5562,-3.5804,-3.6125,-3.6137,-3.6163,-3.5561,-3.5128,-3.4568,-3.4485,-3.4069,-3.3843,-3.4053,-3.4402,-3.4152,-3.4389,-3.5007,-3.5359,-3.5454,-3.5602,-3.5521,-3.5061,-3.5224,-3.5696,-3.599,-3.6348,-3.6427,-3.607,-3.6559,-3.6872,-3.6702,-3.661,-3.7014,-3.7285,-3.7116,-3.7155,-3.7323,-3.7414,-3.7734,-3.7772,-3.8225,-3.8716,-3.8679,-3.9247,-4.0209,-4.0808,-4.1245,-4.1722,-4.2333,-4.2586,-4.2492,-4.2648,-4.2941,-4.3125,-4.3306,-4.366,-4.3958,-4.4207,-4.4516,-4.4445,-4.4447,-4.4485,-4.4369,-4.4144,-4.4071,-4.4119,-4.4014,-4.3904,-4.3974,-4.4091,-4.4166,-1.5885,-1.5838,-1.5636,-1.5529,-1.5482,-1.5256,-1.5416,-1.6057,-1.7759,-1.8961,-1.9487,-2.0467,-2.1556,-2.2283,-2.2594,-2.2603,-2.2603,-2.2603,-2.2804,-2.2904,-2.3005,-2.3256,-2.3596,-2.3985,-2.4864,-2.5964,-2.7295,-2.8355,-2.9407,-3.0034,-3.0644,-3.1516,-3.1893,-3.2125,-3.2344,-3.2593,-3.2927,-3.3386,-3.3641,-3.3865,-3.4118,-3.4327,-3.4647,-3.5018,-3.548,-3.5924,-3.6085,-3.6151,-3.5884,-3.5655,-3.54,-3.4746,-3.4332,-3.4069,-3.3759,-3.353,-3.3911,-3.4345,-3.4581,-3.4979,-3.5237,-3.5318,-3.5237,-3.5359,-3.544,-3.54,-3.5561,-3.5682,-3.5976,-3.6189,-3.6308,-3.6545,-3.7159,-3.7558,-3.726,-3.7092,-3.7644,-3.8127,-3.8075,-3.8037,-3.8075,-3.8127,-3.8165,-3.8202,-3.8657,-3.9175,-3.9733,-4.0416,-4.0977,-4.1178,-4.1525,-4.2045,-4.2617,-4.2743,-4.2759,-4.2943,-4.3246,-4.3545,-4.3781,-4.4192,-4.4531,-4.4568,-4.448,-4.424,-4.4221,-4.4196,-4.4159,-4.4034,-4.3992,-4.3972,-4.3946,-4.3913,-4.4121,-4.425,-4.4374,-1.5885,-1.5885,-1.5838,-1.569,-1.5535,-1.563,-1.6146,-1.6829,-1.7516,-1.8767,-2.0158,-2.0731,-2.1514,-2.2603,-2.2603,-2.2603,-2.2603,-2.2603,-2.2603,-2.2703,-2.2846,-2.3046,-2.3637,-2.4756,-2.5761,-2.6809,-2.7709,-2.8262,-2.9521,-2.9886,-3.0441,-3.1617,-3.1705,-3.1981,-3.2356,-3.2605,-3.281,-3.3356,-3.3683,-3.3894,-3.4189,-3.4439,-3.466,-3.5072,-3.548,-3.5924,-3.6298,-3.664,-3.6705,-3.648,-3.595,-3.491,-3.4194,-3.3746,-3.339,-3.3159,-3.3573,-3.3898,-3.4304,-3.5264,-3.5602,-3.6016,-3.6215,-3.6819,-3.6702,-3.6334,-3.6373,-3.6255,-3.6545,-3.6819,-3.6989,-3.7327,-3.7815,-3.7938,-3.781,-3.781,-3.8089,-3.8165,-3.8165,-3.8188,-3.8225,-3.83,-3.8337,-3.862,-3.9175,-3.9662,-4.0085,-4.074,-4.1426,-4.1624,-4.1835,-4.2317,-4.2834,-4.308,-4.3202,-4.3276,-4.3529,-4.3869,-4.4142,-4.4395,-4.4577,-4.4729,-4.4557,-4.4127,-4.3889,-4.3828,-4.3797,-4.3868,-4.3894,-4.3876,-4.3904,-4.3958,-4.4196,-4.4443,-4.4599]},{"header":{"parameterUnit":"m.s-1","parameterCategory":1,"la1":31.0,"la2":29.5877,"lo1":-88.7671,"lo2":-86.6584,"dy":0.0162,"dx":0.0185,"nx":115,"ny":88,"refTime":"2023-03-24T06:00:00:Z","depth":0,"parameterNumber":3,"parameterNumberName":"V-component_of_WINDS"},"data":[0.0,0.0,0.0,0.0,0.0,0.0,0.0,0.0,0.0,0.0,0.0,0.0,0.0,0.0,0.0,0.0,0.0,0.0,0.0,0.0,0.0,0.0,0.0,0.0,0.0,0.0,0.0,0.0,0.0,0.0,0.0,0.0,0.0,0.0,0.0,0.0,0.0,0.0,0.0,0.0,0.0,0.0,0.0,0.0,0.0,0.0,0.0,0.0,0.0,0.0,0.0,0.0,0.0,0.0,0.0,0.0,0.0,0.0,0.0,0.0,0.0,0.0,0.0,0.0,0.0,0.0,0.0,0.0,0.0,0.0,0.0,0.0,0.0,0.0,0.0,0.0,0.0,0.0,0.0,0.0,0.0,0.0,0.0,0.0,0.0,0.0,0.0,0.0,0.0,0.0,0.0,0.0,0.0,0.0,0.0,0.0,0.0,0.0,0.0,0.0,0.0,0.0,0.0,0.0,0.0,0.0,0.0,0.0,0.0,0.0,0.0,0.0,0.0,0.0,0.0,0.0,0.0,0.0,0.0,0.0,0.0,0.0,0.0,0.0,0.0,0.0,0.0,0.0,0.0,0.0,0.0,0.0,0.0,0.0,0.0,0.0,0.0,0.0,0.0,0.0,0.0,0.0,0.0,0.0,0.0,0.0,0.0,0.0,0.0,0.0,0.0,0.0,0.0,0.0,0.0,0.0,0.0,0.0,0.0,0.0,0.0,0.0,0.0,0.0,0.0,0.0,0.0,0.0,0.0,0.0,0.0,0.0,0.0,0.0,0.0,0.0,0.0,0.0,0.0,0.0,0.0,0.0,0.0,0.0,0.0,0.0,0.0,0.0,0.0,0.0,0.0,0.0,0.0,0.0,0.0,0.0,0.0,0.0,0.0,0.0,0.0,0.0,0.0,0.0,0.0,0.0,0.0,0.0,0.0,0.0,0.0,0.0,0.0,0.0,0.0,0.0,0.0,0.0,0.0,0.0,0.0,0.0,0.0,0.0,0.0,0.0,0.0,0.0,0.0,0.0,0.0,0.0,0.0,0.0,0.0,0.0,0.0,0.0,0.0,0.0,0.0,0.0,0.0,0.0,0.0,0.0,0.0,0.0,0.0,0.0,0.0,0.0,0.0,0.0,0.0,0.0,0.0,0.0,0.0,0.0,0.0,0.0,0.0,0.0,0.0,0.0,0.0,0.0,0.0,0.0,0.0,0.0,0.0,0.0,0.0,0.0,0.0,0.0,0.0,0.0,0.0,0.0,0.0,0.0,0.0,0.0,0.0,0.0,0.0,0.0,0.0,0.0,0.0,0.0,0.0,0.0,0.0,0.0,0.0,0.0,0.0,0.0,0.0,0.0,0.0,0.0,0.0,0.0,0.0,0.0,0.0,0.0,0.0,0.0,0.0,0.0,0.0,0.0,0.0,0.0,0.0,0.0,0.0,0.0,0.0,0.0,0.0,0.0,0.0,0.0,0.0,0.0,0.0,0.0,0.0,0.0,0.0,0.0,0.0,0.0,0.0,0.0,0.0,0.0,0.0,0.0,0.0,0.0,0.0,0.0,0.0,0.0,0.0,0.0,0.0,0.0,0.0,0.0,0.0,0.0,0.0,0.0,0.0,0.0,0.0,0.0,0.0,0.0,0.0,0.0,0.0,0.0,0.0,0.0,0.0,0.0,0.0,0.0,0.0,0.0,0.0,0.0,0.0,0.0,0.0,0.0,0.0,0.0,0.0,0.0,0.0,0.0,0.0,0.0,0.0,0.0,0.0,0.0,0.0,0.0,0.0,0.0,0.0,0.0,0.0,0.0,0.0,0.0,0.0,0.0,0.0,0.0,0.0,0.0,0.0,0.0,0.0,0.0,0.0,0.0,0.0,0.0,0.0,0.0,0.0,0.0,0.0,0.0,0.0,0.0,0.0,0.0,0.0,0.0,0.0,0.0,0.0,0.0,0.0,0.0,0.0,0.0,0.0,0.0,0.0,0.0,0.0,0.0,0.0,0.0,0.0,0.0,0.0,0.0,0.0,0.0,0.0,0.0,0.0,0.0,0.0,0.0,0.0,0.0,0.0,0.0,0.0,0.0,0.0,0.0,0.0,0.0,0.0,0.0,0.0,0.0,0.0,0.0,0.0,0.0,0.0,0.0,0.0,0.0,0.0,0.0,0.0,0.0,0.0,0.0,0.0,0.0,0.0,0.0,0.0,0.0,0.0,0.0,0.0,0.0,0.0,0.0,0.0,0.0,0.0,0.0,0.0,0.0,0.0,0.0,0.0,0.0,0.0,0.0,0.0,0.0,0.0,0.0,0.0,0.0,0.0,0.0,0.0,0.0,0.0,0.0,0.0,0.0,0.0,0.0,0.0,0.0,0.0,0.0,0.0,0.0,0.0,0.0,0.0,0.0,0.0,0.0,0.0,0.0,0.0,0.0,0.0,0.0,0.0,0.0,0.0,0.0,0.0,0.0,0.0,0.0,0.0,0.0,0.0,0.0,0.0,0.0,0.0,0.0,0.0,0.0,0.0,0.0,0.0,0.0,0.0,0.0,0.0,0.0,0.0,0.0,0.0,0.0,0.0,0.0,0.0,0.0,0.0,0.0,0.0,0.0,0.0,0.0,0.0,0.0,0.0,0.0,0.0,0.0,0.0,0.0,0.0,0.0,0.0,0.0,0.0,0.0,0.0,0.0,0.0,0.0,0.0,0.0,0.0,0.0,0.0,0.0,0.0,0.0,0.0,0.0,0.0,0.0,0.0,0.0,0.0,0.0,0.0,0.0,0.0,0.0,0.0,0.0,0.0,0.0,0.0,0.0,0.0,0.0,0.0,0.0,0.0,0.0,0.0,0.0,0.0,0.0,0.0,0.0,0.0,0.0,0.0,0.0,0.0,0.0,0.0,0.0,0.0,0.0,0.0,0.0,0.0,0.0,0.0,0.0,0.0,0.0,0.0,0.0,0.0,0.0,0.0,0.0,0.0,0.0,0.0,0.0,0.0,0.0,0.0,0.0,0.0,0.0,0.0,0.0,0.0,0.0,0.0,0.0,0.0,0.0,0.0,0.0,0.0,0.0,0.0,0.0,0.0,0.0,0.0,0.0,0.0,0.0,0.0,0.0,0.0,0.0,0.0,0.0,0.0,0.0,0.0,0.0,0.0,0.0,0.0,0.0,0.0,0.0,0.0,0.0,0.0,0.0,0.0,0.0,0.0,0.0,0.0,0.0,0.0,0.0,0.0,0.0,0.0,0.0,0.0,0.0,0.0,0.0,0.0,0.0,0.0,0.0,0.0,0.0,0.0,0.0,0.0,0.0,0.0,0.0,0.0,0.0,0.0,0.0,0.0,0.0,0.0,0.0,0.0,0.0,0.0,0.0,0.0,0.0,0.0,0.0,0.0,0.0,0.0,0.0,0.0,0.0,0.0,0.0,0.0,0.0,0.0,0.0,0.0,0.0,0.0,0.0,0.0,0.0,0.0,0.0,0.0,0.0,0.0,0.0,0.0,0.0,0.0,0.0,0.0,0.0,0.0,0.0,0.0,0.0,0.0,0.0,0.0,0.0,0.0,0.0,0.0,0.0,0.0,0.0,0.0,0.0,0.0,0.0,0.0,0.0,0.0,0.0,0.0,0.0,0.0,0.0,0.0,0.0,0.0,0.0,0.0,0.0,0.0,0.0,0.0,0.0,0.0,0.0,0.0,0.0,0.0,0.0,0.0,0.0,0.0,0.0,0.0,0.0,0.0,0.0,0.0,0.0,0.0,0.0,0.0,0.0,0.0,0.0,0.0,0.0,0.0,0.0,0.0,0.0,0.0,0.0,0.0,0.0,0.0,0.0,0.0,0.0,0.0,0.0,0.0,0.0,0.0,0.0,0.0,0.0,0.0,0.0,0.0,0.0,0.0,0.0,0.0,0.0,0.0,0.0,0.0,0.0,0.0,0.0,0.0,0.0,0.0,0.0,0.0,0.0,0.0,0.0,0.0,0.0,0.0,0.0,0.0,0.0,0.0,0.0,0.0,0.0,0.0,0.0,0.0,0.0,0.0,0.0,0.0,0.0,0.0,0.0,0.0,0.0,0.0,0.0,0.0,0.0,0.0,0.0,0.0,0.0,0.0,0.0,0.0,0.0,0.0,0.0,0.0,0.0,0.0,0.0,0.0,0.0,0.0,0.0,0.0,0.0,0.0,0.0,0.0,0.0,0.0,0.0,0.0,0.0,0.0,0.0,0.0,0.0,0.0,0.0,0.0,0.0,0.0,0.0,0.0,0.0,0.0,0.0,0.0,0.0,0.0,0.0,2.517,0.0,0.0,0.0,0.0,0.0,0.0,0.0,0.0,0.0,0.0,0.0,0.0,0.0,0.0,0.0,0.0,0.0,0.0,0.0,0.0,0.0,0.0,0.0,0.0,0.0,0.0,0.0,0.0,0.0,0.0,0.0,0.0,0.0,0.0,0.0,0.0,0.0,0.0,0.0,0.0,0.0,0.0,0.0,0.0,0.0,0.0,0.0,0.0,0.0,0.0,0.0,0.0,0.0,0.0,0.0,0.0,0.0,0.0,0.0,0.0,0.0,0.0,0.0,0.0,0.0,0.0,0.0,0.0,0.0,0.0,0.0,0.0,0.0,0.0,0.0,0.0,0.0,0.0,0.0,0.0,0.0,0.0,0.0,0.0,0.0,0.0,0.0,0.0,0.0,0.0,0.0,0.0,0.0,0.0,0.0,0.0,0.0,0.0,0.0,0.0,0.0,0.0,0.0,0.0,0.0,0.0,0.0,0.0,0.0,0.0,2.5428,2.529,2.5295,2.525,2.5143,0.0,0.0,0.0,0.0,0.0,0.0,0.0,0.0,0.0,0.0,0.0,0.0,0.0,0.0,0.0,0.0,0.0,0.0,0.0,0.0,0.0,0.0,0.0,0.0,0.0,0.0,0.0,0.0,0.0,0.0,0.0,0.0,0.0,0.0,0.0,0.0,0.0,0.0,0.0,0.0,0.0,0.0,0.0,0.0,0.0,0.0,0.0,0.0,0.0,0.0,0.0,0.0,0.0,0.0,0.0,0.0,0.0,0.0,0.0,0.0,0.0,0.0,0.0,0.0,0.0,0.0,0.0,0.0,0.0,0.0,0.0,0.0,0.0,0.0,0.0,0.0,0.0,0.0,0.0,0.0,0.0,0.0,0.0,0.0,0.0,0.0,0.0,0.0,0.0,0.0,0.0,0.0,0.0,0.0,0.0,0.0,0.0,0.0,0.0,0.0,0.0,0.0,0.0,0.0,0.0,0.0,0.0,0.0,0.0,0.0,0.0,0.0,2.5121,2.5116,2.5082,0.0,0.0,0.0,0.0,0.0,0.0,0.0,0.0,0.0,0.0,0.0,0.0,0.0,0.0,0.0,0.0,0.0,0.0,0.0,0.0,0.0,0.0,0.0,0.0,0.0,0.0,0.0,0.0,0.0,0.0,0.0,0.0,0.0,0.0,0.0,0.0,0.0,0.0,0.0,0.0,0.0,0.0,0.0,0.0,0.0,0.0,0.0,0.0,0.0,0.0,0.0,0.0,0.0,0.0,0.0,0.0,0.0,0.0,0.0,0.0,0.0,0.0,0.0,0.0,0.0,0.0,0.0,0.0,0.0,0.0,0.0,0.0,0.0,0.0,0.0,0.0,0.0,0.0,0.0,0.0,0.0,0.0,0.0,0.0,0.0,0.0,0.0,0.0,0.0,0.0,0.0,0.0,0.0,0.0,0.0,0.0,0.0,0.0,0.0,0.0,0.0,0.0,0.0,0.0,0.0,0.0,0.0,0.0,0.0,0.0,2.507,2.4917,2.4924,0.0,2.4757,0.0,0.0,0.0,0.0,0.0,0.0,0.0,0.0,0.0,0.0,0.0,0.0,0.0,0.0,0.0,0.0,0.0,0.0,0.0,0.0,0.0,0.0,0.0,0.0,0.0,0.0,0.0,0.0,0.0,0.0,0.0,0.0,0.0,0.0,0.0,0.0,0.0,0.0,0.0,0.0,0.0,0.0,0.0,0.0,0.0,0.0,0.0,0.0,0.0,0.0,0.0,0.0,0.0,0.0,0.0,0.0,0.0,0.0,0.0,0.0,0.0,0.0,0.0,0.0,0.0,0.0,0.0,0.0,0.0,0.0,0.0,0.0,0.0,0.0,0.0,0.0,0.0,0.0,0.0,0.0,0.0,0.0,0.0,0.0,0.0,0.0,0.0,0.0,0.0,0.0,0.0,0.0,0.0,0.0,0.0,0.0,0.0,0.0,0.0,0.0,0.0,0.0,0.0,0.0,0.0,0.0,0.0,0.0,0.0,0.0,2.491,2.479,2.4704,2.4588,0.0,0.0,0.0,0.0,0.0,0.0,0.0,0.0,0.0,0.0,0.0,0.0,0.0,0.0,0.0,0.0,0.0,0.0,0.0,0.0,0.0,0.0,0.0,0.0,0.0,0.0,0.0,0.0,0.0,0.0,0.0,0.0,0.0,0.0,0.0,0.0,0.0,0.0,0.0,0.0,0.0,0.0,0.0,0.0,0.0,0.0,0.0,0.0,0.0,0.0,0.0,0.0,0.0,0.0,0.0,0.0,0.0,0.0,0.0,0.0,0.0,0.0,0.0,0.0,0.0,0.0,0.0,0.0,0.0,0.0,0.0,0.0,0.0,0.0,0.0,0.0,0.0,0.0,0.0,0.0,0.0,0.0,0.0,0.0,0.0,0.0,0.0,0.0,0.0,0.0,0.0,0.0,0.0,0.0,0.0,0.0,0.0,0.0,0.0,0.0,0.0,0.0,0.0,0.0,0.0,0.0,0.0,0.0,0.0,0.0,2.4797,2.4642,2.4493,2.4399,2.4338,2.433,0.0,0.0,0.0,0.0,0.0,0.0,0.0,0.0,0.0,0.0,0.0,0.0,0.0,0.0,0.0,0.0,0.0,0.0,0.0,0.0,0.0,0.0,0.0,0.0,0.0,0.0,0.0,0.0,0.0,0.0,0.0,0.0,0.0,0.0,0.0,0.0,0.0,0.0,0.0,0.0,0.0,0.0,0.0,0.0,0.0,0.0,0.0,0.0,0.0,0.0,0.0,0.0,0.0,0.0,0.0,0.0,0.0,0.0,0.0,0.0,0.0,0.0,0.0,0.0,0.0,0.0,0.0,0.0,0.0,0.0,0.0,0.0,0.0,0.0,0.0,0.0,0.0,0.0,0.0,0.0,0.0,0.0,0.0,0.0,0.0,0.0,0.0,0.0,0.0,0.0,0.0,0.0,0.0,0.0,0.0,0.0,0.0,0.0,0.0,0.0,0.0,0.0,0.0,0.0,0.0,0.0,0.0,0.0,2.4787,2.4426,2.4145,2.3954,2.3925,2.4069,0.0,0.0,0.0,0.0,0.0,0.0,0.0,0.0,0.0,0.0,0.0,0.0,0.0,0.0,0.0,0.0,0.0,0.0,0.0,0.0,0.0,0.0,0.0,0.0,0.0,0.0,0.0,0.0,0.0,0.0,0.0,0.0,0.0,0.0,0.0,0.0,0.0,0.0,0.0,0.0,0.0,0.0,0.0,0.0,0.0,0.0,0.0,0.0,0.0,0.0,0.0,0.0,0.0,0.0,0.0,0.0,0.0,0.0,0.0,0.0,0.0,0.0,0.0,0.0,0.0,0.0,0.0,0.0,0.0,0.0,0.0,0.0,0.0,0.0,0.0,0.0,0.0,0.0,0.0,0.0,0.0,0.0,0.0,0.0,0.0,0.0,0.0,0.0,0.0,0.0,0.0,0.0,0.0,0.0,0.0,0.0,0.0,0.0,0.0,0.0,0.0,0.0,0.0,0.0,0.0,0.0,0.0,0.0,0.0,2.4273,2.3985,2.3864,2.3953,2.3832,2.3911,0.0,0.0,0.0,0.0,0.0,0.0,0.0,0.0,0.0,0.0,0.0,0.0,0.0,0.0,0.0,0.0,0.0,0.0,0.0,0.0,0.0,0.0,0.0,0.0,0.0,0.0,0.0,0.0,0.0,0.0,0.0,0.0,0.0,0.0,0.0,0.0,0.0,0.0,0.0,0.0,0.0,0.0,0.0,0.0,0.0,0.0,0.0,0.0,0.0,0.0,0.0,0.0,0.0,0.0,0.0,0.0,0.0,0.0,0.0,0.0,0.0,0.0,0.0,0.0,0.0,0.0,0.0,0.0,0.0,0.0,0.0,0.0,0.0,0.0,0.0,0.0,0.0,0.0,0.0,0.0,0.0,0.0,0.0,0.0,0.0,0.0,0.0,0.0,0.0,0.0,0.0,0.0,0.0,0.0,0.0,0.0,0.0,0.0,0.0,0.0,0.0,0.0,0.0,0.0,0.0,0.0,0.0,0.0,0.0,2.3661,0.0,2.3545,2.361,2.3595,2.3692,0.0,0.0,0.0,0.0,0.0,0.0,0.0,0.0,0.0,0.0,0.0,0.0,0.0,0.0,0.0,0.0,0.0,0.0,0.0,0.0,0.0,0.0,0.0,0.0,0.0,0.0,0.0,0.0,0.0,0.0,0.0,0.0,0.0,0.0,0.0,0.0,0.0,0.0,0.0,0.0,0.0,0.0,0.0,0.0,0.0,0.0,0.0,0.0,0.0,0.0,0.0,0.0,0.0,0.0,0.0,0.0,0.0,0.0,0.0,0.0,0.0,0.0,0.0,0.0,0.0,0.0,0.0,0.0,0.0,0.0,0.0,0.0,0.0,0.0,0.0,0.0,0.0,0.0,0.0,0.0,0.0,0.0,0.0,0.0,0.0,0.0,0.0,0.0,0.0,0.0,0.0,0.0,0.0,0.0,0.0,0.0,0.0,0.0,0.0,0.0,0.0,0.0,0.0,0.0,0.0,0.0,0.0,0.0,2.2963,2.3021,2.3236,2.32,2.2838,2.3199,2.3481,0.0,0.0,0.0,0.0,0.0,0.0,0.0,0.0,0.0,0.0,0.0,0.0,0.0,0.0,0.0,0.0,0.0,0.0,0.0,0.0,0.0,0.0,0.0,0.0,0.0,0.0,0.0,0.0,0.0,0.0,0.0,0.0,0.0,0.0,0.0,0.0,0.0,0.0,0.0,0.0,0.0,0.0,0.0,0.0,0.0,0.0,0.0,0.0,0.0,0.0,0.0,0.0,0.0,0.0,0.0,0.0,0.0,0.0,0.0,0.0,0.0,0.0,0.0,0.0,0.0,0.0,0.0,0.0,0.0,0.0,0.0,0.0,0.0,0.0,0.0,0.0,0.0,0.0,0.0,0.0,0.0,0.0,0.0,0.0,0.0,0.0,0.0,0.0,0.0,0.0,0.0,0.0,0.0,0.0,0.0,0.0,0.0,0.0,0.0,0.0,0.0,0.0,0.0,0.0,0.0,0.0,0.0,0.0,0.0,2.2504,2.269,2.2867,2.2995,2.3235,2.3481,0.0,0.0,0.0,0.0,0.0,0.0,0.0,0.0,0.0,0.0,0.0,0.0,0.0,0.0,0.0,0.0,0.0,0.0,0.0,0.0,0.0,0.0,0.0,0.0,0.0,0.0,0.0,0.0,0.0,0.0,0.0,0.0,0.0,0.0,0.0,0.0,0.0,0.0,0.0,0.0,0.0,0.0,0.0,0.0,0.0,0.0,0.0,0.0,0.0,0.0,0.0,0.0,0.0,0.0,0.0,0.0,0.0,0.0,0.0,0.0,0.0,0.0,0.0,0.0,0.0,0.0,0.0,0.0,0.0,0.0,0.0,0.0,0.0,0.0,0.0,0.0,0.0,0.0,0.0,0.0,0.0,0.0,0.0,0.0,0.0,0.0,0.0,0.0,0.0,0.0,0.0,0.0,0.0,0.0,0.0,0.0,0.0,0.0,0.0,0.0,0.0,0.0,0.0,0.0,0.0,0.0,0.0,0.0,0.0,2.3218,2.3606,2.3887,2.4064,2.4212,2.4019,2.3484,0.0,0.0,0.0,0.0,0.0,0.0,0.0,0.0,0.0,0.0,0.0,0.0,0.0,0.0,0.0,0.0,0.0,0.0,0.0,0.0,0.0,0.0,0.0,0.0,0.0,0.0,0.0,0.0,0.0,0.0,0.0,0.0,0.0,0.0,0.0,0.0,0.0,0.0,0.0,0.0,0.0,0.0,0.0,0.0,0.0,0.0,0.0,0.0,0.0,0.0,0.0,0.0,0.0,0.0,0.0,0.0,0.0,0.0,0.0,0.0,0.0,0.0,0.0,0.0,0.0,0.0,0.0,0.0,0.0,0.0,0.0,0.0,0.0,0.0,0.0,0.0,0.0,0.0,0.0,0.0,0.0,0.0,0.0,0.0,0.0,0.0,0.0,0.0,0.0,0.0,0.0,0.0,0.0,0.0,0.0,0.0,0.0,0.0,0.0,0.0,0.0,0.0,0.0,0.0,0.0,0.0,0.0,0.0,2.4959,2.5853,2.6182,2.5877,2.5923,2.5012,0.0,0.0,0.0,0.0,0.0,0.0,0.0,0.0,0.0,0.0,0.0,0.0,0.0,0.0,0.0,0.0,0.0,0.0,0.0,0.0,0.0,0.0,0.0,0.0,0.0,0.0,0.0,0.0,0.0,0.0,0.0,0.0,0.0,0.0,0.0,0.0,0.0,0.0,0.0,0.0,0.0,0.0,0.0,0.0,0.0,0.0,0.0,0.0,0.0,0.0,0.0,0.0,0.0,0.0,0.0,0.0,0.0,0.0,0.0,0.0,0.0,0.0,0.0,0.0,0.0,0.0,0.0,0.0,0.0,0.0,0.0,0.0,0.0,0.0,0.0,0.0,0.0,0.0,0.0,0.0,0.0,0.0,0.0,0.0,0.0,0.0,0.0,0.0,0.0,0.0,0.0,0.0,0.0,0.0,0.0,0.0,0.0,0.0,0.0,0.0,0.0,0.0,0.0,0.0,0.0,0.0,0.0,0.0,0.0,2.7018,2.8937,2.9276,2.7949,2.6537,2.5596,0.0,0.0,0.0,0.0,0.0,0.0,0.0,0.0,0.0,0.0,0.0,0.0,0.0,0.0,0.0,0.0,0.0,0.0,0.0,0.0,0.0,0.0,0.0,0.0,0.0,0.0,0.0,0.0,0.0,0.0,0.0,0.0,0.0,0.0,0.0,0.0,0.0,0.0,0.0,0.0,0.0,0.0,0.0,0.0,0.0,0.0,0.0,0.0,0.0,0.0,0.0,0.0,0.0,0.0,0.0,0.0,0.0,0.0,0.0,0.0,0.0,0.0,0.0,0.0,0.0,0.0,0.0,0.0,0.0,0.0,0.0,0.0,0.0,0.0,0.0,0.0,0.0,0.0,0.0,0.0,0.0,0.0,0.0,0.0,0.0,0.0,0.0,0.0,0.0,0.0,0.0,0.0,0.0,0.0,0.0,0.0,0.0,0.0,0.0,0.0,0.0,0.0,0.0,0.0,0.0,0.0,0.0,0.0,2.4622,2.6957,3.0102,3.1341,3.0484,2.8179,2.6495,0.0,0.0,0.0,0.0,0.0,0.0,0.0,0.0,0.0,0.0,0.0,0.0,0.0,0.0,0.0,0.0,0.0,0.0,0.0,0.0,0.0,0.0,0.0,0.0,0.0,0.0,0.0,0.0,0.0,0.0,0.0,0.0,0.0,0.0,0.0,0.0,0.0,0.0,0.0,0.0,0.0,0.0,0.0,0.0,0.0,0.0,0.0,0.0,0.0,0.0,0.0,0.0,0.0,0.0,0.0,0.0,0.0,0.0,0.0,0.0,0.0,0.0,0.0,0.0,0.0,0.0,0.0,0.0,0.0,0.0,0.0,0.0,0.0,0.0,0.0,0.0,0.0,0.0,0.0,0.0,0.0,0.0,0.0,0.0,0.0,0.0,0.0,0.0,0.0,0.0,0.0,0.0,0.0,0.0,0.0,0.0,0.0,0.0,0.0,0.0,0.0,0.0,0.0,0.0,0.0,0.0,0.0,0.0,2.4952,2.5915,3.0058,3.243,3.2748,3.0032,2.7495,0.0,0.0,0.0,0.0,0.0,0.0,0.0,0.0,0.0,0.0,0.0,0.0,0.0,0.0,0.0,0.0,0.0,0.0,0.0,0.0,0.0,0.0,0.0,0.0,0.0,0.0,0.0,0.0,0.0,0.0,0.0,0.0,0.0,0.0,0.0,0.0,0.0,0.0,0.0,0.0,0.0,0.0,0.0,0.0,0.0,0.0,0.0,0.0,0.0,0.0,0.0,0.0,0.0,0.0,0.0,0.0,0.0,0.0,0.0,0.0,0.0,0.0,0.0,0.0,0.0,0.0,0.0,0.0,0.0,0.0,0.0,0.0,0.0,0.0,0.0,0.0,0.0,0.0,0.0,0.0,0.0,0.0,0.0,0.0,0.0,0.0,0.0,0.0,0.0,0.0,0.0,0.0,0.0,0.0,0.0,0.0,0.0,0.0,0.0,0.0,0.0,0.0,0.0,0.0,0.0,0.0,0.0,0.0,2.484,2.7111,2.9848,3.1707,3.2561,2.9551,2.7763,0.0,0.0,0.0,0.0,0.0,0.0,0.0,0.0,0.0,0.0,0.0,0.0,0.0,0.0,0.0,0.0,0.0,0.0,0.0,0.0,0.0,0.0,0.0,0.0,0.0,0.0,0.0,0.0,0.0,0.0,0.0,0.0,0.0,0.0,0.0,0.0,0.0,0.0,0.0,0.0,0.0,0.0,0.0,0.0,0.0,0.0,0.0,0.0,2.635,0.0,0.0,0.0,0.0,0.0,0.0,0.0,0.0,0.0,0.0,0.0,0.0,0.0,0.0,0.0,0.0,0.0,0.0,0.0,0.0,0.0,0.0,0.0,0.0,0.0,0.0,0.0,0.0,0.0,0.0,0.0,0.0,0.0,0.0,0.0,0.0,0.0,0.0,0.0,0.0,0.0,0.0,0.0,0.0,0.0,0.0,0.0,0.0,0.0,0.0,0.0,0.0,0.0,0.0,0.0,0.0,0.0,0.0,0.0,2.3873,2.6336,2.8942,3.0603,3.1168,2.9111,2.7785,0.0,0.0,0.0,0.0,0.0,0.0,0.0,0.0,0.0,0.0,0.0,0.0,0.0,0.0,0.0,0.0,0.0,0.0,0.0,0.0,0.0,0.0,0.0,0.0,0.0,0.0,0.0,0.0,0.0,0.0,0.0,0.0,0.0,0.0,0.0,0.0,0.0,0.0,0.0,0.0,0.0,0.0,0.0,0.0,0.0,0.0,0.0,0.0,0.0,0.0,0.0,0.0,0.0,0.0,0.0,0.0,0.0,0.0,0.0,0.0,0.0,0.0,0.0,0.0,0.0,0.0,0.0,0.0,0.0,0.0,0.0,0.0,0.0,0.0,0.0,0.0,0.0,0.0,0.0,0.0,0.0,0.0,0.0,0.0,0.0,0.0,0.0,0.0,0.0,0.0,0.0,0.0,0.0,0.0,0.0,0.0,0.0,0.0,0.0,0.0,0.0,0.0,0.0,0.0,0.0,0.0,0.0,2.0681,2.2756,2.5349,2.7859,2.9376,2.9868,2.8675,2.7496,2.6384,0.0,0.0,0.0,0.0,0.0,0.0,0.0,0.0,0.0,0.0,0.0,0.0,0.0,0.0,0.0,0.0,0.0,0.0,0.0,0.0,0.0,0.0,0.0,0.0,0.0,0.0,0.0,0.0,0.0,0.0,0.0,0.0,0.0,0.0,0.0,0.0,0.0,0.0,2.5284,2.4934,0.0,0.0,0.0,0.0,0.0,0.0,0.0,0.0,2.5488,0.0,0.0,0.0,0.0,0.0,0.0,0.0,0.0,0.0,0.0,0.0,0.0,0.0,0.0,0.0,0.0,0.0,0.0,0.0,0.0,0.0,0.0,0.0,0.0,0.0,0.0,0.0,0.0,0.0,0.0,0.0,0.0,0.0,0.0,0.0,0.0,0.0,0.0,0.0,0.0,0.0,0.0,0.0,0.0,0.0,0.0,0.0,0.0,0.0,0.0,0.0,0.0,0.0,0.0,0.0,0.0,1.9935,2.0328,2.251,2.648,2.7285,2.8364,2.9788,2.8192,2.6521,2.4906,0.0,0.0,0.0,0.0,0.0,0.0,0.0,0.0,0.0,0.0,0.0,0.0,0.0,0.0,0.0,0.0,0.0,0.0,0.0,0.0,0.0,0.0,0.0,0.0,0.0,0.0,0.0,0.0,0.0,0.0,0.0,0.0,0.0,0.0,0.0,0.0,0.0,0.0,0.0,2.5442,2.512,0.0,0.0,0.0,0.0,0.0,0.0,0.0,0.0,2.6819,0.0,0.0,0.0,0.0,0.0,0.0,0.0,0.0,0.0,0.0,0.0,0.0,0.0,0.0,0.0,0.0,0.0,0.0,0.0,0.0,0.0,0.0,0.0,0.0,0.0,0.0,0.0,0.0,0.0,0.0,0.0,0.0,0.0,0.0,0.0,0.0,0.0,0.0,0.0,0.0,0.0,0.0,0.0,0.0,0.0,0.0,0.0,0.0,0.0,0.0,0.0,0.0,0.0,0.0,0.0,1.9583,2.0706,2.2724,2.5765,2.6663,2.7605,2.8584,2.7188,2.5629,0.0,0.0,0.0,0.0,0.0,0.0,0.0,0.0,0.0,0.0,0.0,0.0,0.0,0.0,0.0,0.0,0.0,0.0,0.0,0.0,0.0,0.0,0.0,0.0,0.0,0.0,0.0,0.0,0.0,0.0,0.0,0.0,0.0,0.0,0.0,0.0,0.0,0.0,0.0,0.0,2.6424,2.6459,2.7838,0.0,0.0,0.0,0.0,0.0,0.0,2.7791,2.7543,0.0,0.0,0.0,0.0,0.0,0.0,0.0,0.0,0.0,0.0,0.0,0.0,0.0,0.0,0.0,0.0,0.0,0.0,0.0,0.0,0.0,0.0,0.0,0.0,0.0,0.0,0.0,0.0,0.0,0.0,0.0,0.0,0.0,0.0,0.0,0.0,0.0,0.0,0.0,0.0,0.0,0.0,0.0,0.0,0.0,0.0,0.0,0.0,0.0,0.0,0.0,0.0,0.0,0.0,0.0,1.8871,2.0705,2.2652,2.4603,2.5875,2.6846,2.746,2.5965,2.4544,0.0,0.0,0.0,0.0,0.0,0.0,0.0,0.0,0.0,0.0,0.0,0.0,0.0,0.0,0.0,0.0,0.0,0.0,0.0,0.0,0.0,0.0,0.0,0.0,0.0,0.0,0.0,0.0,0.0,0.0,0.0,0.0,0.0,0.0,0.0,0.0,0.0,0.0,0.0,0.0,0.0,2.773,2.8835,2.7829,0.0,0.0,0.0,0.0,2.8088,2.8365,0.0,0.0,0.0,0.0,0.0,0.0,0.0,0.0,0.0,0.0,0.0,0.0,0.0,0.0,0.0,0.0,0.0,0.0,0.0,0.0,0.0,0.0,0.0,0.0,0.0,0.0,0.0,0.0,0.0,0.0,0.0,0.0,0.0,0.0,0.0,0.0,0.0,0.0,0.0,0.0,0.0,0.0,0.0,0.0,0.0,0.0,0.0,0.0,0.0,0.0,0.0,0.0,0.0,0.0,0.0,0.0,1.7804,1.9405,2.1415,2.3719,2.4745,2.5925,2.7394,2.4564,2.2991,0.0,0.0,0.0,0.0,0.0,0.0,0.0,0.0,0.0,0.0,0.0,0.0,0.0,0.0,0.0,0.0,0.0,0.0,0.0,0.0,0.0,0.0,0.0,0.0,0.0,0.0,0.0,0.0,0.0,0.0,0.0,0.0,0.0,0.0,0.0,0.0,0.0,0.0,0.0,0.0,0.0,2.7593,2.9129,2.7951,2.6938,0.0,0.0,2.9809,3.0095,3.0771,0.0,0.0,0.0,0.0,0.0,0.0,0.0,0.0,0.0,0.0,0.0,0.0,0.0,0.0,0.0,0.0,0.0,0.0,0.0,0.0,0.0,0.0,0.0,0.0,0.0,0.0,0.0,0.0,0.0,0.0,0.0,0.0,0.0,0.0,0.0,0.0,0.0,0.0,0.0,0.0,0.0,0.0,0.0,0.0,0.0,0.0,0.0,0.0,0.0,0.0,0.0,0.0,0.0,0.0,0.0,1.734,1.7667,2.0077,2.1735,2.253,2.4433,2.5643,2.606,2.373,2.2523,0.0,0.0,0.0,0.0,0.0,0.0,0.0,0.0,0.0,0.0,0.0,0.0,0.0,0.0,0.0,0.0,0.0,0.0,0.0,0.0,0.0,0.0,0.0,0.0,0.0,0.0,0.0,0.0,0.0,0.0,0.0,0.0,0.0,0.0,0.0,0.0,0.0,0.0,0.0,0.0,0.0,0.0,2.864,2.882,0.0,0.0,0.0,3.0538,2.9831,0.0,0.0,0.0,0.0,0.0,0.0,0.0,0.0,0.0,0.0,0.0,0.0,0.0,0.0,0.0,0.0,0.0,0.0,0.0,0.0,0.0,0.0,0.0,0.0,0.0,0.0,0.0,0.0,0.0,0.0,0.0,0.0,0.0,0.0,0.0,0.0,0.0,0.0,0.0,0.0,0.0,0.0,0.0,0.0,0.0,0.0,0.0,0.0,0.0,0.0,0.0,0.0,0.0,0.0,0.0,0.0,0.0,1.7678,2.0461,2.1815,2.1667,2.3858,2.5066,2.5038,2.361,0.0,0.0,0.0,0.0,0.0,0.0,0.0,0.0,0.0,0.0,0.0,0.0,0.0,0.0,0.0,0.0,0.0,0.0,0.0,0.0,0.0,0.0,0.0,0.0,0.0,0.0,0.0,2.344,0.0,0.0,0.0,0.0,0.0,0.0,0.0,0.0,0.0,0.0,0.0,0.0,0.0,0.0,2.9799,2.8981,3.0039,3.0889,0.0,0.0,3.1771,3.1495,3.3041,3.3096,0.0,0.0,0.0,0.0,0.0,0.0,0.0,0.0,0.0,0.0,0.0,0.0,0.0,0.0,0.0,0.0,0.0,0.0,0.0,0.0,0.0,0.0,0.0,0.0,0.0,0.0,0.0,0.0,0.0,0.0,0.0,0.0,0.0,0.0,0.0,0.0,0.0,0.0,0.0,0.0,0.0,0.0,0.0,0.0,0.0,0.0,0.0,0.0,0.0,0.0,0.0,0.0,0.0,0.0,0.0,1.7781,1.9583,2.0933,2.1585,2.2572,2.3787,2.5106,2.4399,2.3228,0.0,0.0,0.0,0.0,0.0,0.0,0.0,0.0,0.0,0.0,0.0,0.0,0.0,0.0,0.0,0.0,0.0,0.0,0.0,0.0,0.0,0.0,0.0,0.0,0.0,0.0,0.0,0.0,0.0,0.0,0.0,0.0,0.0,0.0,0.0,0.0,0.0,0.0,0.0,0.0,0.0,3.1934,3.104,3.1516,3.3053,0.0,0.0,3.4254,3.7335,3.7649,3.626,3.2335,0.0,0.0,0.0,0.0,0.0,0.0,0.0,0.0,0.0,0.0,0.0,0.0,0.0,0.0,0.0,0.0,0.0,0.0,0.0,0.0,0.0,0.0,0.0,0.0,0.0,0.0,0.0,0.0,0.0,0.0,0.0,0.0,0.0,0.0,0.0,0.0,0.0,0.0,0.0,0.0,0.0,0.0,0.0,0.0,0.0,0.0,0.0,0.0,0.0,0.0,0.0,0.0,0.0,1.9216,1.87,2.0969,2.2118,2.215,2.3338,2.4142,2.4456,2.3824,2.2704,0.0,0.0,0.0,0.0,0.0,0.0,0.0,0.0,0.0,0.0,0.0,0.0,0.0,0.0,0.0,0.0,0.0,0.0,0.0,0.0,0.0,0.0,0.0,0.0,0.0,0.0,0.0,0.0,2.8204,2.8445,2.7766,0.0,0.0,0.0,0.0,0.0,0.0,0.0,0.0,0.0,0.0,3.2146,3.3869,3.475,0.0,0.0,3.6241,3.5578,3.4719,3.5417,3.4268,2.9029,2.7903,0.0,0.0,0.0,0.0,0.0,0.0,0.0,0.0,0.0,0.0,0.0,0.0,0.0,0.0,0.0,0.0,0.0,0.0,0.0,0.0,0.0,0.0,0.0,0.0,0.0,0.0,0.0,0.0,0.0,0.0,0.0,0.0,0.0,0.0,0.0,0.0,0.0,0.0,0.0,0.0,0.0,0.0,0.0,0.0,0.0,0.0,0.0,0.0,0.0,0.0,0.0,0.0,1.9981,1.9599,2.1922,2.3011,2.2703,2.3819,2.4278,2.4037,2.3724,2.2777,0.0,0.0,0.0,0.0,0.0,0.0,0.0,0.0,0.0,0.0,0.0,0.0,0.0,0.0,0.0,0.0,0.0,0.0,0.0,0.0,0.0,0.0,0.0,0.0,0.0,0.0,0.0,0.0,2.8713,2.8847,2.7974,0.0,0.0,0.0,0.0,0.0,0.0,0.0,0.0,0.0,0.0,3.3528,3.5029,3.5925,3.6495,3.6562,3.6281,3.5501,3.4094,3.3967,3.2622,2.8561,0.0,0.0,0.0,0.0,0.0,0.0,0.0,0.0,0.0,0.0,0.0,0.0,0.0,0.0,0.0,0.0,0.0,0.0,0.0,0.0,0.0,0.0,0.0,0.0,0.0,0.0,0.0,0.0,0.0,0.0,0.0,0.0,0.0,0.0,0.0,0.0,0.0,0.0,0.0,0.0,0.0,0.0,0.0,0.0,0.0,0.0,0.0,0.0,0.0,0.0,0.0,0.0,0.0,2.0549,2.0232,2.2108,2.3152,2.3389,2.3635,2.3892,2.4093,2.4452,2.3811,2.2007,0.0,0.0,0.0,0.0,0.0,0.0,0.0,0.0,0.0,0.0,0.0,0.0,0.0,0.0,0.0,0.0,0.0,0.0,0.0,0.0,0.0,0.0,0.0,0.0,0.0,0.0,2.5454,2.7046,2.8172,0.0,0.0,0.0,0.0,0.0,0.0,0.0,0.0,0.0,0.0,3.4109,3.6643,3.3908,3.4215,3.5261,3.6642,3.45,3.3852,3.6956,3.4431,3.2189,0.0,0.0,0.0,0.0,0.0,0.0,0.0,0.0,0.0,0.0,0.0,0.0,0.0,0.0,0.0,0.0,0.0,0.0,0.0,0.0,0.0,0.0,0.0,0.0,0.0,0.0,0.0,0.0,3.1591,0.0,0.0,0.0,0.0,0.0,0.0,0.0,0.0,0.0,0.0,0.0,2.958,2.8889,0.0,0.0,0.0,0.0,0.0,0.0,0.0,0.0,0.0,0.0,0.0,0.0,2.1523,2.1675,2.3652,2.4814,2.5046,2.4727,2.4475,2.4296,2.4438,2.3789,2.2242,0.0,0.0,0.0,0.0,0.0,0.0,0.0,0.0,0.0,0.0,0.0,0.0,0.0,0.0,0.0,0.0,0.0,0.0,0.0,0.0,0.0,0.0,0.0,0.0,0.0,2.6253,0.0,0.0,0.0,0.0,0.0,0.0,0.0,0.0,0.0,0.0,0.0,3.1092,3.2865,3.2925,3.32,3.4355,3.4346,3.5156,0.0,0.0,0.0,0.0,0.0,0.0,0.0,0.0,0.0,0.0,0.0,0.0,0.0,0.0,1.2244,1.2471,1.2455,1.2123,1.1417,0.0,0.0,0.0,0.0,0.0,0.0,0.0,0.0,0.0,0.0,0.0,0.0,0.0,0.0,0.0,0.0,3.3492,0.0,0.0,0.0,0.0,0.0,0.0,0.0,0.0,3.0755,3.1891,3.2378,3.1726,3.1454,0.0,2.9534,2.6877,0.0,0.0,0.0,0.0,0.0,0.0,0.0,0.0,2.2032,2.2166,2.462,2.59,2.5889,2.5501,2.5122,2.4719,2.46,2.3983,2.2835,2.1401,2.0512,0.0,0.0,0.0,0.0,0.0,0.0,0.0,0.0,0.0,0.0,0.0,0.0,0.0,0.0,0.0,0.0,0.0,0.0,0.0,0.0,0.0,0.0,0.0,2.6362,0.0,0.0,0.0,0.0,0.0,0.0,0.0,0.0,0.0,3.0629,3.0978,3.1896,3.4058,3.3395,3.279,3.2923,0.0,0.0,0.0,0.0,0.0,0.0,0.0,2.7154,2.5023,2.5386,2.582,2.5449,2.2138,1.9286,1.8724,0.0,0.0,1.3114,1.2899,1.2528,1.1657,1.1157,1.0808,1.0714,1.0361,1.0219,0.0,0.0,0.0,0.0,0.0,0.0,0.0,0.0,3.7325,3.5074,0.0,3.3556,0.0,0.0,0.0,0.0,0.0,0.0,0.0,0.0,3.6561,3.7482,3.4586,3.4317,3.4005,3.3569,3.1803,3.03,2.9047,2.673,0.0,0.0,0.0,0.0,0.0,0.0,2.2106,2.1902,2.4925,2.6324,2.5952,2.5927,2.5701,2.5294,2.4936,2.4448,2.3734,2.2849,2.2274,2.192,2.0109,0.0,0.0,0.0,0.0,0.0,0.0,0.0,0.0,0.0,0.0,0.0,0.0,0.0,0.0,0.0,0.0,0.0,0.0,0.0,0.0,2.4771,0.0,0.0,0.0,0.0,0.0,0.0,0.0,0.0,0.0,0.0,2.9459,3.1545,3.3074,3.2853,0.0,0.0,0.0,0.0,3.1604,2.7591,2.624,2.6259,2.7503,2.6788,2.6683,2.8395,0.0,0.0,2.8675,2.3335,1.935,1.9905,1.7449,1.4717,1.2945,1.2394,1.1746,1.0723,1.0709,1.0625,1.036,1.0166,0.9719,3.8258,0.0,0.0,0.0,0.0,3.5978,3.7229,3.9444,3.9355,3.8123,3.6197,3.6865,0.0,0.0,0.0,0.0,0.0,0.0,3.2297,3.4257,3.5811,3.7002,3.7852,3.7289,3.7092,3.7136,3.5684,3.4758,3.4243,3.2272,2.8309,2.2552,0.0,0.0,0.0,0.0,2.3164,2.4331,2.6237,2.693,2.6328,2.6328,2.5984,2.5298,2.4833,2.4299,2.3717,2.3319,2.3015,2.2799,2.1975,0.0,0.0,0.0,0.0,0.0,0.0,0.0,0.0,0.0,0.0,0.0,0.0,0.0,0.0,0.0,0.0,0.0,0.0,0.0,2.6267,2.5355,2.454,0.0,0.0,0.0,0.0,0.0,0.0,0.0,0.0,0.0,3.0936,3.0402,3.0286,0.0,0.0,2.8006,2.7391,2.8568,3.0005,3.1374,0.0,0.0,0.0,3.0391,2.8461,2.7971,2.82,2.7997,2.6414,2.4637,2.2868,2.12,1.9237,1.7404,1.5841,1.4448,1.3291,1.2471,1.217,1.1834,1.1172,1.1131,1.1167,4.1815,4.0387,3.7965,3.7573,3.8495,3.8313,3.9553,4.171,4.1574,4.0309,3.8332,3.9184,3.6969,3.2522,3.1929,0.0,0.0,0.0,3.4349,3.7166,3.7166,3.8032,3.9428,3.8818,3.8507,3.851,3.7959,3.7265,3.6378,3.4768,3.135,2.6224,0.0,0.0,2.2557,2.3348,2.4278,2.5306,2.6515,2.6905,2.6533,2.643,2.613,2.567,2.5188,2.4603,2.3915,2.3734,2.3652,2.3683,2.2971,2.2293,0.0,0.0,0.0,0.0,0.0,0.0,0.0,0.0,0.0,0.0,0.0,1.9982,2.0655,0.0,0.0,0.0,2.4601,2.5477,2.6069,2.4437,0.0,0.0,0.0,0.0,0.0,0.0,0.0,2.5223,2.8302,3.0774,3.1033,3.0314,3.0594,3.2867,3.1126,2.9499,2.9128,0.0,3.1613,3.266,3.1524,3.1136,3.2854,3.17,3.0225,2.9349,2.908,2.85,2.6897,2.5931,2.4745,2.2939,2.1134,1.9546,1.8318,1.68,1.5173,1.3793,1.312,1.2622,1.1952,1.1923,1.1843,4.4843,4.4414,3.9408,3.8654,4.0688,4.071,4.1812,4.3677,4.3662,4.1703,3.8685,4.0561,3.8374,3.3171,3.266,0.0,0.0,3.5762,3.7086,3.9764,3.9781,3.9807,3.9824,3.9209,3.8734,3.839,3.895,3.8291,3.6562,3.5235,3.3419,3.1128,2.8958,2.6771,2.4687,2.5005,2.5311,2.5345,2.6021,2.6399,2.6487,2.6305,2.6201,2.6179,2.5758,2.5118,2.4246,2.4026,2.4087,2.4337,2.3449,2.332,2.4003,0.0,0.0,0.0,0.0,0.0,0.0,0.0,0.0,0.0,0.0,0.0,0.0,0.0,0.0,0.0,2.4054,0.0,2.4809,2.3232,0.0,0.0,0.0,2.761,3.0715,3.0464,2.9875,2.9406,0.0,0.0,0.0,0.0,3.3165,3.7045,3.711,3.5802,3.3032,3.4389,3.5037,3.2494,3.1776,3.1482,3.1973,3.1895,3.1857,3.1653,3.102,2.991,2.8773,2.6925,2.5461,2.4671,2.2892,2.1078,2.0307,1.8912,1.731,1.497,1.383,1.3124,1.2727,1.2295,1.1837,4.436,4.4256,4.2981,4.2875,4.3563,4.3222,4.3375,4.3798,4.3321,4.2248,4.0874,4.0884,3.9233,3.6478,3.6782,3.6772,3.6524,3.6819,3.7571,3.8657,3.8684,3.8936,3.9432,3.9265,3.9158,3.9077,3.9206,3.9043,3.8537,3.7046,3.4892,3.2187,3.0293,2.8144,2.5738,2.4744,2.4979,2.6467,2.5756,2.5727,2.6449,2.6305,2.6144,2.598,2.5418,2.485,2.4221,2.3897,2.3925,2.4366,2.4689,2.4246,2.2923,2.2509,0.0,0.0,0.0,0.0,0.0,0.0,0.0,0.0,0.0,1.9935,2.0394,0.0,2.199,0.0,2.4192,2.6822,2.9247,2.8579,0.0,0.0,2.8204,2.859,2.8068,3.0192,3.0778,2.8311,3.0573,3.2496,3.2832,3.3681,3.5384,3.8249,3.4645,3.1721,3.2076,3.3704,3.4828,3.4652,3.5518,3.6345,3.5512,3.432,3.3103,3.2599,3.1405,3.0177,2.9137,2.7423,2.5742,2.4489,2.2945,2.1719,2.1149,1.9562,1.8154,1.7116,1.5422,1.3736,1.2994,1.2412,1.1892,4.4901,4.5217,4.5236,4.5304,4.5361,4.4218,4.3697,4.358,4.3032,4.2362,4.1631,4.1049,4.0042,3.8855,3.908,3.8739,3.7998,3.8141,3.8423,3.8745,3.8728,3.8952,3.9272,3.8996,3.8871,3.8871,3.8733,3.8539,3.821,3.747,3.6156,3.4285,3.2779,3.0917,2.8616,2.5375,2.4343,2.5608,2.4829,2.5079,2.6311,2.6084,2.5607,2.4891,2.4211,2.3329,2.2282,2.1772,2.182,2.2456,2.2879,2.2714,2.1904,2.1261,2.0456,0.0,0.0,0.0,0.0,0.0,0.0,0.0,0.0,0.0,0.0,0.0,2.255,0.0,2.5259,0.0,2.8744,2.8152,2.7785,2.8188,2.9041,2.991,3.0645,3.2564,3.329,3.2049,3.3891,3.5298,3.5417,3.6082,3.699,3.8314,3.5625,3.3961,3.5015,3.6038,3.6627,3.6729,3.7278,3.717,3.5871,3.4455,3.3157,3.2128,3.0945,2.982,2.8679,2.7337,2.6099,2.5041,2.3747,2.2648,2.2129,2.0565,1.9144,1.8563,1.7049,1.5396,1.4387,1.3399,1.2608,4.5862,4.6494,4.6513,4.6513,4.6366,4.4564,4.3752,4.3596,4.3083,4.2384,4.152,4.1041,4.0566,4.0146,3.9952,3.9618,3.9228,3.9104,3.9094,3.9175,3.9175,3.9202,3.9272,3.8645,3.8379,3.8351,3.81,3.7666,3.7117,3.7326,3.7024,3.6138,3.5047,3.3532,3.1457,2.6451,2.3885,2.3897,2.394,2.4591,2.5849,2.5265,2.439,2.3238,2.2399,2.1252,1.978,1.9145,1.9145,1.9835,1.9987,2.0344,2.1033,1.9506,1.8818,0.0,1.7308,0.0,0.0,0.0,0.0,0.0,0.0,0.0,0.0,2.2549,2.3538,2.5998,2.6771,2.703,2.6847,2.62,2.6889,2.9602,3.0138,3.1701,3.5083,3.5706,3.6118,3.7074,3.7698,3.7873,3.7474,3.7956,3.8067,3.7653,3.7894,3.8056,3.8821,3.889,3.8772,3.8362,3.7438,3.6136,3.437,3.3526,3.2769,3.1408,3.0457,2.9381,2.8187,2.7232,2.6404,2.5759,2.4541,2.3531,2.3149,2.1472,2.0093,1.9658,1.8344,1.6913,1.589,1.4654,1.3755,4.6345,4.6513,4.6513,4.6513,4.6424,4.573,4.5406,4.5242,4.4213,4.2813,4.1255,4.0724,4.0061,3.9308,3.8859,3.8334,3.7809,3.778,3.801,3.8507,3.849,3.8772,3.9272,3.8887,3.8706,3.8678,3.8432,3.825,3.8119,3.7915,3.6546,3.4196,3.3638,3.2251,2.9941,0.0,0.0,0.0,2.4493,2.5054,2.4302,2.2385,2.1333,2.1227,2.0161,0.0,1.9243,1.869,1.8523,1.879,1.9269,0.0,0.0,0.0,0.0,0.0,0.0,0.0,0.0,0.0,0.0,0.0,2.2153,2.2159,2.2616,2.2561,2.4166,2.802,2.8041,2.8569,3.0628,3.1314,3.1841,3.2451,3.3532,3.4611,3.5434,3.6196,3.6831,3.703,3.7375,3.7599,3.7569,3.7956,3.801,3.7506,3.8282,3.8756,3.8411,3.8865,3.892,3.8197,3.6873,3.5565,3.4547,3.3685,3.284,3.185,3.0885,2.9794,2.8691,2.7689,2.6558,2.5411,2.4069,2.3193,2.2872,2.1168,1.9828,2.011,1.8794,1.7313,1.6299,1.5192,1.4167,4.733,0.0,4.7701,4.7683,0.0,4.7242,4.6927,4.6585,4.5246,4.3986,4.2855,4.2352,4.156,4.0595,4.0139,3.945,3.8629,3.8439,3.8495,3.8772,3.8799,3.8969,3.9299,3.8942,3.8805,3.8777,3.8359,3.8148,3.8148,3.786,3.6947,3.5529,3.5079,3.4273,3.3016,3.1162,2.843,2.4847,2.5582,2.5836,2.5509,2.4031,2.2706,2.1717,0.0,0.0,0.0,0.0,0.0,0.0,0.0,0.0,0.0,0.0,0.0,2.1581,2.1417,2.191,2.3177,2.3396,2.3756,2.4437,2.4821,2.4778,2.4094,2.5157,2.6918,2.9442,2.9954,3.0557,3.1623,3.2868,3.3471,3.3178,3.4129,3.5011,3.5482,3.5976,3.6476,3.6938,3.7151,3.7361,3.7655,3.7639,3.7783,3.7956,3.8254,3.8629,3.8821,3.8974,3.8712,3.7573,3.6415,3.5192,3.4129,3.3561,3.2889,3.2009,3.0985,2.9948,2.8876,2.7867,2.6682,2.5232,2.4112,2.328,2.2457,2.1024,1.9828,1.9409,1.8473,1.7274,1.6111,1.5265,1.467,4.8314,4.889,4.889,4.889,4.8874,4.855,4.8152,4.7586,0.0,0.0,0.0,4.3985,4.3277,4.2375,4.1992,4.1291,4.0391,3.9929,3.9704,3.9694,3.9544,3.9478,3.9494,3.9142,3.898,3.8936,3.8411,3.8087,3.7956,3.7743,3.7583,3.748,3.7059,3.6708,3.6352,3.4655,3.1948,2.8403,2.6972,2.6539,2.7009,2.5936,2.4401,2.2491,2.1862,2.0793,1.9277,1.8687,1.858,1.8911,1.9023,1.9483,2.0358,2.0554,2.0892,2.159,2.1657,2.2409,2.4138,2.4541,2.5436,2.7169,2.7959,2.7679,2.6143,2.8226,2.9868,3.0434,3.1771,3.2381,3.1817,3.315,3.3782,3.3017,3.3856,3.478,3.5305,3.5659,3.6134,3.68,3.6969,3.7181,3.7639,3.7567,3.7492,3.8185,3.8294,3.8346,3.9129,3.9065,3.8446,3.7142,3.6166,3.5062,3.3822,3.3283,3.2889,3.2009,3.1185,3.0241,2.9162,2.8148,2.6905,2.5537,2.4435,2.3313,2.2208,2.0979,1.982,1.8665,1.801,1.7217,1.5846,1.5256,1.4974,4.8797,4.889,4.889,4.889,4.889,4.8838,4.8569,4.804,4.6043,4.4706,4.3979,4.3561,4.3298,4.312,4.279,4.2535,4.2347,4.1597,4.1274,0.0,4.0576,4.0245,4.0228,3.9851,3.9655,3.9629,3.9199,3.8756,3.8294,3.821,3.7972,3.7553,3.7405,3.68,3.5657,3.5287,3.4057,3.1913,2.844,2.6459,2.6077,2.3595,2.2062,2.1525,2.0977,2.0151,1.9241,1.9033,1.8798,1.8586,1.9048,2.0082,2.162,2.2731,2.3887,2.5225,2.5802,2.6219,2.6532,2.7045,2.8019,2.9486,2.9908,2.9592,2.8675,2.9879,3.0806,3.0963,3.2407,3.3066,3.2453,3.3416,3.3914,3.3255,3.4346,3.5059,3.4666,3.5674,3.6492,3.6662,3.6892,3.6999,3.7225,3.7812,3.7911,3.7504,3.8351,3.9146,3.8668,3.8629,3.8278,3.7485,3.6306,3.5175,3.423,3.3596,3.296,3.2023,3.178,3.1185,3.0139,2.9071,2.7832,2.6416,2.4639,2.3129,2.212,2.0754,1.9583,1.8611,1.7963,1.7217,1.5717,1.5285,1.5046,4.8857,4.8821,4.8786,4.875,4.8732,4.8495,4.8073,4.7417,4.645,4.5841,4.551,4.5043,4.4656,4.4265,4.3892,4.3441,4.2927,4.2339,4.2057,4.1963,4.1597,4.1223,4.0824,4.05,4.0109,3.9688,3.9348,3.9055,3.8767,3.8446,3.8165,3.7915,3.7551,3.6876,3.6053,3.5657,3.478,3.3297,3.0461,2.8615,2.7866,2.5947,2.4568,2.3727,2.3397,2.29,2.211,2.2014,2.212,2.2386,2.2642,2.3551,2.5194,2.583,2.6763,2.814,2.8174,2.8222,2.8494,2.8881,2.9422,3.0193,3.1021,3.1357,3.1,3.1488,3.1999,3.2343,3.3526,3.3919,3.3136,3.4361,3.4942,3.4225,3.4927,3.527,3.5026,3.5497,3.5991,3.6023,3.6445,3.6862,3.718,3.7371,3.7679,3.7592,3.8712,3.8903,3.7693,3.801,3.8181,3.7562,3.6646,3.5593,3.4514,3.4075,3.3346,3.2264,3.1963,3.1495,3.0582,2.9512,2.8168,2.6692,2.5062,2.3651,2.234,2.1463,2.0141,1.818,1.801,1.7264,1.5568,1.5099,1.5003,4.8769,4.8751,4.8642,4.8587,4.8569,4.817,4.7645,4.7098,4.6962,4.6875,4.6765,4.635,4.5832,4.5257,4.4916,4.441,4.3723,4.3203,4.2954,4.2833,4.2636,4.2278,4.1742,4.1459,4.0966,4.0239,3.9923,3.9699,3.9365,3.8914,3.853,3.8193,3.7549,3.6922,3.6305,3.5834,3.5044,3.3871,3.2105,3.0797,2.9875,2.8823,2.7758,2.6732,2.6608,2.6174,2.538,2.5279,2.5496,2.5939,2.6156,2.6825,2.7974,2.8446,2.9077,2.9966,2.9631,2.9487,2.9931,3.0383,3.0795,3.1083,3.2148,3.2972,3.3259,3.3359,3.3394,3.3634,3.4495,3.471,3.3988,3.5124,3.5864,3.5059,3.5352,3.5576,3.5417,3.5514,3.5625,3.5705,3.6179,3.6693,3.7013,3.6922,3.7163,3.8124,3.8601,3.8124,3.7118,3.7562,3.778,3.7282,3.6662,3.5737,3.4547,3.4109,3.3471,3.2372,3.2073,3.168,3.0934,2.9769,2.8485,2.714,2.5797,2.4392,2.2824,2.212,2.0935,1.8848,1.8503,1.7917,1.59,1.5534,1.5435,4.8605,4.8605,4.8605,4.8587,4.8532,4.819,4.7951,4.7829,4.7432,4.6994,4.6619,4.6196,4.5938,4.5742,4.5673,4.5561,4.5414,4.4798,4.4478,4.4349,4.3714,4.3367,4.3256,4.3108,4.2662,4.2006,4.1781,4.11,4.0062,3.9851,3.9252,3.8169,3.749,3.6738,3.5819,3.5659,3.5175,3.4245,3.289,3.1802,3.1066,3.0392,2.9834,2.9373,2.9309,2.8804,2.7635,2.7688,2.7432,2.701,2.7521,2.7962,2.8254,2.9421,3.0241,3.0405,3.0323,3.0312,3.0423,3.1619,3.2597,3.3182,3.3733,3.4449,3.5248,3.5535,3.5083,3.4331,3.5059,3.5252,3.4056,3.527,3.5705,3.4743,3.5512,3.6148,3.5593,3.6006,3.6398,3.6429,3.6383,3.6507,3.6723,3.7013,3.7519,3.808,3.801,3.7738,3.7342,3.746,3.7401,3.6723,3.5975,3.5237,3.4413,3.3699,3.3101,3.2372,3.2169,3.1986,3.1394,3.0203,2.88,2.8048,2.6431,2.4754,2.3877,2.2945,2.1578,2.007,1.9368,1.8942,1.7638,1.685,1.6315,4.8569,4.8532,4.8458,4.8439,4.8383,4.823,4.8072,4.7872,4.7669,4.7327,4.6903,4.6695,4.635,4.5812,4.5812,4.5744,4.5649,4.5355,4.519,4.5096,4.4784,4.4545,4.4404,4.4345,4.4044,4.3595,4.3285,4.2601,4.1577,4.0531,3.9394,3.8294,3.7767,3.7177,3.6445,3.6227,3.5769,3.4945,3.4418,3.3567,3.2398,3.102,3.0088,2.9742,2.9704,2.9359,2.8699,2.848,2.8588,2.8925,2.9126,2.9526,3.0157,3.1075,3.1791,3.218,3.2659,3.245,3.1505,3.2992,3.4003,3.4143,3.4861,3.5512,3.5943,3.6085,3.5864,3.5561,3.5943,3.5943,3.5367,3.5943,3.6116,3.5655,3.5784,3.5752,3.5464,3.5688,3.5847,3.5879,3.6211,3.6662,3.6952,3.7238,3.749,3.778,3.778,3.7809,3.7519,3.7679,3.7504,3.6616,3.5544,3.4714,3.4279,3.3699,3.296,3.2408,3.2205,3.2146,3.1716,3.0279,2.8956,2.8745,2.6894,2.5411,2.4637,2.3531,2.2243,2.0926,1.9115,1.8195,1.8311,1.7652,1.7206,4.8513,4.8438,4.8343,4.8324,4.8324,4.8324,4.817,4.7953,4.7953,4.7689,4.7244,4.724,4.6817,4.6137,4.5998,4.5854,4.5752,4.577,4.5718,4.5598,4.5615,4.5515,4.5337,4.5163,4.5029,4.4854,4.4387,4.3792,4.2922,4.1454,3.9957,3.8867,3.8484,3.7958,3.7195,3.6998,3.6646,3.5992,3.5755,3.5029,3.3788,3.2213,3.1068,3.0507,3.0557,3.048,3.0088,3.0113,3.0466,3.1167,3.1079,3.1365,3.2128,3.2561,3.303,3.361,3.448,3.4331,3.2741,3.4264,3.5106,3.4861,3.5527,3.6022,3.6116,3.6179,3.6367,3.6569,3.6538,3.6383,3.6038,3.6289,3.6414,3.6226,3.5816,3.5705,3.5705,3.5705,3.5737,3.5769,3.6226,3.6647,3.7074,3.7268,3.746,3.7709,3.8039,3.821,3.7767,3.7838,3.7634,3.6616,3.527,3.4413,3.4245,3.3437,3.2761,3.2444,3.2205,3.2132,3.184,3.0355,2.9319,2.9188,2.7395,2.6238,2.5589,2.4457,2.278,2.1194,1.9617,1.8373,1.855,1.8032,1.79,4.8306,4.8306,4.8324,4.8324,4.8324,4.8324,4.8287,4.8248,4.8267,4.8034,4.763,4.7591,4.7313,4.6817,4.6435,4.6186,4.6186,4.6186,4.6186,4.6161,4.6161,4.6168,4.6109,4.5649,4.5523,4.5743,4.5326,4.463,4.3793,4.2722,4.1355,3.9834,3.9783,3.9007,3.7755,3.7921,3.7883,3.7255,3.6554,3.5931,3.5272,3.4499,3.3388,3.2309,3.2676,3.2812,3.2741,3.3345,3.3622,3.3533,3.338,3.3484,3.3581,3.3679,3.3762,3.3968,3.5237,3.5449,3.4283,3.5255,3.5832,3.532,3.5688,3.6037,3.6148,3.6274,3.6569,3.7041,3.6846,3.6352,3.5881,3.6227,3.6274,3.58,3.6148,3.6383,3.6429,3.6461,3.646,3.6476,3.66,3.6723,3.6677,3.7043,3.7608,3.801,3.825,3.8193,3.8067,3.7738,3.7238,3.6476,3.5367,3.4312,3.4177,3.3241,3.2444,3.2205,3.2169,3.2146,3.1643,3.106,3.0431,2.9563,2.7999,2.6969,2.6524,2.5252,2.3337,2.1889,2.1006,2.013,1.8835,1.8574,1.8342,4.8382,4.8324,4.8324,4.8324,4.8324,4.8324,4.8324,4.8324,4.8324,4.821,4.8073,4.8035,4.7777,4.7317,4.7182,4.6936,4.6654,4.6649,4.6649,4.6654,4.6654,4.6799,4.7071,4.6895,4.7016,4.7252,4.6884,4.5944,4.4636,4.3722,4.2629,4.1462,4.1166,4.0357,3.9136,3.8571,3.8289,3.7957,3.7017,3.6461,3.6461,3.555,3.4684,3.4158,3.3979,3.3871,3.3788,3.3959,3.4027,3.4095,3.3959,3.3945,3.4095,3.4447,3.4658,3.4643,3.5561,3.5705,3.4894,3.5705,3.6242,3.5896,3.6116,3.6461,3.6815,3.6952,3.7207,3.7648,3.7751,3.7501,3.7219,3.683,3.6492,3.6554,3.6738,3.6892,3.6906,3.7193,3.7519,3.7519,3.7578,3.7504,3.7118,3.7268,3.7621,3.8108,3.7982,3.7767,3.7709,3.7519,3.7148,3.6461,3.5302,3.4312,3.4312,3.3115,3.2205,3.2205,3.2169,3.2109,3.1767,3.1073,3.0355,2.9434,2.8108,2.701,2.634,2.5073,2.328,2.1596,2.0853,2.0175,1.8835,1.8427,1.8048,4.8382,4.8306,4.8324,4.8324,4.8324,4.8324,4.8324,4.8324,4.8324,4.8324,4.8324,4.8324,4.8094,4.7856,4.7836,4.7653,4.7353,4.7204,4.7138,4.7115,4.7115,4.7291,4.7527,4.7442,4.7695,4.8094,4.7671,4.67,4.56,4.4756,4.3656,4.2398,4.2402,4.1771,4.0488,3.99,3.9628,3.9253,3.8497,3.8013,3.7624,3.6832,3.6143,3.5659,3.5225,3.4894,3.4681,3.4747,3.4879,3.4945,3.4879,3.478,3.4714,3.527,3.5447,3.5204,3.5832,3.6053,3.5591,3.61,3.6445,3.6305,3.6399,3.6693,3.7058,3.7268,3.7679,3.8124,3.8322,3.8379,3.8574,3.7809,3.7222,3.7429,3.7474,3.7342,3.7057,3.737,3.7549,3.7431,3.7445,3.7415,3.7268,3.7298,3.7578,3.7982,3.7637,3.7401,3.7401,3.7208,3.7013,3.6476,3.5497,3.4681,3.4279,3.3346,3.2408,3.2277,3.2169,3.2073,3.184,3.111,3.0241,2.9227,2.8124,2.6999,2.581,2.4627,2.3008,2.115,2.0393,1.9903,1.8958,1.8187,1.7947,4.8306,4.8324,4.8324,4.8324,4.8324,4.8324,4.8324,4.8324,4.8324,4.8324,4.8324,4.8324,4.8267,4.8267,4.8229,4.8248,4.8113,4.7775,4.7591,4.7611,4.7611,4.7611,4.7653,4.7313,4.7527,4.8248,4.7399,4.689,4.6512,4.5743,4.4557,4.3277,4.3556,4.2989,4.1458,4.1738,4.1793,4.1297,4.0926,4.0225,3.8764,3.8443,3.7824,3.6832,3.6568,3.6158,3.5507,3.6037,3.6258,3.632,3.6352,3.6116,3.5625,3.6038,3.6148,3.5721,3.6148,3.6429,3.6429,3.646,3.6492,3.6492,3.6523,3.6662,3.6922,3.7282,3.7854,3.8407,3.853,3.8805,3.9575,3.8957,3.8266,3.8294,3.8169,3.7854,3.7354,3.7055,3.6784,3.6616,3.6723,3.6538,3.6662,3.6922,3.7252,3.7371,3.7312,3.7193,3.7163,3.6861,3.6585,3.6383,3.5737,3.4993,3.4346,3.3665,3.2938,3.2372,3.2205,3.2073,3.189,3.1347,3.0507,2.9499,2.7804,2.6629,2.521,2.4059,2.3062,2.1507,2.0746,1.9985,1.9355,1.8727,1.8133,4.8324,4.8324,4.8324,4.8324,4.8324,4.8324,4.8324,4.8324,4.8324,4.8324,4.8324,4.8324,4.8324,4.8324,4.8324,4.8324,4.8305,4.8152,4.8093,4.8093,4.8073,4.8073,4.8035,4.7935,4.7995,4.8229,4.8015,4.7485,4.689,4.6537,4.5703,4.4619,4.4511,4.4018,4.2854,4.257,4.2275,4.2009,4.1218,4.0812,4.0899,3.9838,3.9167,3.91,3.8341,3.75,3.6706,3.6424,3.6289,3.632,3.6305,3.6414,3.6677,3.6585,3.6585,3.6738,3.6554,3.6492,3.6492,3.6492,3.6492,3.6585,3.6877,3.7312,3.7722,3.8238,3.8838,3.9375,3.9549,3.9722,3.9833,3.9661,3.9189,3.8761,3.8712,3.8574,3.8149,3.8177,3.808,3.7499,3.7161,3.6906,3.6708,3.6754,3.6662,3.6936,3.6738,3.6507,3.6538,3.6476,3.6383,3.6383,3.5737,3.5124,3.4298,3.363,3.2995,3.2336,3.2059,3.1753,3.1619,3.1545,3.0696,2.9305,2.7643,2.6182,2.4776,2.3661,2.2746,2.1961,2.115,2.0529,1.9994,1.9401,1.8812,4.8324,4.8324,4.8324,4.8324,4.8324,4.8324,4.8324,4.8324,4.8324,4.8324,4.8324,4.8324,4.8324,4.8324,4.8324,4.8324,4.8324,4.8324,4.8324,4.8324,4.8324,4.8324,4.8324,4.8324,4.8324,4.8267,4.8132,4.7715,4.7115,4.673,4.6133,4.5328,4.5086,4.4642,4.3939,4.3492,4.3258,4.3089,4.2477,4.2124,4.2077,4.1233,4.0554,4.0328,3.9626,3.8921,3.8262,3.7826,3.7235,3.6693,3.6738,3.7072,3.7387,3.7222,3.7178,3.7013,3.6952,3.6754,3.6554,3.6492,3.6631,3.6846,3.7178,3.7666,3.8222,3.8849,3.9408,3.967,3.9944,4.0087,3.9986,3.991,3.9687,3.9332,3.9242,3.8984,3.8569,3.8334,3.795,3.7308,3.692,3.6753,3.6554,3.6352,3.6163,3.6445,3.6258,3.6068,3.6148,3.6211,3.6305,3.6383,3.6163,3.5335,3.423,3.3547,3.2981,3.2381,3.1853,3.1408,3.1097,3.1259,3.0859,2.8785,2.7005,2.5872,2.4541,2.3661,2.2833,2.2129,2.1516,2.0836,2.0303,2.0039,1.9538,4.8324,4.8324,4.8324,4.8324,4.8324,4.8324,4.8324,4.8324,4.8305,4.8305,4.8305,4.8286,4.8286,4.8305,4.8286,4.8287,4.8324,4.8324,4.8324,4.8287,4.8248,4.821,4.8287,4.8324,4.8324,4.8248,4.7917,4.7593,4.736,4.6799,4.5985,4.5511,4.5239,4.4886,4.4536,4.4536,4.4412,4.435,4.4378,4.3782,4.2794,4.2531,4.1988,4.0899,4.0675,4.0369,3.9935,3.9713,3.8926,3.7477,3.78,3.7884,3.7687,3.8014,3.765,3.6861,3.7148,3.7104,3.6754,3.6693,3.6892,3.7387,3.7608,3.7725,3.8407,3.9001,3.9408,3.947,3.9825,4.0113,4.0062,3.9961,3.9858,3.9875,3.9661,3.9152,3.808,3.7589,3.7205,3.6631,3.6258,3.6164,3.6196,3.6022,3.5988,3.5988,3.5973,3.5973,3.6085,3.6148,3.6242,3.6242,3.6163,3.5237,3.4027,3.3422,3.2818,3.1982,3.1545,3.1272,3.0671,3.0759,3.0431,2.8362,2.6719,2.5589,2.4456,2.3531,2.2965,2.2482,2.1819,2.1105,2.0836,2.0763,2.0402,4.8324,4.8324,4.8324,4.8324,4.8324,4.8324,4.8324,4.8287,4.8247,4.8246,4.8226,4.813,4.8131,4.8226,4.8226,4.8247,4.8305,4.8287,4.8324,4.823,4.7917,4.7997,4.8248,4.8305,4.8267,4.821,4.8035,4.7935,4.7551,4.7208,4.6583,4.5691,4.5503,4.5169,4.4692,4.4598,4.4598,4.4598,4.4598,4.4457,4.4012,4.3477,4.3072,4.2746,4.2136,4.1477,4.0825,4.0494,4.0019,3.9165,3.882,3.8683,3.856,3.8351,3.811,3.7759,3.7464,3.7522,3.7682,3.7433,3.7476,3.8026,3.8379,3.8767,3.8947,3.9523,3.9799,3.9893,4.0062,4.0062,3.9977,3.991,3.9858,3.9772,3.9703,3.9382,3.8684,3.8051,3.7397,3.6905,3.6259,3.5943,3.5863,3.575,3.5699,3.5651,3.5668,3.5765,3.5926,3.599,3.6053,3.5943,3.5688,3.4762,3.3919,3.3346,3.2583,3.1593,3.1211,3.1248,3.0608,3.0139,2.9342,2.7947,2.6771,2.5642,2.4317,2.3193,2.2877,2.2799,2.2271,2.1739,2.2024,2.2033,2.1445,4.8324,4.8324,4.8324,4.8324,4.8324,4.8324,4.8324,4.8287,4.8267,4.8247,4.8208,4.813,4.811,4.8187,4.813,4.8169,4.8247,4.8247,4.8286,4.821,4.7775,4.7611,4.7692,4.7731,4.7713,4.7713,4.7713,4.7545,4.7291,4.7138,4.6507,4.58,4.5503,4.5106,4.4637,4.4598,4.4598,4.4598,4.4598,4.4598,4.4542,4.4207,4.3927,4.381,4.332,4.2802,4.2258,4.1959,4.1352,4.0513,4.0206,4.014,3.9971,3.9874,3.9539,3.9149,3.8937,3.8988,3.8682,3.8402,3.8402,3.8655,3.9071,3.9329,3.9566,3.9944,4.0113,4.0087,4.0113,4.0062,3.9986,3.991,3.9833,3.9729,3.9651,3.9345,3.8717,3.7908,3.7354,3.6814,3.6274,3.5831,3.5831,3.5716,3.5602,3.5554,3.5604,3.5686,3.5831,3.5846,3.5874,3.5868,3.5466,3.4655,3.3801,3.3149,3.2514,3.1508,3.1108,3.1145,3.0649,2.9829,2.8624,2.7666,2.67,2.5631,2.4317,2.342,2.3387,2.3169,2.2731,2.2511,2.2608,2.2344,2.1847,4.8324,4.8324,4.8324,4.8324,4.8324,4.8324,4.8324,4.8324,4.8286,4.8267,4.8267,4.8189,4.8168,4.8187,4.809,4.809,4.8226,4.8226,4.8187,4.7994,4.7569,4.7164,4.6822,4.6981,4.7026,4.7044,4.6931,4.6954,4.6908,4.6554,4.6126,4.5734,4.5302,4.4923,4.4654,4.4598,4.4598,4.4598,4.4598,4.4598,4.4598,4.4497,4.4384,4.4179,4.4064,4.386,4.3634,4.3446,4.2789,4.1313,4.1687,4.1581,4.1446,4.1877,4.1516,4.0664,4.0582,4.0504,3.9895,3.9662,3.9564,3.9627,3.964,3.9704,4.0314,4.0535,4.0587,4.062,4.0367,4.0493,4.051,4.0307,4.0305,4.0215,3.9957,3.9303,3.8509,3.7658,3.7028,3.6708,3.638,3.6111,3.6139,3.6042,3.5909,3.6207,3.6184,3.6298,3.6396,3.6411,3.63,3.6079,3.5444,3.4607,3.3776,3.2971,3.2314,3.1558,3.128,3.1087,3.0752,2.9884,2.8415,2.7302,2.6659,2.5631,2.4305,2.3841,2.3707,2.3406,2.2828,2.274,2.2662,2.2024,2.1535,4.8324,4.8324,4.8324,4.8324,4.8324,4.8324,4.8324,4.8305,4.8247,4.8246,4.8189,4.811,4.811,4.8187,4.8052,4.8092,4.8247,4.8207,4.8048,4.76,4.7093,4.6566,4.6291,4.6472,4.6753,4.6817,4.6886,4.6886,4.6771,4.6537,4.6262,4.5691,4.5372,4.5115,4.4682,4.4598,4.4598,4.4598,4.4598,4.4598,4.4598,4.4598,4.4514,4.4293,4.4097,4.3864,4.3717,4.3628,4.3492,4.3157,4.2676,4.2183,4.1851,4.1744,4.1529,4.114,4.0991,4.1124,4.1198,4.0934,4.0856,4.11,4.1147,4.152,4.1617,4.1675,4.1762,4.1813,4.1839,4.166,4.1627,4.1736,4.1572,4.1335,4.1017,4.0661,4.0119,3.8584,3.766,3.7592,3.715,3.6784,3.743,3.7319,3.7149,3.7038,3.6974,3.7057,3.7064,3.6974,3.6802,3.6503,3.5534,3.4725,3.4116,3.3237,3.2347,3.1811,3.1525,3.121,3.0831,3.0102,2.8733,2.7673,2.6812,2.5686,2.4461,2.373,2.3526,2.3208,2.2911,2.2602,2.2258,2.1651,2.1078,4.8324,4.8324,4.8324,4.8324,4.8324,4.8324,4.8324,4.8287,4.8267,4.8265,4.8228,4.813,4.813,4.8187,4.807,4.811,4.8228,4.8247,4.807,4.7606,4.6986,4.6448,4.6137,4.597,4.596,4.6084,4.6168,4.6193,4.6168,4.6077,4.5726,4.539,4.5249,4.4961,4.4654,4.4598,4.4598,4.4598,4.4598,4.4598,4.4598,4.4598,4.4457,4.4196,4.3923,4.3687,4.3628,4.3615,4.3658,4.3604,4.3293,4.2956,4.2805,4.268,4.251,4.2377,4.2319,4.2265,4.2344,4.2149,4.1915,4.1899,4.1986,4.1986,4.2013,4.2078,4.2142,4.2169,4.2162,4.2206,4.2303,4.2269,4.225,4.2169,4.1871,4.161,4.1135,3.9693,3.8521,3.8685,3.8498,3.8142,3.8172,3.8348,3.7921,3.7571,3.7455,3.7538,3.7327,3.7267,3.7244,3.6793,3.5741,3.4918,3.4361,3.3551,3.2555,3.2068,3.1751,3.1443,3.1082,3.0212,2.9169,2.8138,2.699,2.5925,2.4794,2.4088,2.344,2.3268,2.2942,2.2417,2.1823,2.1239,2.0663,4.8324,4.8324,4.8324,4.8324,4.8324,4.8324,4.8324,4.8324,4.8324,4.8305,4.8305,4.8228,4.8208,4.8189,4.809,4.809,4.805,4.7974,4.7772,4.7503,4.6699,4.6358,4.6144,4.5632,4.5266,4.522,4.5459,4.5502,4.5476,4.5247,4.5239,4.5032,4.4858,4.4765,4.4626,4.4598,4.4598,4.4598,4.4598,4.4598,4.457,4.4542,4.4355,4.4085,4.3805,4.3628,4.3598,4.3615,4.3615,4.3615,4.3552,4.3671,4.3864,4.401,4.4027,4.3931,4.3694,4.3444,4.3089,4.2967,4.2751,4.2172,4.2234,4.225,4.2328,4.244,4.254,4.2545,4.2633,4.2671,4.2605,4.2774,4.2767,4.2689,4.2574,4.2343,4.2038,4.1099,4.0455,3.9832,3.9739,3.9486,3.9368,3.9422,3.8742,3.8186,3.8099,3.7997,3.7831,3.7669,3.7694,3.7269,3.6256,3.492,3.427,3.4006,3.3005,3.2439,3.2145,3.1845,3.1431,3.0544,2.9569,2.8216,2.7086,2.602,2.5073,2.4251,2.3705,2.3463,2.3013,2.2492,2.1744,2.0912,2.0315,4.8324,4.8324,4.8324,4.8324,4.8324,4.8324,4.8324,4.8324,4.8324,4.8324,4.8305,4.8287,4.8267,4.8248,4.8207,4.799,4.7687,4.7482,4.7204,4.6941,4.6341,4.6059,4.5895,4.5468,4.5177,4.5247,4.5344,4.5414,4.5344,4.5167,4.5059,4.4951,4.4765,4.4615,4.4598,4.4598,4.4598,4.4598,4.4598,4.4598,4.457,4.4412,4.4258,4.3956,4.3704,4.3598,4.3598,4.3615,4.3615,4.3568,4.3342,4.3235,4.3325,4.3522,4.3628,4.3658,4.3628,4.3495,4.3359,4.3393,4.3422,4.3385,4.3277,4.3427,4.3489,4.3576,4.3404,4.3528,4.3618,4.3759,4.3951,4.3732,4.3968,4.4002,4.3816,4.3618,4.3509,4.3032,4.2266,4.1452,4.1096,4.0753,4.0593,4.0508,4.0232,3.9702,3.9375,3.9146,3.8878,3.8615,3.8404,3.7721,3.6838,3.5385,3.4079,3.4027,3.356,3.3022,3.2663,3.2397,3.1878,3.1029,2.9947,2.8511,2.721,2.6065,2.5177,2.4458,2.3953,2.3671,2.3122,2.2582,2.1781,2.0971,2.0377,4.8324,4.8324,4.8324,4.8324,4.8324,4.8324,4.8324,4.8324,4.8324,4.8324,4.8324,4.8324,4.8324,4.8305,4.8248,4.7974,4.7545,4.7374,4.7049,4.6689,4.6189,4.591,4.5794,4.5441,4.53,4.5318,4.5371,4.5414,4.5388,4.514,4.5022,4.494,4.4737,4.4598,4.4598,4.4598,4.4598,4.4598,4.4598,4.4598,4.457,4.4338,4.4085,4.3881,4.3568,4.3462,4.3539,4.3204,4.3174,4.3235,4.3005,4.2881,4.2898,4.2959,4.3066,4.3082,4.3113,4.3113,4.3096,4.3113,4.3111,4.3309,4.3432,4.3568,4.3687,4.3756,4.3894,4.3998,4.4068,4.4126,4.4117,4.4196,4.4281,4.4367,4.4281,4.4184,4.4068,4.3923,4.3363,4.2755,4.2619,4.2178,4.1597,4.1596,4.1658,4.1294,4.0668,4.0216,3.9788,3.9199,3.8671,3.7971,3.7025,3.5709,3.4317,3.3839,3.3611,3.3154,3.2865,3.2649,3.2089,3.1101,2.9976,2.8675,2.7387,2.6208,2.5775,2.5243,2.4574,2.3871,2.3426,2.2822,2.1914,2.1079,2.0496,4.8324,4.8324,4.8324,4.8324,4.8324,4.8324,4.8324,4.8324,4.8324,4.8248,4.8172,4.823,4.819,4.8053,4.7935,4.7752,4.7356,4.727,4.689,4.6376,4.596,4.5802,4.5709,4.552,4.5318,4.5371,4.5397,4.5414,4.5344,4.5113,4.5022,4.494,4.472,4.4598,4.4598,4.4598,4.4598,4.4598,4.4598,4.4587,4.4429,4.4229,4.3939,4.3734,4.3312,4.3204,4.3235,4.2943,4.2803,4.2851,4.2726,4.2523,4.2492,4.2444,4.238,4.2412,4.2491,4.2585,4.2617,4.2648,4.282,4.299,4.2974,4.3174,4.3432,4.3582,4.3687,4.3822,4.391,4.401,4.4056,4.4039,4.4126,4.4196,4.4224,4.4184,4.4085,4.3939,4.3776,4.3558,4.3793,4.3372,4.2569,4.2269,4.2269,4.1624,4.0974,4.027,3.9809,3.909,3.8523,3.7947,3.7039,3.5883,3.469,3.3683,3.327,3.2736,3.2506,3.2332,3.1781,3.1048,2.9908,2.8805,2.7624,2.658,2.63,2.5732,2.4793,2.4091,2.3724,2.3048,2.2035,2.1266,2.0612,4.8324,4.8324,4.8324,4.8324,4.8324,4.8324,4.8324,4.8324,4.8324,4.8055,4.7756,4.8055,4.7816,4.7331,4.7156,4.684,4.6537,4.6483,4.6242,4.576,4.5572,4.552,4.5485,4.545,4.5371,4.5414,4.5414,4.5414,4.5318,4.5113,4.5005,4.494,4.472,4.4598,4.4598,4.4598,4.4598,4.4598,4.4598,4.4457,4.4184,4.4015,4.3674,4.3342,4.3113,4.2974,4.282,4.2617,4.2554,4.2601,4.2349,4.2174,4.2109,4.1851,4.1737,4.19,4.2222,4.2617,4.2522,4.2491,4.2539,4.2649,4.2664,4.2851,4.3113,4.3402,4.3568,4.3628,4.3687,4.3717,4.3852,4.3881,4.3998,4.4027,4.4039,4.3998,4.391,4.3776,4.3658,4.3522,4.3492,4.3522,4.3127,4.3005,4.2772,4.2029,4.1276,4.0497,3.9778,3.9038,3.8464,3.791,3.6908,3.5762,3.4841,3.3839,3.3013,3.2388,3.2245,3.2013,3.1371,3.0734,3.0136,2.9017,2.7757,2.6484,2.5732,2.5099,2.459,2.4181,2.3775,2.3055,2.2158,2.1447,2.0735,4.8363,4.8324,4.8324,4.8324,4.8324,4.8324,4.8324,4.8324,4.8305,4.8035,4.7674,4.7777,4.7506,4.6976,4.6908,4.6672,4.6284,4.6211,4.5905,4.5502,4.5414,4.5414,4.5423,4.5414,4.5414,4.5414,4.5397,4.5344,4.5247,4.5113,4.4978,4.4858,4.4692,4.4598,4.4598,4.4598,4.4598,4.457,4.4468,4.4327,4.4068,4.3776,4.3432,4.3096,4.2726,4.257,4.2522,4.2174,4.219,4.219,4.2013,4.1818,4.1818,4.1687,4.1588,4.1621,4.1835,4.2029,4.2029,4.2029,4.2174,4.2302,4.2349,4.2444,4.2805,4.3113,4.3204,4.3035,4.3402,4.3539,4.3492,4.3628,4.3822,4.3881,4.3793,4.3822,4.3717,4.3582,4.3462,4.3295,4.3204,4.3204,4.3066,4.2632,4.2364,4.1981,4.101,4.003,3.9442,3.8863,3.836,3.7962,3.683,3.5588,3.4746,3.3898,3.2828,3.2257,3.2125,3.1793,3.0958,3.0306,2.9624,2.8588,2.7189,2.6013,2.5118,2.4726,2.4461,2.4125,2.3786,2.2962,2.2184,2.1551,2.0704,4.8494,4.8382,4.8325,4.8324,4.8324,4.8324,4.8324,4.8324,4.8324,4.7975,4.7464,4.7164,4.6873,4.6771,4.6672,4.6411,4.5988,4.6137,4.5854,4.5563,4.5414,4.5414,4.5414,4.5414,4.5414,4.5414,4.514,4.514,4.5086,4.4879,4.4703,4.4776,4.4682,4.4598,4.4598,4.4598,4.457,4.4485,4.4355,4.4155,4.3877,4.3505,4.3174,4.2789,4.2412,4.2174,4.2254,4.1932,4.1818,4.1851,4.1769,4.1654,4.1621,4.1456,4.1323,4.1323,4.1407,4.1407,4.1489,4.1588,4.1736,4.1916,4.2109,4.2238,4.2445,4.2774,4.2912,4.2679,4.299,4.3113,4.3113,4.3204,4.3295,4.3402,4.3462,4.3539,4.3522,4.3265,4.3113,4.3005,4.2881,4.2789,4.2554,4.2078,4.1804,4.1739,4.0878,3.9626,3.8994,3.8531,3.8285,3.7848,3.6557,3.5427,3.4774,3.3885,3.2859,3.2113,3.1994,3.1484,3.0678,2.9704,2.883,2.7709,2.6484,2.5586,2.4637,2.4489,2.4291,2.3836,2.3388,2.2878,2.2239,2.152,2.0745,4.8587,4.8569,4.8382,4.8324,4.8324,4.8324,4.8324,4.8324,4.8324,4.7795,4.6959,4.6102,4.597,4.6161,4.6211,4.5963,4.5528,4.598,4.5778,4.5537,4.5414,4.5414,4.5414,4.5414,4.5414,4.5291,4.4961,4.4852,4.4769,4.4271,4.4418,4.4676,4.4423,4.4497,4.444,4.4224,4.4253,4.4196,4.4051,4.3864,4.3552,4.3204,4.282,4.2333,4.2109,4.198,4.1704,4.1507,4.1555,4.1621,4.144,4.1358,4.1258,4.0938,4.0783,4.0615,4.0615,4.065,4.0768,4.1189,4.1522,4.1687,4.1851,4.198,4.1819,4.2333,4.2522,4.2459,4.2522,4.268,4.2649,4.2664,4.2834,4.2803,4.2881,4.2912,4.2881,4.282,4.2664,4.2633,4.2539,4.2349,4.19,4.1393,4.1229,4.1162,4.0034,3.8767,3.8509,3.8113,3.8037,3.7529,3.6227,3.5305,3.4774,3.3746,3.2438,3.1981,3.1849,3.1193,3.0362,2.9338,2.8319,2.6952,2.5771,2.4962,2.4291,2.4143,2.3886,2.3438,2.2929,2.2375,2.177,2.0998,2.0351,4.8733,4.8715,4.8532,4.8458,4.8419,4.8438,4.8363,4.8306,4.8287,4.7775,4.684,4.5912,4.5511,4.5693,4.5718,4.5615,4.5423,4.5581,4.5554,4.5476,4.5414,4.5414,4.5414,4.5414,4.5414,4.5264,4.4824,4.4373,4.4282,4.3718,4.3393,4.3499,4.3722,4.3575,4.3486,4.3456,4.3486,4.3621,4.3549,4.3386,4.3402,4.2974,4.257,4.2174,4.1456,4.1489,4.144,4.0873,4.1057,4.1207,4.0873,4.0721,4.0603,4.0135,3.9819,3.9626,3.9591,3.9713,4.0025,4.0547,4.0938,4.0771,4.1192,4.154,4.1026,4.1393,4.1574,4.164,4.1868,4.2013,4.2254,4.2428,4.2569,4.2317,4.219,4.2221,4.2078,4.1949,4.2029,4.1933,4.1851,4.1769,4.1225,4.0668,4.0638,4.0519,3.9211,3.8104,3.7863,3.7582,3.7429,3.6975,3.5709,3.4761,3.4181,3.3122,3.1981,3.1761,3.1617,3.0836,3.0,2.9108,2.7992,2.6532,2.5304,2.4677,2.4192,2.3845,2.3538,2.3188,2.2577,2.1869,2.1143,2.047,1.9976,4.884,4.8822,4.8714,4.8624,4.8532,4.8532,4.8476,4.8401,4.8401,4.7858,4.6959,4.6102,4.5615,4.5528,4.5476,4.545,4.5423,4.545,4.5441,4.5414,4.5414,4.5414,4.5414,4.5414,4.5414,4.522,4.4569,4.4054,4.4037,4.3166,4.2645,4.252,4.2629,4.2614,4.2707,4.2489,4.263,4.2785,4.274,4.2522,4.2506,4.2142,4.1722,4.1343,4.0786,4.0718,4.0737,4.0393,4.0289,4.0393,4.0205,3.9788,3.9525,3.9167,3.8745,3.8546,3.8473,3.8583,3.9,3.9642,4.013,4.001,4.0343,4.0413,4.0274,4.0516,4.0721,4.0668,4.0992,4.136,4.159,4.1624,4.1656,4.1409,4.1245,4.1211,4.0961,4.0792,4.1044,4.116,4.1075,4.0922,4.0413,3.9804,3.9305,3.9167,3.8405,3.7558,3.7404,3.7081,3.6638,3.6016,3.5061,3.4194,3.3437,3.2544,3.1749,3.1395,3.1116,3.0476,2.9635,2.8749,2.7662,2.6254,2.5206,2.4538,2.4044,2.3596,2.3288,2.3029,2.2224,2.1369,2.1065,2.0458,1.9862,4.8891,4.889,4.8873,4.8767,4.8624,4.8605,4.8605,4.855,4.8514,4.8,4.715,4.6578,4.607,4.5718,4.5563,4.5528,4.545,4.5423,4.5414,4.5414,4.5414,4.5414,4.5414,4.5414,4.5414,4.5069,4.4468,4.3997,4.398,4.28,4.2062,4.1689,4.1771,4.1852,4.2395,4.2332,4.2205,4.1997,4.1739,4.1395,4.1129,4.0912,4.0672,4.0497,4.008,4.0025,4.0462,3.9975,3.9905,4.0065,3.9713,3.9376,3.9079,3.8524,3.8092,3.7866,3.7829,3.7829,3.7904,3.8796,3.9066,3.9139,3.9412,3.952,3.9748,3.9889,3.996,3.9905,4.0065,4.0359,4.0443,4.0478,4.0615,4.0547,4.0378,4.0224,3.9964,3.9809,4.0089,4.0535,4.0239,3.9889,3.9448,3.887,3.8121,3.7644,3.7275,3.7017,3.694,3.6573,3.6084,3.5251,3.4428,3.3704,3.2907,3.2196,3.1528,3.1172,3.0713,3.0159,2.9257,2.8272,2.7094,2.5926,2.5069,2.435,2.3795,2.3288,2.2929,2.2526,2.1674,2.0979,2.071,2.0305,1.9623,4.889,4.889,4.889,4.8855,4.8785,4.875,4.8678,4.855,4.8251,4.7781,4.7176,4.6694,4.6224,4.5854,4.5641,4.5581,4.5528,4.5423,4.5414,4.5414,4.5414,4.5414,4.5414,4.5414,4.5414,4.5194,4.4541,4.3997,4.398,4.2676,4.1949,4.1525,4.1075,4.0956,4.1057,4.1091,4.1008,4.1227,4.106,4.0789,4.0672,4.0466,4.0343,4.032,3.9722,3.9778,4.0462,3.9728,3.9442,3.9819,3.9535,3.9066,3.8891,3.8465,3.7956,3.7462,3.7232,3.6936,3.6741,3.7014,3.7491,3.7843,3.8428,3.8613,3.8494,3.8789,3.9009,3.9241,3.9241,3.9565,3.999,4.0045,4.006,3.9707,3.9493,3.932,3.9124,3.9058,3.9224,3.9824,3.9889,3.9484,3.9,3.804,3.7183,3.694,3.6679,3.664,3.6561,3.6071,3.5575,3.4662,3.3827,3.3134,3.2413,3.1681,3.1205,3.0802,3.0487,3.0068,2.9084,2.7945,2.7152,2.6215,2.5167,2.4161,2.3696,2.3238,2.2526,2.192,2.1151,2.0684,2.0538,1.9965,1.9094,4.889,4.889,4.889,4.889,4.8891,4.8839,4.8767,4.8641,4.8365,4.798,4.7554,4.7102,4.6595,4.6168,4.5803,4.5615,4.5607,4.5476,4.5414,4.5414,4.5414,4.5414,4.5414,4.5414,4.5414,4.5238,4.4824,4.4344,4.3992,4.2675,4.1739,4.1125,4.0681,4.0558,4.0505,4.042,4.0351,4.0409,4.015,3.9905,3.9839,3.9733,3.9642,3.9529,3.9292,3.9169,3.955,3.937,3.8767,3.9284,3.903,3.842,3.8279,3.7904,3.7477,3.7014,3.7155,3.6883,3.6598,3.6494,3.6872,3.6652,3.7462,3.7668,3.7481,3.7796,3.8023,3.8263,3.8427,3.873,3.9103,3.9211,3.9154,3.8782,3.8892,3.8716,3.8494,3.8428,3.8818,3.9412,3.9326,3.8964,3.8436,3.7295,3.627,3.6204,3.6178,3.6138,3.6045,3.5588,3.5087,3.4246,3.3318,3.2587,3.1933,3.1238,3.0758,3.0442,3.0114,2.9795,2.8956,2.7825,2.7163,2.6398,2.5206,2.4202,2.3746,2.3129,2.2349,2.151,2.0721,2.0425,2.037,1.9444,1.8326,4.889,4.889,4.889,4.889,4.889,4.8891,4.8891,4.8891,4.8873,4.8642,4.8248,4.7715,4.7142,4.6631,4.6062,4.577,4.5658,4.5502,4.545,4.5441,4.5467,4.5441,4.5414,4.5414,4.5414,4.5194,4.4852,4.4373,4.4049,4.2675,4.1509,4.0768,4.0455,4.0331,4.0242,4.0101,3.998,3.9844,3.9436,3.9241,3.9154,3.873,3.873,3.8671,3.8612,3.8449,3.8472,3.815,3.7634,3.7366,3.6875,3.6482,3.6151,3.5871,3.6282,3.6922,3.7701,3.7295,3.7102,3.7039,3.6638,3.6375,3.6443,3.664,3.6875,3.7095,3.7289,3.7366,3.7467,3.7606,3.7805,3.7933,3.8075,3.8188,3.8472,3.8285,3.7947,3.8121,3.8613,3.8796,3.8509,3.8138,3.7572,3.6584,3.5764,3.5723,3.5642,3.5426,3.5332,3.5032,3.4524,3.4024,3.3091,3.2108,3.1415,3.0701,3.0352,2.9988,2.9669,2.9301,2.8456,2.7741,2.703,2.6167,2.5069,2.4192,2.3438,2.2741,2.2012,2.1102,1.9853,1.9617,1.9416,1.8296,1.7225,4.889,4.889,4.889,4.889,4.889,4.889,4.889,4.889,4.8873,4.866,4.8267,4.7816,4.7295,4.6817,4.6211,4.5972,4.5838,4.5761,4.5632,4.5581,4.5528,4.5476,4.5423,4.5414,4.5414,4.522,4.4879,4.4446,4.3956,4.2676,4.1426,4.0627,4.0331,4.0242,4.0066,3.9874,3.9768,3.9538,3.9053,3.8855,3.8671,3.8389,3.8427,3.8538,3.8277,3.824,3.836,3.8075,3.7772,3.7744,3.7601,3.7472,3.7486,3.7434,3.7663,3.761,3.7587,3.7295,3.7663,3.7738,3.741,3.6741,3.6716,3.6561,3.6654,3.6654,3.6772,3.6758,3.6783,3.7003,3.7285,3.7491,3.7505,3.7644,3.7895,3.7933,3.7682,3.763,3.8092,3.8078,3.78,3.7496,3.6894,3.607,3.5399,3.5318,3.5182,3.4922,3.4662,3.4387,3.3956,3.3462,3.2581,3.15,3.0824,3.0114,2.9852,2.9542,2.9255,2.8978,2.8409,2.7694,2.6887,2.5829,2.4677,2.3728,2.2878,2.2122,2.1246,1.9837,1.8656,1.8553,1.823,1.7175,1.6406,4.889,4.889,4.889,4.8926,4.8979,4.8979,4.8979,4.896,4.8926,4.8678,4.8267,4.7797,4.7335,4.684,4.6284,4.5972,4.5972,4.5821,4.5693,4.5589,4.5589,4.5502,4.545,4.5397,4.5414,4.522,4.5059,4.4742,4.3985,4.2754,4.1442,4.0558,4.0296,4.0137,3.996,3.9732,3.9517,3.9307,3.9038,3.8782,3.8575,3.8389,3.8501,3.8538,3.8202,3.83,3.8383,3.7962,3.7971,3.7866,3.7663,3.78,3.7913,3.8063,3.8063,3.7951,3.7814,3.7738,3.7951,3.8026,3.7776,3.7525,3.7295,3.7309,3.6872,3.6691,3.6468,3.631,3.6389,3.6547,3.6886,3.7183,3.7144,3.7067,3.7362,3.7615,3.7424,3.7193,3.7256,3.7319,3.7165,3.6933,3.6373,3.5535,3.5113,3.5154,3.4977,3.4592,3.4275,3.3956,3.3437,3.2882,3.186,3.081,3.0215,2.9703,2.9393,2.922,2.9071,2.8699,2.8269,2.7458,2.6398,2.5333,2.4273,2.3299,2.2304,2.1196,2.0203,1.8775,1.7577,1.726,1.6931,1.619,1.5543,4.889,4.889,4.889,4.8979,4.9084,4.9084,4.9032,4.9032,4.8856,4.866,4.8267,4.7736,4.727,4.6817,4.6308,4.6048,4.6023,4.5922,4.5821,4.5615,4.5658,4.5581,4.5476,4.5423,4.5414,4.5397,4.5113,4.4558,4.3881,4.2707,4.1492,4.0524,4.0226,4.0066,3.996,3.9661,3.943,3.909,3.8929,3.8708,3.8501,3.8329,3.8202,3.8179,3.7839,3.7572,3.7289,3.7211,3.7313,3.6989,3.7,3.7333,3.7838,3.8086,3.8086,3.8138,3.8026,3.8153,3.8175,3.8175,3.7951,3.7875,3.7988,3.7548,3.6922,3.6922,3.678,3.6415,3.6455,3.6191,3.6375,3.6833,3.6936,3.6858,3.6922,3.7025,3.6869,3.6791,3.6986,3.6986,3.6752,3.6492,3.6056,3.5304,3.4812,3.4949,3.4825,3.4426,3.3632,3.3267,3.2698,3.2047,3.0989,3.0102,2.9897,2.9428,2.9024,2.885,2.8699,2.8409,2.793,2.6972,2.5868,2.4741,2.365,2.2635,2.1642,2.0392,1.9113,1.7864,1.6801,1.6071,1.5535,1.51,1.4966,4.889,4.889,4.889,4.8979,4.9103,4.8979,4.8803,4.8569,4.8476,4.8382,4.8152,4.7482,4.7022,4.6771,4.6357,4.6122,4.6122,4.6073,4.6023,4.5871,4.5812,4.5658,4.5554,4.545,4.5397,4.5238,4.4852,4.3997,4.2968,4.2125,4.1509,4.0578,4.0261,4.0137,4.0011,3.9711,3.9394,3.8965,3.8833,3.8686,3.8501,3.8315,3.8202,3.8052,3.7787,3.738,3.707,3.6758,3.6508,3.6111,3.6663,3.7295,3.8026,3.8063,3.8436,3.8745,3.8302,3.8302,3.8376,3.8175,3.7762,3.7396,3.7218,3.6805,3.6688,3.7204,3.7242,3.6805,3.6441,3.6044,3.5937,3.6427,3.6702,3.657,3.6492,3.6373,3.6241,3.6439,3.6674,3.6517,3.6294,3.599,3.5561,3.5168,3.4716,3.4564,3.4564,3.4037,3.2722,3.2003,3.1521,3.0866,2.9943,2.9233,2.9233,2.9037,2.8642,2.8362,2.8164,2.7872,2.7531,2.6297,2.5024,2.3992,2.2961,2.1784,2.0508,1.9225,1.7967,1.6829,1.614,1.5431,1.4948,1.4503,1.4419,4.889,4.8909,4.8962,4.9032,4.9084,4.9029,4.8907,4.8678,4.8232,4.8035,4.7897,4.7248,4.6794,4.6625,4.6319,4.6214,4.6214,4.6214,4.6073,4.6015,4.5939,4.5787,4.5658,4.5502,4.5194,4.4934,4.4013,4.3031,4.2093,4.1591,4.114,4.0558,4.0366,4.0207,4.0011,3.9768,3.9451,3.898,3.887,3.8686,3.8501,3.8315,3.8089,3.7901,3.7558,3.7148,3.6915,3.6601,3.6533,3.648,3.6986,3.7424,3.789,3.7965,3.8339,3.859,3.8405,3.804,3.8264,3.8026,3.7458,3.7179,3.7116,3.6947,3.7025,3.7434,3.7281,3.6883,3.6624,3.6269,3.6189,3.6545,3.6084,3.5763,3.591,3.5976,3.5588,3.5305,3.5454,3.5413,3.5264,3.5196,3.4881,3.484,3.4343,3.3729,3.3771,3.3079,3.184,3.1101,3.0519,2.9897,2.9095,2.8792,2.8932,2.8631,2.8154,2.7872,2.7589,2.6952,2.6348,2.5266,2.4108,2.3075,2.1859,2.0508,1.9235,1.806,1.6973,1.5895,1.5371,1.485,1.4394,1.3902,1.3661,4.889,4.8926,4.9032,4.9066,4.9101,4.9131,4.9081,4.8875,4.8137,4.7677,4.7485,4.7071,4.6625,4.6326,4.6196,4.6214,4.6214,4.6214,4.6115,4.6065,4.6015,4.5889,4.5693,4.5468,4.4971,4.4299,4.3469,4.2738,4.1997,4.1624,4.1225,4.0612,4.0366,4.0207,4.0031,3.9803,3.9502,3.909,3.887,3.8701,3.8478,3.8292,3.7976,3.7634,3.7226,3.6797,3.664,3.6547,3.6755,3.6922,3.7141,3.7753,3.813,3.8339,3.8664,3.8914,3.8583,3.8144,3.7904,3.751,3.7295,3.7218,3.7295,3.7179,3.7102,3.7141,3.6986,3.6869,3.661,3.6427,3.6308,3.607,3.5494,3.51,3.5359,3.5507,3.495,3.4481,3.4509,3.4551,3.4509,3.4481,3.4439,3.4397,3.3827,3.3164,3.2463,3.1577,3.0878,3.0609,3.017,2.9441,2.8678,2.856,2.8571,2.8222,2.7683,2.721,2.6829,2.6031,2.513,2.4135,2.3093,2.2057,2.0797,1.9389,1.8178,1.7014,1.5957,1.5194,1.4971,1.464,1.3806,1.3318,1.2829,4.889,4.889,4.8926,4.9015,4.9084,4.9013,4.8784,4.8532,4.8288,4.7795,4.7204,4.6976,4.6666,4.6214,4.6214,4.6214,4.6214,4.6214,4.6214,4.6165,4.6073,4.5972,4.5649,4.5008,4.4395,4.3748,4.3183,4.28,4.1965,4.1706,4.1327,4.0558,4.0489,4.0296,4.0046,3.9818,3.9625,3.9141,3.8833,3.8649,3.8389,3.8165,3.7991,3.761,3.7226,3.6797,3.6457,3.6085,3.5991,3.6163,3.6663,3.7601,3.8227,3.8649,3.9009,3.9256,3.8877,3.8568,3.8182,3.7242,3.6947,3.657,3.6373,3.579,3.591,3.6255,3.6215,3.6334,3.607,3.579,3.5642,3.5345,3.488,3.4688,3.4799,3.4799,3.4522,3.4439,3.4439,3.4384,3.4343,3.4259,3.4217,3.3869,3.3164,3.255,3.2028,3.119,3.0306,3.0034,2.9772,2.9084,2.8351,2.7977,2.7788,2.7636,2.72,2.6686,2.6001,2.5054,2.4078,2.3037,2.2033,2.0812,1.9598,1.821,1.7087,1.6238,1.5652,1.5054,1.485,1.4442,1.3565,1.2587,1.195]}]]